[[{"header":{"parameterUnit":"m.s-1","parameterCategory":1,"la1":30.6,"la2":28.766,"lo1":-90.7593,"lo2":-88.6598,"dy":0.0162,"dx":0.0183,"nx":116,"ny":114,"refTime":"2024-03-05T18:00:00:Z","depth":0,"parameterNumber":2,"parameterNumberName":"U-component_of_WINDS"},"data":[0.0,0.0,0.0,0.0,0.0,0.0,0.0,0.0,0.0,0.0,0.0,0.0,0.0,0.0,0.0,0.0,0.0,0.0,0.0,0.0,0.0,0.0,0.0,0.0,0.0,0.0,0.0,0.0,0.0,0.0,0.0,0.0,0.0,0.0,0.0,0.0,0.0,0.0,0.0,0.0,0.0,0.0,0.0,0.0,0.0,0.0,0.0,0.0,0.0,0.0,0.0,0.0,0.0,0.0,0.0,0.0,0.0,0.0,0.0,0.0,0.0,0.0,0.0,0.0,0.0,0.0,0.0,0.0,0.0,0.0,0.0,0.0,0.0,0.0,0.0,0.0,0.0,0.0,0.0,0.0,0.0,0.0,0.0,0.0,0.0,0.0,0.0,0.0,0.0,0.0,0.0,0.0,0.0,0.0,0.0,0.0,0.0,0.0,0.0,0.0,0.0,0.0,0.0,0.0,0.0,0.0,0.0,0.0,0.0,0.0,0.0,0.0,0.0,0.0,0.0,0.0,0.0,0.0,0.0,0.0,0.0,0.0,0.0,0.0,0.0,0.0,0.0,0.0,0.0,0.0,0.0,0.0,0.0,0.0,0.0,0.0,0.0,0.0,0.0,0.0,0.0,0.0,0.0,0.0,0.0,0.0,0.0,0.0,0.0,0.0,0.0,0.0,0.0,0.0,0.0,0.0,0.0,0.0,0.0,0.0,0.0,0.0,0.0,0.0,0.0,0.0,0.0,0.0,0.0,0.0,0.0,0.0,0.0,0.0,0.0,0.0,0.0,0.0,0.0,0.0,0.0,0.0,0.0,0.0,0.0,0.0,0.0,0.0,0.0,0.0,0.0,0.0,0.0,0.0,0.0,0.0,0.0,0.0,0.0,0.0,0.0,0.0,0.0,0.0,0.0,0.0,0.0,0.0,0.0,0.0,0.0,0.0,0.0,0.0,0.0,0.0,0.0,0.0,0.0,0.0,0.0,0.0,0.0,0.0,0.0,0.0,0.0,0.0,0.0,0.0,0.0,0.0,0.0,0.0,0.0,0.0,0.0,0.0,0.0,0.0,0.0,0.0,0.0,0.0,0.0,0.0,0.0,0.0,0.0,0.0,0.0,0.0,0.0,0.0,0.0,0.0,0.0,0.0,0.0,0.0,0.0,0.0,0.0,0.0,0.0,0.0,0.0,0.0,0.0,0.0,0.0,0.0,0.0,0.0,0.0,0.0,0.0,0.0,0.0,0.0,0.0,0.0,0.0,0.0,0.0,0.0,0.0,0.0,0.0,0.0,0.0,0.0,0.0,0.0,0.0,0.0,0.0,0.0,0.0,0.0,0.0,0.0,0.0,0.0,0.0,0.0,0.0,0.0,0.0,0.0,0.0,0.0,0.0,0.0,0.0,0.0,0.0,0.0,0.0,0.0,0.0,0.0,0.0,0.0,0.0,0.0,0.0,0.0,0.0,0.0,0.0,0.0,0.0,0.0,0.0,0.0,0.0,0.0,0.0,0.0,0.0,0.0,0.0,0.0,0.0,0.0,0.0,0.0,0.0,0.0,0.0,0.0,0.0,0.0,0.0,0.0,0.0,0.0,0.0,0.0,0.0,0.0,0.0,0.0,0.0,0.0,0.0,0.0,0.0,0.0,0.0,0.0,0.0,0.0,0.0,0.0,0.0,0.0,0.0,0.0,0.0,0.0,0.0,0.0,0.0,0.0,0.0,0.0,0.0,0.0,0.0,0.0,0.0,0.0,0.0,0.0,0.0,0.0,0.0,0.0,0.0,0.0,0.0,0.0,0.0,0.0,0.0,0.0,0.0,0.0,0.0,0.0,0.0,0.0,0.0,0.0,0.0,0.0,0.0,0.0,0.0,0.0,0.0,0.0,0.0,0.0,0.0,0.0,0.0,0.0,0.0,0.0,0.0,0.0,0.0,0.0,0.0,0.0,0.0,0.0,0.0,0.0,0.0,0.0,0.0,0.0,0.0,0.0,0.0,0.0,0.0,0.0,0.0,0.0,0.0,0.0,0.0,0.0,0.0,0.0,0.0,0.0,0.0,0.0,0.0,0.0,0.0,0.0,0.0,0.0,0.0,0.0,0.0,0.0,0.0,0.0,0.0,0.0,0.0,0.0,0.0,0.0,0.0,0.0,0.0,0.0,0.0,0.0,0.0,0.0,0.0,0.0,0.0,0.0,0.0,0.0,0.0,0.0,0.0,0.0,0.0,0.0,0.0,0.0,0.0,0.0,0.0,0.0,0.0,0.0,0.0,0.0,0.0,0.0,0.0,0.0,0.0,0.0,0.0,0.0,0.0,0.0,0.0,0.0,0.0,0.0,0.0,0.0,0.0,0.0,0.0,0.0,0.0,0.0,0.0,0.0,0.0,0.0,0.0,0.0,0.0,0.0,0.0,0.0,0.0,0.0,0.0,0.0,0.0,0.0,0.0,0.0,0.0,0.0,0.0,0.0,0.0,0.0,0.0,0.0,0.0,0.0,0.0,0.0,0.0,0.0,0.0,0.0,0.0,0.0,0.0,0.0,0.0,0.0,0.0,0.0,0.0,0.0,0.0,0.0,0.0,0.0,0.0,0.0,0.0,0.0,0.0,0.0,0.0,0.0,0.0,0.0,0.0,0.0,0.0,0.0,0.0,0.0,0.0,0.0,0.0,0.0,0.0,0.0,0.0,0.0,0.0,0.0,0.0,0.0,0.0,0.0,0.0,0.0,0.0,0.0,0.0,0.0,0.0,0.0,0.0,0.0,0.0,0.0,0.0,0.0,0.0,0.0,0.0,0.0,0.0,0.0,0.0,0.0,0.0,0.0,0.0,0.0,0.0,0.0,0.0,0.0,0.0,0.0,0.0,0.0,0.0,0.0,0.0,0.0,0.0,0.0,0.0,0.0,0.0,0.0,0.0,0.0,0.0,0.0,0.0,0.0,0.0,0.0,0.0,0.0,0.0,0.0,0.0,0.0,0.0,0.0,0.0,0.0,0.0,0.0,0.0,0.0,0.0,0.0,0.0,0.0,0.0,0.0,0.0,0.0,0.0,0.0,0.0,0.0,0.0,0.0,0.0,0.0,0.0,0.0,0.0,0.0,0.0,0.0,0.0,0.0,0.0,0.0,0.0,0.0,0.0,0.0,0.0,0.0,0.0,0.0,0.0,0.0,0.0,0.0,0.0,0.0,0.0,0.0,0.0,0.0,0.0,0.0,0.0,0.0,0.0,0.0,0.0,0.0,0.0,0.0,0.0,0.0,0.0,0.0,0.0,0.0,0.0,0.0,0.0,0.0,0.0,0.0,0.0,0.0,0.0,0.0,0.0,0.0,0.0,0.0,0.0,0.0,0.0,0.0,0.0,0.0,0.0,0.0,0.0,0.0,0.0,0.0,0.0,0.0,0.0,0.0,0.0,0.0,0.0,0.0,0.0,0.0,0.0,0.0,0.0,0.0,0.0,0.0,0.0,0.0,0.0,0.0,0.0,0.0,0.0,0.0,0.0,0.0,0.0,0.0,0.0,0.0,0.0,0.0,0.0,0.0,0.0,0.0,0.0,0.0,0.0,0.0,0.0,0.0,0.0,0.0,0.0,0.0,0.0,0.0,0.0,0.0,0.0,0.0,0.0,0.0,0.0,0.0,0.0,0.0,0.0,0.0,0.0,0.0,0.0,0.0,0.0,0.0,0.0,0.0,0.0,0.0,0.0,0.0,0.0,0.0,0.0,0.0,0.0,0.0,0.0,0.0,0.0,0.0,0.0,0.0,0.0,0.0,0.0,0.0,0.0,0.0,0.0,0.0,0.0,0.0,0.0,0.0,0.0,0.0,0.0,0.0,0.0,0.0,0.0,0.0,0.0,0.0,0.0,0.0,0.0,0.0,0.0,0.0,0.0,0.0,0.0,0.0,0.0,0.0,0.0,0.0,0.0,0.0,0.0,0.0,0.0,0.0,0.0,0.0,0.0,0.0,0.0,0.0,0.0,0.0,0.0,0.0,0.0,0.0,0.0,0.0,0.0,0.0,0.0,0.0,0.0,0.0,0.0,0.0,0.0,0.0,0.0,0.0,0.0,0.0,0.0,0.0,0.0,0.0,0.0,0.0,0.0,0.0,0.0,0.0,0.0,0.0,0.0,0.0,0.0,0.0,0.0,0.0,0.0,0.0,0.0,0.0,0.0,0.0,0.0,0.0,0.0,0.0,0.0,0.0,0.0,0.0,0.0,0.0,0.0,0.0,0.0,0.0,0.0,0.0,0.0,0.0,0.0,0.0,0.0,0.0,0.0,0.0,0.0,0.0,0.0,0.0,0.0,0.0,0.0,0.0,0.0,0.0,0.0,0.0,0.0,0.0,0.0,0.0,0.0,0.0,0.0,0.0,0.0,0.0,0.0,0.0,0.0,0.0,0.0,0.0,0.0,0.0,0.0,0.0,0.0,0.0,0.0,0.0,0.0,0.0,0.0,0.0,0.0,0.0,0.0,0.0,0.0,0.0,0.0,0.0,0.0,0.0,0.0,0.0,0.0,0.0,0.0,0.0,0.0,0.0,0.0,0.0,0.0,0.0,0.0,0.0,0.0,0.0,0.0,0.0,0.0,0.0,0.0,0.0,0.0,0.0,0.0,0.0,0.0,0.0,0.0,0.0,0.0,0.0,0.0,0.0,0.0,0.0,0.0,0.0,0.0,0.0,0.0,0.0,0.0,0.0,0.0,0.0,0.0,0.0,0.0,0.0,0.0,0.0,0.0,0.0,0.0,0.0,0.0,0.0,0.0,0.0,0.0,0.0,0.0,0.0,0.0,0.0,0.0,0.0,0.0,0.0,0.0,0.0,0.0,0.0,0.0,0.0,0.0,0.0,0.0,0.0,0.0,0.0,0.0,0.0,0.0,0.0,0.0,0.0,0.0,0.0,0.0,0.0,0.0,0.0,0.0,0.0,0.0,0.0,0.0,0.0,0.0,0.0,0.0,0.0,0.0,0.0,0.0,0.0,0.0,0.0,0.0,0.0,0.0,0.0,0.0,0.0,0.0,0.0,0.0,0.0,0.0,0.0,0.0,0.0,0.0,0.0,0.0,0.0,0.0,0.0,0.0,0.0,0.0,0.0,0.0,0.0,0.0,0.0,0.0,0.0,0.0,0.0,0.0,0.0,0.0,0.0,0.0,0.0,0.0,0.0,0.0,0.0,0.0,0.0,0.0,0.0,0.0,0.0,0.0,0.0,0.0,0.0,0.0,0.0,0.0,0.0,0.0,0.0,0.0,0.0,0.0,0.0,0.0,0.0,0.0,0.0,0.0,0.0,0.0,0.0,0.0,0.0,0.0,0.0,0.0,0.0,0.0,0.0,0.0,0.0,0.0,0.0,0.0,0.0,0.0,0.0,0.0,0.0,0.0,0.0,0.0,0.0,0.0,0.0,0.0,0.0,0.0,0.0,0.0,0.0,0.0,0.0,0.0,0.0,0.0,0.0,0.0,0.0,0.0,0.0,0.0,0.0,0.0,0.0,0.0,0.0,0.0,0.0,0.0,0.0,0.0,0.0,0.0,0.0,0.0,0.0,0.0,0.0,0.0,0.0,0.0,0.0,0.0,0.0,0.0,0.0,0.0,0.0,0.0,0.0,0.0,0.0,0.0,0.0,0.0,0.0,0.0,0.0,0.0,0.0,0.0,0.0,0.0,0.0,0.0,0.0,0.0,0.0,0.0,0.0,0.0,0.0,0.0,0.0,0.0,0.0,0.0,0.0,0.0,0.0,0.0,0.0,0.0,0.0,0.0,0.0,0.0,0.0,0.0,0.0,0.0,0.0,0.0,0.0,0.0,0.0,0.0,0.0,0.0,0.0,0.0,0.0,0.0,0.0,0.0,0.0,0.0,0.0,0.0,0.0,0.0,0.0,0.0,0.0,0.0,0.0,0.0,0.0,0.0,0.0,0.0,0.0,0.0,0.0,0.0,0.0,0.0,0.0,0.0,0.0,0.0,0.0,0.0,0.0,0.0,0.0,0.0,0.0,0.0,0.0,0.0,0.0,0.0,0.0,0.0,0.0,0.0,0.0,0.0,0.0,0.0,0.0,0.0,0.0,0.0,0.0,0.0,0.0,0.0,0.0,0.0,0.0,0.0,0.0,-2.8638,0.0,0.0,0.0,0.0,0.0,0.0,0.0,0.0,0.0,0.0,0.0,0.0,0.0,0.0,0.0,0.0,0.0,0.0,0.0,0.0,0.0,0.0,0.0,0.0,0.0,0.0,0.0,0.0,0.0,0.0,0.0,0.0,0.0,0.0,0.0,0.0,0.0,-2.8968,-2.8968,-2.9312,-2.9639,-3.0009,-3.0171,-2.9462,-2.804,0.0,0.0,0.0,0.0,0.0,0.0,0.0,0.0,0.0,0.0,0.0,0.0,0.0,0.0,0.0,0.0,0.0,0.0,0.0,0.0,0.0,0.0,0.0,0.0,0.0,0.0,0.0,0.0,0.0,0.0,0.0,0.0,0.0,0.0,0.0,0.0,0.0,0.0,0.0,0.0,0.0,0.0,0.0,0.0,0.0,0.0,0.0,0.0,0.0,0.0,0.0,0.0,0.0,0.0,0.0,0.0,0.0,0.0,0.0,0.0,0.0,0.0,0.0,0.0,0.0,0.0,0.0,0.0,0.0,0.0,-2.8913,-2.8233,0.0,0.0,0.0,0.0,0.0,0.0,0.0,0.0,0.0,0.0,0.0,0.0,0.0,0.0,0.0,0.0,0.0,0.0,0.0,0.0,0.0,0.0,0.0,-2.6249,-2.7247,-2.7347,-2.7412,-2.7649,0.0,0.0,0.0,0.0,0.0,-2.8161,-2.8109,-2.8197,-2.8247,-2.8247,-2.8895,-2.9585,-3.0259,-3.0373,-2.9672,-2.8271,-2.7711,0.0,0.0,0.0,0.0,0.0,0.0,0.0,0.0,0.0,0.0,0.0,0.0,0.0,0.0,0.0,0.0,0.0,0.0,0.0,0.0,0.0,0.0,0.0,0.0,0.0,0.0,0.0,0.0,0.0,0.0,0.0,0.0,0.0,0.0,0.0,0.0,0.0,0.0,0.0,0.0,0.0,0.0,0.0,0.0,0.0,0.0,0.0,0.0,0.0,0.0,0.0,0.0,0.0,0.0,0.0,0.0,0.0,0.0,0.0,0.0,0.0,0.0,0.0,-2.7791,-2.8382,-2.87,-2.8825,-2.9055,-2.9338,-2.8885,-2.9025,-2.9454,-2.791,0.0,0.0,0.0,0.0,0.0,0.0,0.0,0.0,0.0,0.0,0.0,0.0,0.0,0.0,0.0,0.0,0.0,0.0,0.0,0.0,0.0,-2.6091,-2.6978,-2.7447,-2.7915,-2.8185,-2.8259,0.0,-2.8051,-2.7853,-2.8301,-2.8388,-2.8122,-2.8574,-2.8787,-2.8787,-2.9391,-2.9997,-3.0543,-3.0582,-3.0455,-3.019,-2.9623,-2.9091,-2.8569,0.0,0.0,0.0,0.0,0.0,0.0,0.0,0.0,0.0,0.0,0.0,0.0,0.0,0.0,0.0,0.0,0.0,0.0,0.0,0.0,0.0,0.0,0.0,0.0,0.0,0.0,0.0,0.0,0.0,0.0,0.0,0.0,0.0,0.0,0.0,0.0,0.0,0.0,0.0,0.0,0.0,-2.7096,-2.7478,0.0,0.0,0.0,0.0,0.0,0.0,0.0,0.0,0.0,0.0,0.0,0.0,0.0,-2.7456,-2.7577,-2.7985,-2.812,-2.8059,-2.8775,-2.8698,-2.7936,-2.8437,-2.8426,-2.8106,-2.9277,0.0,-2.8952,-2.8261,0.0,0.0,0.0,0.0,0.0,0.0,0.0,0.0,0.0,0.0,0.0,0.0,0.0,0.0,0.0,0.0,0.0,0.0,0.0,0.0,0.0,-2.5156,-2.6193,-2.6415,-2.6876,-2.7207,-2.7259,-2.6979,-2.6889,-2.705,-2.7289,-2.7589,-2.7932,-2.7901,-2.8122,-2.8626,-2.945,-2.9799,-2.9777,-3.0219,-3.0436,-3.0451,-3.0572,-3.0204,-2.9369,-2.8465,0.0,0.0,0.0,0.0,0.0,0.0,0.0,0.0,0.0,0.0,0.0,0.0,0.0,0.0,0.0,0.0,0.0,0.0,0.0,0.0,0.0,0.0,0.0,0.0,0.0,0.0,0.0,0.0,0.0,0.0,0.0,0.0,0.0,0.0,0.0,0.0,0.0,0.0,0.0,-2.6221,-2.6313,-2.6344,-2.6306,-2.6164,0.0,0.0,0.0,0.0,0.0,0.0,0.0,0.0,0.0,-2.6874,-2.6931,-2.7025,-2.7172,-2.7795,-2.7865,-2.736,-2.8221,-2.8268,-2.7578,-2.7836,-2.7813,-2.7589,-2.8245,-2.8371,-2.808,-2.845,-2.8179,-2.7409,0.0,0.0,0.0,0.0,-2.5117,-2.5345,0.0,0.0,0.0,0.0,0.0,0.0,0.0,0.0,0.0,0.0,0.0,0.0,-2.2847,-2.4432,-2.554,-2.5795,-2.6038,-2.6279,-2.6496,-2.5876,-2.5698,-2.6158,-2.6129,-2.6443,-2.7226,-2.7054,-2.7261,-2.7898,-2.8804,-2.9011,-2.8639,-2.9371,-2.9747,-2.976,-3.0614,-3.0763,-3.0288,-2.9148,-2.8505,-2.8109,0.0,0.0,0.0,0.0,0.0,0.0,0.0,0.0,0.0,0.0,0.0,0.0,0.0,0.0,0.0,0.0,0.0,0.0,0.0,0.0,0.0,0.0,0.0,0.0,0.0,0.0,0.0,0.0,0.0,0.0,0.0,0.0,0.0,0.0,0.0,0.0,0.0,-2.5577,-2.5684,-2.5438,-2.5825,-2.5858,0.0,0.0,0.0,0.0,0.0,0.0,-2.6124,-2.6091,-2.6329,-2.6937,-2.6832,-2.6831,-2.7053,-2.7471,-2.7308,-2.6628,-2.7114,-2.7092,-2.6671,-2.6671,-2.6671,-2.6682,-2.6943,-2.7042,-2.7108,-2.8028,-2.8331,-2.8032,-2.6233,-2.5923,-2.6304,-2.5206,-2.498,-2.5206,0.0,0.0,0.0,0.0,0.0,0.0,0.0,0.0,0.0,0.0,0.0,-2.2688,-2.3476,-2.4429,-2.5387,-2.6355,-2.607,-2.6026,-2.6485,-2.5686,-2.5253,-2.5356,-2.5103,-2.5217,-2.5704,-2.6248,-2.6558,-2.6599,-2.7155,-2.7411,-2.74,-2.794,-2.8209,-2.8252,-2.9369,-3.0406,-3.1279,-3.0195,-2.9705,-2.9517,-2.7352,0.0,0.0,0.0,0.0,0.0,0.0,0.0,0.0,0.0,0.0,0.0,0.0,0.0,0.0,0.0,0.0,0.0,0.0,0.0,0.0,0.0,0.0,0.0,0.0,0.0,0.0,0.0,0.0,0.0,0.0,0.0,0.0,0.0,0.0,0.0,0.0,0.0,0.0,-2.522,-2.5948,0.0,0.0,0.0,0.0,-2.6442,-2.5595,-2.5472,-2.6431,-2.6485,-2.6933,-2.7894,-2.7417,-2.7643,-2.8569,-2.7302,-2.6641,-2.6585,-2.5737,-2.5101,-2.4655,-2.4655,-2.4655,-2.4719,-2.5645,-2.6064,-2.6097,-2.653,-2.6458,-2.5994,-2.5374,-2.4636,-2.3935,-2.428,-2.4205,-2.3908,0.0,0.0,0.0,0.0,0.0,0.0,0.0,0.0,-1.9496,-1.9465,-2.0518,-2.1461,-2.2015,-2.3082,-2.3915,-2.4273,-2.4425,-2.4445,-2.4313,-2.4008,-2.3868,-2.3868,-2.3789,-2.3954,-2.4448,-2.585,-2.6235,-2.5594,-2.6452,-2.6674,-2.6334,-2.7075,-2.7383,-2.746,-2.8621,-2.9702,-3.0664,-3.0744,-3.0419,-2.9729,-2.8925,-2.8157,0.0,0.0,0.0,0.0,0.0,0.0,0.0,0.0,0.0,0.0,0.0,0.0,0.0,0.0,0.0,0.0,0.0,0.0,0.0,0.0,0.0,0.0,0.0,0.0,0.0,0.0,0.0,0.0,0.0,0.0,0.0,0.0,0.0,0.0,0.0,0.0,0.0,-2.5189,-2.575,0.0,-2.5726,-2.5346,-2.5273,-2.569,-2.5876,-2.6051,-2.6127,-2.6412,-2.6729,-2.7112,-2.6892,-2.7012,-2.7355,-2.6827,-2.6287,-2.5717,-2.535,-2.4941,-2.4497,-2.4497,-2.4497,-2.4507,-2.4888,-2.5047,-2.5047,-2.5198,-2.5519,-2.585,-2.5356,-2.4766,-2.4187,-2.4051,-2.3941,-2.3744,0.0,0.0,0.0,0.0,0.0,0.0,0.0,0.0,-1.8823,-1.8838,-1.999,-2.0957,-2.1406,-2.2418,-2.3208,-2.35,-2.3564,-2.3574,-2.352,-2.312,-2.2945,-2.3003,-2.3149,-2.3261,-2.3359,-2.4985,-2.5438,-2.4642,-2.5438,-2.5662,-2.5334,-2.5891,-2.6116,-2.6181,-2.7357,-2.8355,-2.9157,-3.0081,-3.0486,-3.0463,-3.0088,-2.9414,-2.8524,0.0,0.0,0.0,0.0,0.0,0.0,0.0,0.0,0.0,0.0,0.0,0.0,0.0,0.0,0.0,0.0,0.0,0.0,0.0,0.0,0.0,0.0,0.0,0.0,0.0,0.0,0.0,0.0,0.0,0.0,0.0,0.0,0.0,0.0,0.0,-2.5399,-2.521,-2.5885,-2.6175,-2.573,-2.5678,-2.5751,-2.5906,-2.632,-2.6553,-2.6397,-2.6687,-2.6853,-2.6853,-2.6853,-2.677,-2.6615,-2.6459,-2.5867,-2.4859,-2.4717,-2.4341,-2.3777,-2.3777,-2.3777,-2.3777,-2.3777,-2.375,-2.3619,-2.3619,-2.38,-2.4126,-2.4323,-2.4023,-2.343,-2.2916,-2.2618,-2.244,0.0,0.0,0.0,0.0,0.0,0.0,0.0,-1.8344,-1.8773,-1.9238,-2.043,-2.1375,-2.1795,-2.2541,-2.3378,-2.4159,-2.3479,-2.3353,-2.4178,-2.3081,-2.25,-2.2759,-2.3172,-2.3098,-2.2502,-2.3754,-2.4183,-2.3764,-2.4173,-2.4414,-2.4414,-2.4414,-2.4414,-2.446,-2.5548,-2.6386,-2.6978,-2.8061,-2.982,-3.1727,-3.0642,-3.068,-3.117,0.0,0.0,0.0,0.0,0.0,0.0,0.0,0.0,0.0,0.0,0.0,0.0,0.0,0.0,0.0,0.0,0.0,0.0,0.0,0.0,0.0,0.0,0.0,0.0,0.0,0.0,0.0,0.0,0.0,0.0,0.0,0.0,0.0,-2.3981,-2.5068,-2.5716,-2.5289,-2.6429,-2.7049,-2.6625,-2.6553,-2.6729,-2.7173,-2.6791,-2.6739,-2.7183,-2.7214,-2.7214,-2.7214,-2.7194,-2.6966,-2.6501,-2.6036,-2.5257,-2.4143,-2.3692,-2.3091,-2.2394,-2.2394,-2.2394,-2.2394,-2.2394,-2.222,-2.1912,-2.1902,-2.1398,-2.0754,-2.2244,-2.2244,-2.1402,-2.0792,-2.0294,-1.9904,0.0,0.0,0.0,0.0,0.0,0.0,-1.8008,-1.8633,-1.915,-1.9268,-2.0703,-2.1399,-2.0592,-2.1277,-2.1526,-2.0926,-2.0616,-2.0581,-2.0835,-2.0512,-2.0799,-2.1889,-2.3018,-2.313,-2.218,-2.3739,-2.3966,-2.2777,-2.3884,-2.4414,-2.4414,-2.4414,-2.4414,-2.4424,-2.5063,-2.5868,-2.6733,-2.7325,-2.8634,-3.0308,-3.0201,-3.0073,-2.9929,0.0,0.0,0.0,0.0,0.0,0.0,0.0,0.0,0.0,0.0,0.0,0.0,0.0,0.0,0.0,0.0,0.0,0.0,0.0,0.0,0.0,0.0,0.0,0.0,0.0,0.0,0.0,0.0,0.0,0.0,0.0,-2.2756,-2.3678,-2.4697,-2.5234,-2.5839,-2.6632,-2.6045,-2.5732,-2.6256,-2.5732,-2.5402,-2.5577,-2.5421,-2.5402,-2.5577,-2.5577,-2.5577,-2.5577,-2.5285,-2.4925,-2.4497,-2.4059,-2.3531,-2.2884,-2.2769,-2.258,-2.2394,-2.2394,-2.2394,-2.2394,-2.2394,-2.2337,-2.2258,-2.2016,-2.1579,-2.1034,-2.1195,-2.087,-2.0311,-2.0153,-1.9998,-1.9904,0.0,0.0,0.0,0.0,0.0,0.0,-1.8008,-1.8584,-1.9082,-1.9268,-2.0644,-2.1306,-2.0568,-2.0891,-2.0828,-2.0162,-1.9625,-1.9364,-1.9409,-1.9274,-1.9687,-2.0818,-2.174,-2.1951,-2.1353,-2.2664,-2.2908,-2.1987,-2.3404,-2.4174,-2.4269,-2.4725,-2.4923,-2.498,-2.5234,-2.5676,-2.6236,-2.6489,-2.7239,-2.8374,-2.8951,-2.9534,-3.0027,-3.0044,-2.9737,-2.9289,-2.9061,-2.8742,-2.8295,-2.7577,0.0,0.0,0.0,0.0,0.0,0.0,0.0,0.0,0.0,0.0,0.0,0.0,0.0,0.0,0.0,0.0,0.0,0.0,0.0,0.0,0.0,0.0,0.0,0.0,-2.2254,-2.3112,-2.3955,-2.4345,-2.479,-2.5559,-2.4821,-2.443,-2.4919,-2.4522,-2.4245,-2.4245,-2.4245,-2.4344,-2.4541,-2.4541,-2.4506,-2.4337,-2.4152,-2.3606,-2.2834,-2.2584,-2.208,-2.1364,-2.1364,-2.1186,-2.0881,-2.0881,-2.0881,-2.0881,-2.0881,-2.0926,-2.0979,-2.0772,-2.047,0.0,0.0,0.0,0.0,0.0,-1.9085,-1.9097,0.0,0.0,0.0,0.0,0.0,0.0,-1.8008,-1.8334,-1.8754,-1.9228,-2.0381,-2.1052,-2.0849,-2.0726,-2.0513,-2.0297,-1.9289,-1.8754,-1.8884,-1.871,-1.8935,-1.9682,-2.0095,-2.0265,-2.0257,-2.1212,-2.1544,-2.1197,-2.2769,-2.3642,-2.389,-2.4864,-2.5382,-2.5528,-2.5528,-2.5586,-2.5693,-2.5693,-2.5986,-2.6486,-2.7347,-2.8896,-3.0589,-3.0089,-2.9413,-2.8679,-2.822,-2.7536,-2.6838,-2.6941,0.0,0.0,0.0,0.0,0.0,0.0,0.0,0.0,0.0,0.0,0.0,0.0,0.0,0.0,0.0,0.0,0.0,0.0,0.0,0.0,0.0,0.0,0.0,0.0,-2.1852,-2.2357,-2.2345,-2.2663,-2.3005,-2.3206,-2.312,-2.3061,-2.3097,-2.307,-2.3044,-2.3044,-2.3044,-2.3244,-2.3692,0.0,0.0,0.0,0.0,-2.2568,-2.1353,-2.1301,-2.0795,-1.9758,-1.9758,-1.9446,-1.8781,-1.8781,-1.8781,-1.8781,-1.8781,-1.8881,-1.8986,-1.8945,-1.8736,-1.8556,-1.9232,-1.9228,-1.8843,-1.8241,-1.7965,-1.788,0.0,0.0,0.0,0.0,0.0,0.0,-1.8008,-1.8334,-1.8754,-1.9228,-2.0145,-2.0208,-1.8841,-1.8812,-1.8219,-1.6536,-1.6237,-1.6218,-1.6462,-1.737,-1.8107,-1.8649,-2.0037,-2.0366,-1.9441,-2.1016,-2.1211,-1.9941,-2.1584,-2.2433,-2.2484,-2.2944,-2.3592,-2.4393,-2.4393,-2.4913,-2.5693,-2.5693,-2.5986,-2.6436,-2.6626,-2.7689,-2.9274,-2.9576,-2.9742,-2.9684,-2.9249,-2.9004,-2.869,-2.7765,-2.7645,-2.756,-2.5773,-2.5338,0.0,0.0,0.0,0.0,0.0,0.0,0.0,0.0,0.0,0.0,0.0,0.0,0.0,0.0,0.0,0.0,0.0,0.0,0.0,-2.0614,-2.0847,-2.098,-2.0712,-2.0567,-2.106,-2.2654,-2.1941,-2.1474,-2.181,-2.1531,-2.1369,-2.1369,-2.1369,-2.142,-2.1514,-2.1514,-2.135,-2.1032,-2.0737,-2.0376,-1.9847,-1.9515,-1.9252,-1.9004,0.0,0.0,-1.8781,-1.8781,-1.8781,-1.8781,-1.8781,-1.8788,-1.8846,-1.8558,-1.8189,-1.7887,-1.8218,-1.8262,-1.8201,-1.804,-1.7843,-1.7608,0.0,0.0,0.0,0.0,0.0,0.0,-1.8178,-1.8252,-1.8477,-1.8906,-1.9333,-1.9223,-1.8267,-1.7721,-1.6899,-1.5573,-1.5136,-1.5144,-1.5585,-1.6306,-1.7008,-1.7527,-1.8492,-1.8816,-1.8401,-1.9284,-1.9522,-1.9062,-2.0552,-2.1382,-2.1493,-2.2366,-2.2976,-2.3285,-2.3285,-2.3601,-2.4106,-2.4658,-2.5036,-2.5284,-2.5848,-2.6507,-2.7317,-2.7844,-2.7833,-2.7558,-2.7699,-2.7757,-2.7678,-2.7233,-2.7142,-2.7084,-2.6023,-2.5599,-2.531,0.0,0.0,0.0,0.0,0.0,0.0,0.0,0.0,0.0,0.0,0.0,0.0,0.0,0.0,-2.058,-2.0484,0.0,-2.062,-2.0148,-2.0171,-2.0136,-1.9786,-1.9616,-1.9994,-2.1094,-2.056,-2.0162,-2.0375,-2.0193,-2.0101,-2.0101,-2.0101,-2.0197,-2.0506,-2.0335,-2.0085,-1.9735,-1.94,-1.8954,-1.837,-1.8155,-1.8032,-1.8032,-1.8032,-1.8032,-1.8032,-1.8032,-1.8032,-1.8032,-1.8032,-1.8218,-1.8427,-1.8356,-1.82,-1.7969,-1.7692,-1.7623,-1.7598,-1.7417,-1.7227,-1.7062,0.0,0.0,0.0,0.0,0.0,0.0,0.0,-1.8168,-1.8198,-1.8549,-1.8608,-1.8479,-1.8202,-1.7181,-1.6163,-1.5408,-1.4881,-1.4875,-1.5408,-1.5826,-1.6291,-1.683,-1.7191,-1.7495,-1.7733,-1.7687,-1.7948,-1.8576,-1.9665,-2.034,-2.062,-2.182,-2.2296,-2.219,-2.219,-2.2291,-2.2534,-2.3434,-2.3791,-2.3881,-2.4876,-2.5208,-2.5208,-2.5684,-2.5547,-2.5155,-2.5699,-2.5864,-2.5815,-2.6292,-2.6388,-2.6338,-2.6418,-2.621,-2.5799,-2.4781,-2.4446,0.0,0.0,0.0,0.0,0.0,0.0,0.0,0.0,0.0,-2.0158,-2.039,-2.0514,-2.0573,-2.0408,-2.0447,-2.0376,-1.9974,-1.9857,-1.9762,-1.9499,-1.9411,-1.9522,-1.9786,-1.9477,-1.9279,-1.9279,-1.9279,-1.9279,-1.9279,-1.9279,-1.948,-1.9931,-1.9605,-1.9272,-1.8981,-1.8613,-1.809,-1.7333,-1.7279,-1.7279,-1.7279,-1.7279,-1.7279,-1.7279,-1.7279,-1.7279,-1.7279,-1.7279,-1.7567,-1.7971,-1.8055,-1.8128,-1.8057,-1.7333,-1.706,-1.7013,-1.6806,-1.665,-1.6547,0.0,0.0,0.0,0.0,0.0,0.0,0.0,0.0,-1.836,-1.8584,-1.8614,-1.8466,-1.8073,-1.7116,-1.5934,-1.4486,-1.4846,-1.5255,-1.5552,-1.6371,-1.7044,-1.7385,-1.7749,-1.8063,-1.8311,-1.8062,-1.8266,-1.8838,-1.8992,-1.9213,-1.9488,-1.9968,-2.0511,-2.1081,-2.1081,-2.1591,-2.2492,-2.2643,-2.2685,-2.2759,-2.3468,-2.3498,-2.3185,-2.3823,-2.4492,-2.5125,-2.5174,-2.494,-2.4771,-2.5785,-2.5891,-2.5652,-2.603,-2.6377,-2.6407,-2.4857,0.0,-2.4108,-2.2826,-2.1855,-2.0989,-2.0385,-2.0165,-2.0294,0.0,0.0,-2.0116,-2.0242,-2.0253,-2.0251,-2.0217,-2.0207,-2.0251,-2.0179,-2.0186,-2.0117,-2.0081,-1.9886,-1.9779,-1.9815,-1.9477,-1.9279,-1.9279,-1.9279,-1.9279,-1.9279,-1.9279,-1.9331,-1.9376,-1.9067,-1.8736,-1.8405,-1.8081,-1.771,-1.7286,-1.7279,-1.7279,-1.7279,-1.7279,-1.7279,-1.7279,-1.7279,-1.7279,-1.7279,-1.7279,-1.7326,-1.7372,-1.7429,-1.7414,-1.7348,-1.6743,-1.6492,-1.6505,-1.6643,-1.6491,-1.6254,0.0,0.0,0.0,0.0,0.0,0.0,0.0,0.0,0.0,-1.8414,-1.8117,-1.7771,-1.7412,-1.6652,-1.5778,-1.4872,-1.5436,-1.5799,-1.5681,-1.6693,-1.7365,-1.7498,-1.7974,-1.8296,-1.8422,-1.8499,-1.8742,-1.9212,-1.9552,-1.9761,-1.9886,-2.0215,-2.031,-2.0271,-2.0271,-2.0721,-2.1591,-2.224,-2.2835,-2.3507,-2.415,-2.4326,-2.4088,-2.3907,-2.4014,-2.4326,-2.4326,-2.4365,0.0,-2.4928,-2.4817,-2.4588,-2.4965,-2.4751,-2.4154,-2.3399,-2.2861,0.0,-2.1744,-2.1248,0.0,0.0,-2.0076,-2.0449,-2.0235,-2.003,-1.9986,-2.0167,-2.0384,-2.0467,-2.0467,-2.0676,-2.0676,0.0,-2.0183,-2.0106,-1.9733,-1.9564,-1.9529,-1.9529,-1.9412,-1.9279,-1.9279,-1.9279,-1.9279,-1.9279,-1.9279,-1.9191,-1.9001,-1.8686,-1.8357,-1.8028,-1.7699,-1.7417,-1.7279,-1.7279,-1.7279,-1.7279,-1.7279,-1.7279,-1.7279,-1.7279,-1.7091,-1.6662,-1.6662,-1.6426,-1.6001,-1.6001,-1.6001,-1.5961,-1.5535,-1.5366,-1.5413,-1.5801,-1.5872,-1.5721,0.0,0.0,0.0,0.0,0.0,0.0,0.0,0.0,0.0,0.0,-1.7975,-1.7518,-1.7003,-1.6475,-1.5959,-1.5386,-1.6093,-1.6415,-1.5944,-1.7117,-1.7802,-1.7867,-1.8263,-1.8589,-1.8759,-1.8939,-1.9208,-1.9628,-2.01,-2.0321,-2.0391,-2.0616,-2.0428,-1.9894,-1.9894,-2.0181,-2.0682,-2.1738,-2.2586,-2.3308,-2.4247,-2.4679,-2.4583,-2.402,-2.3867,-2.3945,-2.3828,-2.3693,-2.3544,-2.3775,-2.336,-2.2818,-2.3235,-2.2805,-2.2062,-2.1744,-2.1139,-2.0542,-2.028,0.0,0.0,-1.9248,-1.974,-2.0279,-1.9702,-1.9725,-1.9981,-2.0303,-2.0559,-2.0691,-2.0603,-2.0786,-2.0757,-2.0194,-2.0106,-1.9908,-1.9352,-1.9279,-1.9279,-1.9279,-1.936,-1.9426,-1.9286,-1.9279,-1.9279,-1.9279,-1.9279,-1.9133,-1.8803,-1.8562,-1.8247,-1.783,-1.7582,-1.7374,-1.7279,-1.7091,-1.6998,-1.6998,-1.681,-1.6709,-1.6709,-1.6709,-1.6379,-1.5906,-1.5906,-1.5575,-1.5099,-1.5099,-1.5099,-1.5067,-1.4657,-1.4471,-1.4519,-1.4756,-1.4888,-1.4874,0.0,0.0,0.0,0.0,0.0,0.0,0.0,0.0,0.0,0.0,0.0,0.0,0.0,-1.695,-1.6533,-1.5744,-1.6711,-1.7123,-1.6501,-1.7783,-1.8624,-1.873,-1.8796,-1.9103,-1.9733,-1.9434,-1.9593,-2.0183,-2.0274,-2.0433,-2.0672,-2.072,-2.0545,-2.0168,-2.0168,-2.0047,-1.99,-2.0989,-2.1247,-2.1151,-2.2877,-2.3549,-2.3563,-2.3736,-2.4043,-2.4346,-2.3935,-2.2713,-2.1438,-2.2269,-2.1455,-2.0078,-2.0577,-2.0952,0.0,-2.0226,-1.9661,-1.9204,-1.8556,0.0,-1.9169,-1.8498,-1.8832,-1.9492,-2.0062,-2.0161,-2.0256,-2.064,-2.0713,-2.0625,-2.0256,-2.0205,-2.0157,-1.9881,-1.983,-1.9713,-1.9323,-1.9279,-1.9279,-1.9279,-1.961,-1.9676,0.0,-1.9279,-1.9279,-1.9279,-1.9279,-1.9133,-1.8803,-1.8782,-1.8482,-1.7838,-1.7808,-1.7647,-1.7286,-1.6567,-1.6237,-1.6237,-1.5527,-1.5146,-1.5146,-1.5146,-1.5146,-1.5146,-1.5146,-1.5099,-1.5099,-1.5099,-1.5099,-1.5041,-1.4447,-1.4231,-1.4161,-1.3644,-1.3557,-1.3704,0.0,0.0,0.0,0.0,0.0,0.0,0.0,0.0,0.0,0.0,0.0,0.0,0.0,0.0,0.0,0.0,-1.7516,-1.7591,-1.739,-1.849,-1.8983,-1.8687,-1.9356,-1.953,-1.9162,-1.9437,-1.9808,-2.0183,-2.0448,-2.0608,-2.0728,-2.0947,-2.0757,-2.019,-2.0409,-2.0634,-2.0952,-2.2029,-2.2681,-2.31,-2.415,-2.4574,-2.4488,-2.3974,-2.3377,-2.2683,0.0,-2.1721,-2.1133,-2.056,-1.9773,-1.9118,-1.9592,-1.9245,-1.8493,-1.753,-1.7484,-1.7685,-1.7667,-1.8108,-1.8705,-1.8912,-1.9279,-1.9711,-2.0135,-2.0183,-2.0212,-2.0321,-2.023,-2.0047,-1.9945,-1.9923,-1.9813,-1.9544,-1.9676,-1.9705,-1.9375,-1.9514,-1.9573,-1.9353,-1.9617,0.0,0.0,0.0,0.0,-1.9346,-1.9074,-1.8694,-1.7953,-1.7618,-1.7098,-1.6497,-1.6317,-1.6164,-1.6016,-1.5774,-1.5579,-1.548,-1.5194,-1.5099,-1.5099,-1.5099,-1.4813,-1.4286,-1.4286,-1.4052,-1.3576,-1.3576,-1.3576,-1.3542,-1.3162,-1.3031,-1.2968,-1.2466,-1.2329,-1.2451,0.0,0.0,0.0,0.0,0.0,0.0,0.0,0.0,0.0,0.0,0.0,0.0,0.0,0.0,0.0,0.0,0.0,-1.8174,-1.7904,-1.8948,-1.9382,-1.8862,-1.9328,-1.938,-1.8927,-1.9,-1.9228,-1.9542,-1.9989,-2.0267,-2.0391,-2.0713,-2.08,-2.0775,-2.0986,-2.1418,-2.2029,-2.3109,-2.3669,-2.3956,-2.4785,-2.4782,-2.4267,-2.3532,-2.2552,0.0,-2.0368,-1.9991,-1.9852,-1.8914,-1.812,-1.7489,-1.7809,-1.7349,-1.6576,-1.6041,-1.6279,-1.6844,-1.7347,-1.7889,-1.846,-1.9111,-1.9433,-1.9727,-1.9996,-2.0069,-2.0033,-1.9916,-1.9733,-1.9573,-1.9286,-1.9338,-1.9308,-1.8979,-1.9199,-1.9397,-1.9133,-1.9286,-1.9434,-1.9286,-1.9617,-1.9683,0.0,0.0,0.0,-1.8869,-1.8654,-1.8072,-1.7076,-1.6823,-1.6419,-1.5796,-1.572,-1.5632,-1.5531,-1.5183,-1.4753,-1.4292,-1.4292,-1.4292,-1.4292,-1.4292,-1.4004,-1.3522,-1.3522,-1.3238,-1.2813,-1.2813,-1.2813,-1.2786,-1.2506,-1.2361,-1.2237,-1.1844,-1.1645,-1.1641,0.0,0.0,0.0,0.0,0.0,0.0,0.0,0.0,0.0,0.0,0.0,0.0,0.0,0.0,0.0,0.0,0.0,0.0,-1.8249,-1.9282,-1.974,-1.9318,-1.8904,-1.8814,-1.9067,-1.8298,-1.8044,-1.8375,-1.9015,-1.9486,-1.9855,-2.0133,-2.0862,-2.1793,-2.1808,-2.2254,-2.2997,-2.408,-2.4121,-2.3542,-2.4612,-2.4211,-2.2935,-2.2447,-2.1686,-2.06,-1.8539,-1.7767,-1.766,-1.7395,-1.6465,-1.5411,-1.5411,-1.5425,-1.5498,-1.587,-1.6191,-1.669,-1.7589,-1.8094,-1.8503,-1.9118,-1.9279,-1.936,-1.972,-1.9779,-1.9676,-1.9316,-1.9272,-1.9016,0.0,0.0,-1.8636,-1.8329,-1.8578,-1.876,-1.876,-1.876,-1.892,0.0,0.0,0.0,0.0,0.0,0.0,-1.7877,0.0,-1.7376,-1.6238,-1.6453,-1.6294,-1.5733,-1.5953,-1.5946,-1.5676,-1.47,-1.3756,-1.2813,-1.2813,-1.2813,-1.2813,-1.2813,-1.2813,-1.2813,-1.2813,-1.2813,-1.2813,-1.2813,-1.2813,-1.2786,-1.2506,-1.2264,-1.2067,-1.1785,-1.1553,-1.1305,0.0,0.0,0.0,0.0,0.0,0.0,0.0,0.0,0.0,0.0,0.0,0.0,0.0,0.0,0.0,0.0,0.0,0.0,-1.9449,-1.9701,-1.9755,-1.9615,-2.0015,-1.987,-1.9106,-1.878,-1.8863,-1.9415,-1.9615,-2.0014,-2.0695,-2.1379,-2.1679,-2.1728,-2.2002,-2.2071,-2.2077,-2.3166,-2.3201,-2.2612,-2.3691,-2.3712,-2.2993,-2.2156,-2.1114,-1.9889,-1.836,-1.7199,-1.6359,0.0,0.0,0.0,-1.5789,-1.5943,-1.6191,-1.6565,-1.7011,-1.7552,-1.8043,-1.8591,-1.9067,-1.9235,-1.9279,-1.9294,-1.9434,-1.9213,-1.9016,-1.8935,-1.8525,-1.8138,0.0,0.0,0.0,-1.7652,-1.8282,0.0,-1.7886,-1.8435,0.0,-1.7755,0.0,-1.7742,-1.7397,-1.7121,0.0,0.0,-1.636,-1.6371,-1.5718,-1.5313,-1.4854,-1.4348,-1.4235,-1.4055,-1.3796,-1.3407,-1.3062,-1.2813,-1.2813,-1.2813,-1.2813,-1.2813,-1.2813,-1.2813,-1.2813,-1.2813,-1.2813,-1.2813,-1.2813,-1.2786,-1.2506,-1.2264,-1.2067,-1.1785,-1.1553,-1.1305,0.0,0.0,0.0,0.0,0.0,0.0,0.0,0.0,0.0,0.0,0.0,0.0,0.0,0.0,0.0,0.0,0.0,0.0,0.0,-2.0167,-2.0185,-2.0101,-2.0294,-2.0117,-1.947,-1.899,-1.9027,-1.951,-1.9563,-1.9874,-2.0504,-2.0957,-2.1357,-2.1634,-2.1804,-2.2064,-2.233,-2.2945,-2.2858,0.0,0.0,-2.2978,-2.2123,-2.1355,-2.0337,-1.9211,-1.7875,-1.6852,-1.6111,0.0,0.0,-1.6491,-1.6491,-1.6652,-1.6828,-1.7011,0.0,-1.8072,-1.8255,-1.8774,-1.9279,-1.9279,-1.9169,-1.906,-1.906,-1.8811,-1.8533,-1.8394,-1.8072,0.0,-1.7625,-1.7499,0.0,0.0,0.0,0.0,-1.6596,-1.6882,-1.7009,0.0,-1.663,0.0,-1.6696,-1.6156,-1.5637,0.0,-1.5372,-1.5263,-1.4646,-1.4287,-1.3991,-1.3663,-1.3545,-1.3357,-1.3109,-1.2974,-1.291,-1.2813,-1.2813,-1.2813,-1.2813,-1.2813,-1.2813,-1.2813,-1.2813,-1.2813,-1.2813,-1.2813,-1.2813,-1.2802,-1.2619,-1.2402,-1.2078,-1.1943,-1.1639,-1.1305,0.0,0.0,0.0,0.0,0.0,0.0,0.0,0.0,0.0,0.0,-2.034,0.0,0.0,0.0,0.0,0.0,0.0,0.0,0.0,0.0,-2.073,-2.0663,-2.0264,-2.0042,-2.0021,-1.9246,-1.8972,-1.9322,-1.9391,-1.9675,-2.0061,-2.0146,-2.0686,-2.1583,-2.1583,-2.2077,-2.2925,-2.2925,-2.2682,-2.2383,-2.2818,-2.2274,-2.1167,0.0,-1.9832,-1.8786,-1.7417,-1.6749,0.0,0.0,-1.7135,-1.7286,-1.733,-1.7421,-1.741,-1.741,-1.7889,-1.8364,-1.8364,-1.8811,-1.9264,-1.922,-1.903,-1.8833,-1.8745,-1.8503,-1.8211,-1.7882,0.0,-1.7614,-1.733,-1.7302,-1.713,-1.6509,0.0,-1.5832,-1.5206,-1.4879,-1.4928,-1.5381,-1.5435,-1.5624,-1.6094,-1.5252,-1.4694,-1.4711,-1.4514,-1.41,-1.3526,-1.348,-1.3464,-1.3432,-1.34,-1.3281,-1.306,-1.306,-1.2958,-1.2813,-1.2813,-1.2813,-1.2813,-1.2813,-1.2813,-1.2813,-1.2813,-1.2813,-1.2813,-1.2813,-1.2813,-1.2813,-1.2813,-1.2537,-1.2137,-1.2105,-1.1774,-1.1354,0.0,0.0,0.0,0.0,0.0,0.0,0.0,0.0,0.0,0.0,-2.1407,-2.1176,0.0,0.0,0.0,0.0,0.0,0.0,0.0,0.0,0.0,-2.0993,-2.0927,-2.083,-2.0731,-2.0207,-2.005,-2.0341,-2.0304,-2.0711,-2.1466,-2.17,-2.1913,-2.208,-2.1881,-2.1932,-2.21,-2.21,-2.1855,-2.1483,-2.2305,-2.2288,-2.1736,-2.1507,0.0,0.0,-1.7637,0.0,0.0,-1.7538,-1.7501,-1.733,-1.7647,-1.7918,-1.813,-1.813,-1.8401,-1.8701,-1.8701,-1.8986,-1.9213,-1.8942,-1.903,-1.9052,-1.8511,-1.8343,0.0,0.0,-1.7604,-1.7352,-1.7293,-1.712,-1.6656,-1.5602,-1.5837,-1.5522,-1.3775,-1.3982,-1.3975,0.0,0.0,0.0,0.0,-1.277,0.0,0.0,-1.261,-1.2752,-1.3459,-1.348,-1.3383,-1.3179,-1.2985,-1.2916,-1.2872,-1.2872,-1.2851,-1.2813,-1.2813,-1.2813,-1.2813,-1.2813,-1.2813,-1.2813,-1.2813,0.0,-1.2813,-1.2813,-1.2813,-1.2813,-1.2813,-1.2597,-1.2328,-1.217,-1.1921,-1.1639,0.0,0.0,0.0,0.0,0.0,0.0,0.0,-2.3883,-2.3703,-2.4296,-2.3786,-2.3154,-2.2542,-2.2674,-2.2759,0.0,0.0,0.0,0.0,0.0,0.0,0.0,-2.1476,-2.1419,-2.1367,-2.1165,-2.1088,-2.1223,0.0,-2.1213,-2.1634,-2.1659,-2.168,-2.169,-2.1451,-2.1371,-2.1371,-2.1281,-2.1074,-2.0967,-2.1836,-2.207,-2.189,0.0,0.0,0.0,0.0,0.0,0.0,0.0,-1.7706,-1.7669,-1.8167,-1.843,-1.8525,-1.835,-1.8533,-1.8789,-1.8789,-1.903,-1.9242,-1.9081,-1.903,-1.8891,-1.8408,0.0,0.0,0.0,-1.7388,-1.7279,-1.7279,-1.7078,0.0,-1.5859,-1.5347,-1.4554,-1.3187,-1.2718,0.0,0.0,0.0,0.0,0.0,-1.1923,-1.1706,-1.1853,-1.1702,-1.1776,-1.2289,-1.2299,-1.2248,-1.2137,-1.2031,-1.198,-1.198,-1.198,-1.198,-1.198,-1.198,-1.198,-1.198,-1.198,-1.198,-1.198,-1.198,-1.198,-1.198,-1.198,-1.198,-1.198,-1.198,-1.1989,-1.1973,-1.1859,-1.1777,-1.1698,0.0,0.0,0.0,0.0,0.0,0.0,0.0,-2.5097,-2.5306,-2.6452,-2.642,-2.5772,-2.4362,-2.4161,-2.3942,0.0,0.0,0.0,0.0,0.0,0.0,0.0,0.0,0.0,0.0,0.0,0.0,-2.1952,-2.1902,0.0,0.0,0.0,0.0,0.0,-2.1101,-2.0945,-2.0906,-2.0731,-2.0644,0.0,0.0,-2.1885,0.0,0.0,0.0,0.0,0.0,0.0,0.0,0.0,-1.7816,-1.7889,-1.8335,-1.8577,-1.8621,-1.8291,-1.8474,-1.8789,-1.8789,-1.903,-1.9257,-1.9191,-1.903,-1.8774,-1.8299,-1.8057,0.0,0.0,-1.7279,-1.7286,-1.7239,-1.7118,-1.6749,0.0,-1.4999,-1.3879,-1.2944,0.0,0.0,0.0,0.0,0.0,0.0,-1.1318,0.0,-1.1284,-1.0987,-1.0949,-1.1194,-1.1194,-1.1194,-1.1194,-1.1194,-1.1194,-1.1194,-1.1194,-1.1194,-1.1194,-1.1194,-1.1194,-1.1194,-1.1194,-1.1194,-1.1194,-1.1194,-1.1194,-1.1194,-1.1194,-1.1194,-1.1194,-1.1194,-1.1342,-1.1527,-1.1434,-1.1492,-1.16,0.0,0.0,0.0,0.0,0.0,0.0,0.0,-2.6492,-2.6886,-2.8043,-2.8582,-2.86,-2.7898,-2.6355,-2.4926,0.0,0.0,0.0,0.0,0.0,0.0,0.0,0.0,0.0,0.0,0.0,0.0,-2.2439,-2.2853,0.0,0.0,0.0,0.0,0.0,0.0,-2.1061,-2.0906,-2.0867,0.0,0.0,0.0,0.0,0.0,0.0,0.0,0.0,0.0,0.0,0.0,0.0,0.0,-1.7772,-1.749,-1.7867,-1.8284,-1.7955,0.0,0.0,-1.8789,-1.903,-1.9258,-1.8906,-1.903,-1.8994,-1.8072,0.0,0.0,-1.741,-1.7279,-1.7239,-1.7066,-1.7156,-1.6871,0.0,0.0,-1.4548,-1.269,0.0,0.0,0.0,0.0,0.0,-1.0518,-1.0251,-1.0171,-1.0502,-1.0031,-1.0167,-1.1145,-1.1194,-1.1194,-1.1194,-1.1194,-1.1194,-1.1194,-1.1194,-1.1194,-1.1194,-1.1194,-1.1194,-1.1194,-1.1194,-1.1194,-1.1194,-1.1194,-1.1194,0.0,-1.1194,-1.1194,-1.1194,-1.1194,-1.1233,-1.1195,-1.0957,-1.1069,-1.1354,0.0,0.0,0.0,0.0,0.0,0.0,-2.6588,-2.6706,-2.7235,-2.8744,-2.9135,-2.9266,-2.9315,-2.8642,-2.7514,-2.5735,0.0,0.0,0.0,0.0,0.0,0.0,0.0,0.0,0.0,0.0,-2.2915,-2.2915,-2.3101,0.0,0.0,0.0,0.0,0.0,0.0,0.0,-2.1051,-2.0945,0.0,0.0,0.0,0.0,0.0,0.0,0.0,0.0,0.0,0.0,0.0,0.0,0.0,0.0,-1.7143,-1.7355,0.0,0.0,-1.7845,-1.8291,-1.8686,-1.903,-1.9294,-1.9111,-1.8884,-1.8584,-1.8196,0.0,-1.764,-1.7384,-1.7279,-1.7286,-1.72,-1.7153,-1.6907,-1.6204,-1.5635,-1.493,-1.3847,0.0,0.0,0.0,0.0,0.0,0.0,0.0,-0.9801,-0.9929,-0.9727,-0.9772,-1.0216,-1.0216,-1.0216,-1.0216,-1.0216,-1.0216,-1.0216,-1.0216,-1.0216,-1.0216,-1.0216,-1.0216,-1.0216,-1.0216,-1.0216,-1.0216,-1.0216,-1.0216,0.0,-1.0216,-1.0216,-1.0216,-1.0216,-1.0413,-1.0694,-1.0617,-1.0752,-1.1009,0.0,0.0,0.0,0.0,0.0,-2.6073,-2.6817,-2.7099,-2.7745,-2.9327,-2.968,-2.9939,-3.0266,-3.0317,-2.9604,-2.7894,-2.6749,0.0,0.0,0.0,0.0,0.0,0.0,0.0,0.0,0.0,-2.3391,-2.3391,-2.3525,-2.3588,0.0,0.0,0.0,0.0,0.0,0.0,0.0,0.0,0.0,0.0,0.0,0.0,0.0,0.0,0.0,0.0,0.0,0.0,0.0,0.0,0.0,0.0,0.0,0.0,0.0,0.0,-1.7486,-1.7933,-1.8496,-1.8884,-1.9155,-1.9302,-1.8789,-1.8299,0.0,0.0,-1.7279,-1.7279,-1.7239,-1.72,-1.7099,-1.6965,-1.6784,-1.6548,-1.5985,-1.5363,-1.4765,-1.3624,0.0,0.0,0.0,-1.0104,0.0,-0.9579,-0.9579,-0.9579,-0.9579,-0.9579,-0.9579,-0.9579,-0.9579,-0.9579,-0.9579,-0.9579,-0.9579,-0.9579,-0.9579,-0.9579,-0.9579,-0.9579,-0.9579,-0.9579,-0.9579,-0.9579,-0.9579,-0.9579,0.0,-0.9579,-0.9579,-0.9579,-0.9579,-0.9821,-1.0167,-1.0167,-1.0343,-1.0614,0.0,0.0,0.0,0.0,0.0,0.0,-2.732,-2.8007,-2.8778,-2.9931,-3.062,-3.0973,-3.0986,-3.0986,-3.0697,-3.0024,-2.8565,0.0,0.0,0.0,0.0,0.0,0.0,0.0,0.0,0.0,-2.3867,-2.3867,-2.427,-2.4487,-2.4476,-2.4074,-2.3629,-2.3163,0.0,0.0,0.0,0.0,0.0,0.0,0.0,0.0,0.0,0.0,0.0,0.0,0.0,0.0,0.0,0.0,0.0,0.0,0.0,-1.6419,-1.6485,-1.6815,-1.7318,-1.7889,-1.8218,-1.8547,-1.8869,-1.9199,-1.8789,-1.8299,0.0,0.0,-1.7279,-1.7279,-1.716,-1.6932,-1.6683,-1.6636,-1.6541,-1.6272,-1.6177,-1.5891,-1.5035,-1.4728,0.0,0.0,0.0,-1.0788,-0.9723,-0.9579,-0.9579,-0.9579,-0.9579,0.0,-0.9579,-0.9579,-0.9579,-0.9579,-0.9579,-0.9579,-0.9579,-0.9579,-0.9579,-0.9579,-0.9579,-0.9579,-0.9579,-0.9579,-0.9579,-0.9579,-0.9579,-0.9579,0.0,-0.9579,-0.9579,-0.9579,-0.9579,-0.9628,-0.9628,-0.9628,-0.9807,-1.0158,0.0,0.0,0.0,0.0,0.0,0.0,0.0,-2.8007,-2.866,-2.9444,-3.0045,-3.0555,-3.0947,-3.0986,-3.1068,-3.1216,-2.9732,0.0,0.0,0.0,0.0,0.0,0.0,0.0,0.0,0.0,-2.4333,-2.4333,-2.4435,-2.4497,-2.4497,-2.4352,-2.4095,-2.365,-2.3505,0.0,0.0,0.0,0.0,0.0,0.0,0.0,0.0,0.0,0.0,0.0,0.0,0.0,0.0,0.0,0.0,0.0,0.0,0.0,0.0,-1.6932,-1.6888,-1.6996,-1.7757,-1.805,-1.8145,-1.8255,-1.7794,-1.7369,-1.7582,0.0,-1.6533,-1.7019,-1.6878,-1.6683,-1.6636,-1.6447,-1.6312,-1.6224,-1.6224,-1.6062,0.0,0.0,0.0,-1.24,-1.0976,-0.9965,0.0,0.0,-0.9579,-0.9579,-0.9579,-0.9579,-0.9579,-0.9579,-0.9579,-0.9579,-0.9579,-0.9579,-0.9579,-0.9579,-0.9579,-0.9579,-0.9579,-0.9579,-0.9579,-0.9579,-0.9579,-0.9579,-0.9579,-0.9579,-0.9579,-0.9579,-0.9579,-0.9579,-0.9579,-0.9579,-0.9579,-0.9579,-0.969,-0.9747,0.0,0.0,0.0,0.0,0.0,0.0,0.0,-2.8216,-2.8856,-2.9235,-2.9967,-3.0594,-3.0947,-3.0986,-3.1222,-3.1745,-3.0866,0.0,0.0,0.0,0.0,0.0,0.0,0.0,-2.5454,-2.4999,-2.4743,-2.4743,-2.4583,-2.4497,-2.4497,-2.4497,-2.4312,-2.3919,-2.3919,-2.3536,0.0,0.0,0.0,0.0,0.0,0.0,-2.3091,0.0,0.0,0.0,0.0,0.0,0.0,0.0,0.0,0.0,0.0,0.0,0.0,0.0,-1.6668,-1.6595,-1.7399,-1.7721,-1.7845,-1.7969,-1.7508,-1.7113,0.0,0.0,-1.6357,-1.6872,-1.669,-1.6454,-1.6454,-1.6211,-1.6028,-1.6028,-1.6028,-1.5886,0.0,0.0,0.0,-1.2128,0.0,0.0,0.0,-0.9587,-0.9579,-0.9579,-0.9579,-0.9579,-0.9579,-0.9579,-0.9579,-0.9579,-0.9579,-0.9579,-0.9579,-0.9579,-0.9579,-0.9579,-0.9579,-0.9579,-0.9579,-0.9579,-0.9579,-0.9579,-0.9579,-0.9579,0.0,-0.9579,-0.9579,-0.9579,-0.9579,-0.9579,-0.9571,-0.9551,-0.9567,-0.9616,0.0,0.0,0.0,0.0,0.0,0.0,0.0,-2.8516,-2.931,-2.931,-3.0281,-3.0986,-3.0986,-3.0986,-3.1235,-3.181,0.0,0.0,0.0,0.0,0.0,0.0,0.0,0.0,-2.601,-2.5496,-2.5242,-2.52,-2.4743,-2.454,-2.4497,-2.4497,-2.4322,-2.3929,-2.3929,-2.3567,0.0,0.0,0.0,0.0,-2.3091,-2.3091,0.0,0.0,0.0,0.0,0.0,0.0,0.0,0.0,0.0,0.0,0.0,0.0,0.0,0.0,0.0,0.0,0.0,-1.7454,-1.7816,-1.8094,-1.768,-1.7323,-1.76,0.0,0.0,-1.6868,-1.6555,-1.6177,-1.6177,-1.5981,-1.5784,-1.5784,-1.5784,-1.5445,0.0,-1.4148,0.0,0.0,-1.0095,0.0,-0.942,-0.9518,-0.9579,-0.9579,-0.9579,-0.9579,-0.9579,-0.9579,-0.9579,-0.9579,-0.9579,-0.9579,-0.9579,-0.9579,-0.9579,-0.9579,-0.9579,-0.9579,-0.9579,-0.9579,-0.9579,0.0,-0.9579,-0.9579,-0.9579,-0.9579,-0.9579,-0.9579,-0.9579,-0.9579,-0.9608,-0.9437,-0.9482,-0.9604,0.0,0.0,0.0,0.0,0.0,0.0,0.0,0.0,0.0,0.0,-3.0281,-3.0986,-3.0986,-3.0986,-3.1392,0.0,0.0,0.0,0.0,0.0,0.0,0.0,0.0,0.0,-2.711,-2.6207,-2.5549,-2.52,-2.5073,-2.4871,-2.4497,-2.4497,-2.4445,-2.4342,-2.4342,-2.4067,0.0,0.0,0.0,0.0,-2.3091,-2.3091,0.0,0.0,0.0,0.0,-2.2862,-2.2148,0.0,0.0,0.0,0.0,0.0,0.0,0.0,0.0,-1.6541,-1.61,-1.6251,0.0,-1.7086,-1.691,-1.6764,-1.6656,0.0,0.0,0.0,0.0,0.0,0.0,0.0,-1.5832,-1.5784,-1.5784,-1.5784,-1.5445,-1.4442,0.0,0.0,-0.9944,-0.9661,-0.9555,-0.942,-0.9518,-0.9579,-0.9579,-0.9579,-0.9579,-0.9579,-0.9579,-0.9579,-0.9579,-0.9579,-0.9579,-0.9579,-0.9579,-0.9579,-0.9579,-0.9579,-0.9579,-0.9579,-0.9579,-0.9579,-0.9579,-0.9579,-0.9579,-0.9579,-0.9579,-0.9579,-0.9579,-0.9579,-0.9579,-0.9575,-0.9579,-0.9592,-0.9604,0.0,0.0,0.0,0.0,0.0,0.0,0.0,0.0,0.0,0.0,0.0,-3.0986,-3.0986,-3.0986,0.0,0.0,0.0,0.0,0.0,0.0,0.0,0.0,0.0,-2.7568,-2.704,-2.629,-2.5675,-2.52,-2.4988,-2.4743,-2.4497,-2.4497,-2.4497,-2.4497,-2.4497,-2.4325,0.0,0.0,0.0,0.0,-2.3144,0.0,0.0,0.0,0.0,0.0,-2.2877,-2.1954,0.0,-1.9765,-1.8791,-1.7774,0.0,0.0,0.0,0.0,-1.6201,-1.585,-1.585,-1.6211,-1.6541,-1.6323,-1.6433,-1.6487,-1.6317,0.0,0.0,0.0,0.0,0.0,0.0,0.0,-1.5255,-1.573,-1.5003,0.0,0.0,0.0,-1.0132,-0.946,-0.9441,-0.9498,0.0,-0.9567,-0.9579,-0.9579,-0.9579,-0.9579,-0.9579,-0.9579,-0.9579,-0.9579,-0.9579,-0.9579,-0.9579,-0.9579,-0.9579,-0.9579,-0.9579,-0.9579,-0.9579,-0.9579,-0.9579,-0.9579,-0.9579,-0.9579,-0.9579,-0.9579,-0.9579,-0.9571,-0.9535,-0.9502,-0.9482,-0.9319,-0.9311,-0.936,0.0,0.0,0.0,0.0,0.0,0.0,0.0,0.0,0.0,0.0,0.0,0.0,0.0,0.0,0.0,0.0,0.0,0.0,0.0,0.0,0.0,0.0,-2.8931,-2.7713,-2.6558,-2.6135,-2.5675,-2.52,-2.4786,-2.4583,-2.4497,-2.4497,-2.4497,-2.4497,-2.4497,-2.4368,0.0,0.0,0.0,0.0,-2.3188,0.0,0.0,0.0,0.0,0.0,0.0,0.0,0.0,-1.9135,-1.8069,-1.6944,-1.6441,0.0,0.0,0.0,0.0,0.0,-1.5543,-1.5815,-1.606,-1.5955,-1.6206,-1.6444,-1.6353,0.0,0.0,0.0,0.0,0.0,0.0,-1.5112,0.0,0.0,0.0,0.0,-1.113,-1.0084,-0.9433,-0.9408,-0.9429,0.0,-0.9571,-0.9612,-0.9579,-0.9579,-0.9579,-0.9579,-0.9579,-0.9579,-0.9579,-0.9579,-0.9579,-0.9579,-0.9579,-0.9579,-0.9579,-0.9579,-0.9579,-0.9579,-0.9579,-0.9579,-0.9612,-0.9587,-0.9587,0.0,-0.9587,-0.9587,-0.9587,-0.9571,-0.9465,-0.9384,-0.9326,-0.8974,-0.8962,-0.9072,0.0,0.0,0.0,0.0,0.0,0.0,0.0,0.0,0.0,0.0,0.0,0.0,0.0,0.0,0.0,0.0,0.0,0.0,0.0,0.0,0.0,-3.0938,-2.929,-2.7867,-2.6782,-2.6207,-2.5675,-2.52,-2.5115,-2.4914,-2.4497,-2.4497,-2.4497,-2.4497,-2.4497,-2.4368,-2.4163,-2.3927,0.0,-2.3503,-2.3188,0.0,0.0,0.0,0.0,0.0,0.0,0.0,0.0,-1.8578,-1.7858,-1.7414,-1.611,0.0,0.0,0.0,0.0,0.0,-1.4957,-1.5259,-1.5506,-1.5388,-1.5649,-1.5803,-1.5294,0.0,0.0,0.0,0.0,0.0,0.0,-1.5683,-1.535,0.0,0.0,-1.1418,0.0,0.0,-0.9531,-0.942,0.0,-0.9535,-0.9457,-0.9539,-0.9579,-0.9579,-0.9579,-0.9579,-0.9579,-0.9579,-0.9579,-0.9579,-0.9579,-0.9579,-0.9579,-0.9579,-0.9579,-0.9579,-0.9579,-0.9579,-0.9579,-0.9579,-0.9543,-0.9445,0.0,-0.9445,-0.9445,-0.9445,-0.9445,-0.9441,-0.9412,-0.931,-0.9129,-0.9076,-0.9076,-0.9072,0.0,0.0,0.0,0.0,0.0,0.0,0.0,0.0,0.0,0.0,0.0,0.0,0.0,0.0,0.0,0.0,0.0,0.0,0.0,0.0,-3.0888,-2.9884,-2.9074,-2.8011,-2.667,-2.5904,-2.5295,-2.4828,-2.4828,-2.4836,-2.4869,-2.4869,-2.4735,-2.4497,-2.4497,-2.4454,-2.4335,-2.397,-2.3754,-2.3624,0.0,0.0,0.0,0.0,0.0,0.0,0.0,0.0,0.0,0.0,-1.6928,-1.6477,-1.5618,0.0,0.0,0.0,0.0,0.0,-1.4426,-1.469,-1.4941,-1.5048,-1.5669,-1.6231,0.0,0.0,0.0,0.0,0.0,0.0,0.0,0.0,-1.3647,-1.2166,0.0,-1.1092,-1.0486,-0.9882,-0.9449,0.0,0.0,-0.9486,-0.9502,-0.9575,-0.9579,-0.9579,-0.9579,-0.9579,-0.9579,-0.9579,-0.9579,-0.9579,-0.9579,-0.9579,-0.9579,-0.9579,-0.9579,-0.9579,-0.9579,-0.9579,-0.9575,-0.9527,-0.9433,-0.94,0.0,-0.9318,-0.9396,-0.9302,-0.9332,-0.9474,-0.9181,-0.908,-0.9076,-0.8881,-0.8812,-0.88,0.0,0.0,0.0,0.0,0.0,0.0,0.0,0.0,0.0,0.0,0.0,0.0,0.0,0.0,0.0,0.0,0.0,0.0,0.0,-3.0969,-3.0503,-2.946,-2.8965,-2.7983,-2.6351,-2.5684,-2.5073,-2.4497,-2.4611,-2.4848,-2.5189,-2.5075,-2.4838,-2.4497,-2.4497,-2.4497,-2.4454,-2.4013,-2.3797,-2.3754,0.0,0.0,0.0,0.0,0.0,0.0,0.0,0.0,0.0,0.0,0.0,0.0,0.0,0.0,0.0,-1.4424,-1.4201,-1.4102,-1.4168,-1.4402,-1.4696,-1.499,0.0,0.0,0.0,0.0,0.0,0.0,0.0,0.0,0.0,-1.3507,0.0,-1.0488,-1.0619,-1.0689,-0.9797,-0.9531,-0.9465,-0.9465,-0.9465,-0.9474,-0.9567,-0.9579,-0.9579,-0.9579,-0.9579,-0.9579,-0.9579,-0.9579,-0.9579,-0.9579,-0.9579,-0.9608,-0.9563,-0.9563,-0.9563,-0.9563,-0.9563,-0.9563,-0.9559,-0.9376,-0.9343,-0.9331,-0.9108,-0.9108,-0.9265,-0.9088,-0.9194,-0.9348,-0.8982,-0.8881,-0.8942,-0.871,-0.8612,-0.8612,0.0,0.0,0.0,0.0,0.0,0.0,0.0,0.0,0.0,0.0,0.0,0.0,0.0,0.0,0.0,0.0,0.0,0.0,0.0,-3.0352,-3.0491,-3.1182,-2.9475,-2.7678,-2.5902,-2.5788,-2.5337,-2.4497,-2.4931,-2.5158,-2.5179,-2.4745,-2.4528,-2.4497,-2.4497,-2.4497,-2.4454,-2.4013,-2.3797,-2.3754,-2.3266,0.0,0.0,0.0,0.0,0.0,0.0,0.0,0.0,0.0,0.0,0.0,0.0,0.0,-1.4383,-1.4173,-1.413,-1.4142,-1.4416,-1.4703,-1.5048,-1.5291,-1.5017,0.0,-1.5658,-1.5478,0.0,-1.6161,0.0,0.0,0.0,-1.3838,-1.2056,-1.1258,-1.0323,-0.9747,-0.9843,0.0,-0.9608,-0.9608,-0.9608,-0.9612,-0.9575,-0.9579,-0.9579,-0.9579,-0.9579,-0.9579,-0.9579,-0.9579,-0.9579,-0.9579,-0.9579,-0.9547,-0.9424,-0.942,-0.942,-0.942,-0.942,-0.942,-0.9416,-0.9198,-0.9116,-0.9104,-0.8922,-0.8848,-0.8861,-0.8844,-0.8852,-0.8877,-0.8836,-0.8731,-0.8649,-0.862,-0.8612,-0.8612,0.0,0.0,0.0,0.0,0.0,0.0,0.0,0.0,0.0,0.0,0.0,0.0,0.0,0.0,0.0,0.0,0.0,0.0,0.0,-2.9982,-3.0045,-3.0382,-2.9169,-2.7931,-2.6648,-2.6069,-2.5669,-2.5378,-2.5834,-2.5627,-2.4766,-2.5192,-2.5078,-2.4497,-2.4497,-2.4497,-2.4454,-2.4013,-2.3797,-2.3754,-2.3266,-2.3091,0.0,0.0,0.0,0.0,0.0,0.0,0.0,0.0,-1.5141,-1.4824,-1.4566,-1.4363,-1.4201,-1.413,-1.4088,-1.4115,-1.4222,-1.4603,-1.5035,-1.5149,-1.5097,0.0,0.0,-1.6206,-1.6139,-1.6473,-1.5682,0.0,0.0,0.0,-1.0699,-1.0265,-0.9962,-0.9811,-0.9876,-0.9738,-0.9579,-0.9579,-0.9579,-0.9579,-0.9579,-0.9579,-0.9579,-0.9579,-0.9579,-0.9579,-0.9579,-0.9579,-0.9579,-0.9579,-0.9579,-0.9539,-0.9404,-0.9404,-0.929,-0.9023,-0.9137,-0.9194,-0.919,-0.9007,-0.8926,-0.8917,-0.8739,-0.8723,-0.8812,-0.8706,-0.8796,-0.8978,-0.8865,-0.8718,-0.8612,-0.8612,-0.8612,-0.8612,0.0,0.0,0.0,0.0,0.0,0.0,0.0,0.0,0.0,0.0,0.0,0.0,0.0,0.0,0.0,0.0,0.0,0.0,-2.9417,-2.9378,-2.9452,-2.9626,-2.8638,-2.7923,-2.761,-2.6432,-2.569,-2.5461,-2.5771,-2.5595,-2.4964,-2.5306,-2.513,-2.4497,-2.4497,-2.4497,-2.4454,-2.411,-2.3884,-2.3754,-2.3363,-2.3188,0.0,0.0,0.0,0.0,0.0,0.0,0.0,0.0,-1.4993,-1.465,-1.4482,-1.4237,-1.4088,-1.4088,-1.4155,-1.4222,-1.4222,-1.4516,-1.4888,-1.4988,0.0,0.0,-1.5836,-1.5998,-1.6108,-1.6239,-1.5413,0.0,-1.1166,0.0,0.0,0.0,-0.9689,-0.9803,-0.9803,-0.9701,-0.9579,-0.9579,-0.9579,-0.9579,-0.9579,-0.9575,-0.9543,-0.9543,-0.949,-0.9482,-0.9539,-0.949,-0.9486,-0.9539,-0.9486,-0.9372,-0.9237,-0.9233,-0.9035,-0.8743,-0.8869,-0.8958,-0.9003,-0.8824,-0.8771,-0.8812,-0.8641,-0.8633,-0.8731,-0.8617,-0.8755,-0.8917,-0.8787,-0.867,-0.8612,-0.8612,-0.8612,-0.8612,0.0,0.0,0.0,0.0,0.0,0.0,0.0,0.0,0.0,0.0,0.0,0.0,0.0,0.0,0.0,0.0,0.0,0.0,-2.8581,-2.8502,-2.8743,-2.9261,-2.7865,-2.7568,-2.8663,-2.6777,-2.5379,-2.4497,-2.4507,-2.4962,-2.5889,-2.4921,-2.4507,-2.4497,-2.4507,-2.4507,-2.4497,-2.4282,-2.4024,-2.3797,-2.359,-2.3319,-2.2955,0.0,0.0,0.0,0.0,0.0,0.0,0.0,-1.522,-1.465,-1.4482,-1.4237,-1.4088,-1.4088,-1.4289,-1.4516,-1.4516,-1.4479,-1.4596,-1.4928,0.0,0.0,-1.4354,-1.4443,-1.4724,-1.5245,-1.4078,-1.2278,-1.0003,-1.0193,0.0,-0.9544,-0.9506,-0.9579,-0.9579,-0.9579,-0.9579,-0.9579,-0.9579,-0.9579,-0.9575,-0.9462,-0.9404,-0.94,-0.9194,-0.9173,-0.9392,-0.919,-0.9177,-0.9396,-0.9185,-0.9007,-0.8824,-0.882,-0.8735,-0.8612,-0.8608,-0.8653,-0.8812,-0.8641,-0.8658,-0.8808,-0.8641,-0.8612,-0.8612,-0.8612,-0.8612,-0.8612,-0.8612,-0.8612,-0.8612,-0.8612,-0.8612,-0.8612,0.0,0.0,0.0,0.0,0.0,0.0,0.0,0.0,0.0,0.0,0.0,0.0,0.0,0.0,0.0,0.0,0.0,0.0,-2.9417,-2.9417,-2.9204,-2.8771,-2.7679,-2.6948,-2.6668,-2.5487,-2.4786,-2.4497,-2.5171,-2.5295,-2.49,-2.5316,-2.514,-2.4507,-2.4838,-2.4807,-2.4454,-2.4057,-2.3884,-2.3754,-2.3363,-2.3178,-2.2882,0.0,0.0,0.0,0.0,0.0,0.0,0.0,0.0,0.0,-1.4286,-1.4166,-1.4088,-1.4088,-1.4148,-1.4215,-1.4215,-1.4669,0.0,-1.4736,0.0,0.0,0.0,-1.416,0.0,0.0,-1.2389,-1.143,-0.9904,-0.9776,0.0,-0.9473,-0.9506,-0.9579,-0.9579,-0.9579,-0.9579,-0.9579,-0.9579,-0.9575,-0.9449,-0.9433,-0.9351,-0.9181,-0.9125,-0.912,-0.9169,-0.9125,-0.912,-0.9173,-0.9125,-0.9007,-0.8824,-0.882,-0.8735,-0.8608,-0.8477,-0.8467,-0.8641,-0.8637,-0.8641,-0.8637,-0.8633,-0.8612,-0.8612,-0.8612,-0.8612,-0.8612,-0.8612,-0.8612,-0.8612,-0.8612,-0.8612,-0.8612,0.0,0.0,0.0,0.0,0.0,0.0,0.0,0.0,0.0,0.0,-2.9792,-2.9792,0.0,0.0,0.0,0.0,0.0,0.0,-2.9312,-2.9287,-2.8882,-2.7971,-2.7058,-2.6163,-2.5295,-2.4964,-2.4683,-2.4497,-2.5088,-2.5161,-2.4786,-2.5181,-2.5057,-2.4507,-2.4786,-2.4755,-2.4497,-2.4186,-2.3869,-2.3556,-2.3424,-2.3168,-2.2616,0.0,0.0,0.0,0.0,0.0,0.0,0.0,0.0,0.0,-1.4208,-1.4088,-1.4108,-1.4222,-1.4262,-1.4309,-1.4543,-1.4628,0.0,-1.443,-1.4072,-1.3582,-1.2936,0.0,0.0,0.0,-1.0975,-1.0578,-0.9756,-0.9567,0.0,-0.9331,-0.9401,-0.9494,-0.9425,-0.9474,-0.9494,-0.9425,-0.9417,-0.9372,-0.931,-0.9185,-0.91,-0.8995,-0.8926,-0.8917,-0.8986,-0.8922,-0.8917,-0.8986,-0.8922,-0.8832,-0.8723,-0.8718,-0.867,-0.8608,-0.8498,-0.8502,-0.8608,-0.8535,-0.8539,-0.8612,-0.8612,-0.8612,-0.8612,-0.8612,-0.8612,-0.8612,-0.8612,-0.8612,-0.8612,-0.8612,-0.8612,-0.8612,0.0,0.0,-3.0283,-3.0882,0.0,0.0,0.0,0.0,0.0,0.0,-2.9792,-2.9792,0.0,0.0,0.0,-2.9829,-3.0256,-2.999,-2.8697,-2.8633,-2.8171,-2.7151,-2.6238,-2.537,-2.4559,-2.4972,-2.4962,-2.4497,-2.4497,-2.4714,-2.5117,-2.4735,-2.4538,-2.4497,-2.4497,-2.4476,-2.4435,-2.4394,-2.3881,-2.3167,-2.3516,-2.3189,-2.2229,-2.0383,0.0,0.0,0.0,0.0,0.0,0.0,0.0,0.0,-1.4257,-1.4088,-1.4135,-1.4402,-1.4496,-1.4592,-1.5073,-1.4318,-1.3543,-1.3993,-1.3132,0.0,-1.1176,-1.1128,-1.1015,-1.0281,0.0,-0.9807,-0.9636,-0.9453,-0.9326,-0.9125,-0.9277,-0.9326,-0.912,-0.9282,-0.9314,-0.9092,-0.9072,-0.9064,-0.9051,-0.8897,-0.8796,-0.8796,-0.8653,-0.8633,-0.8787,-0.8653,-0.8637,-0.8792,-0.8649,-0.8612,-0.8612,-0.8612,-0.8612,-0.8612,-0.8596,-0.8596,-0.8604,-0.8394,-0.8406,-0.8612,-0.8612,-0.8612,-0.8612,-0.8612,-0.8612,-0.8612,-0.8612,-0.8612,-0.8612,-0.8612,-0.8612,-0.8612,0.0,0.0,-3.0246,-3.067,0.0,0.0,0.0,0.0,0.0,0.0,0.0,0.0,0.0,0.0,0.0,-2.9804,-2.9905,-2.9839,-2.9546,-2.9534,-2.8791,-2.7191,-2.5957,-2.5253,-2.5034,-2.5137,-2.4962,-2.4497,-2.4497,-2.4549,-2.4652,-2.4921,-2.4848,-2.4497,-2.4497,-2.4301,-2.4002,-2.3412,-2.296,-2.2633,-2.2567,-2.235,-2.1806,-1.9671,-1.9067,0.0,0.0,0.0,0.0,0.0,0.0,0.0,-1.4325,-1.4088,-1.4095,-1.4162,-1.4342,-1.4368,-1.3679,-1.361,0.0,0.0,-1.2076,-1.1118,-0.9908,-0.9652,-0.9693,-0.9734,-0.9709,-0.9628,-0.9445,-0.9271,-0.9141,-0.9104,-0.9129,-0.9141,-0.91,-0.9129,-0.9084,-0.8901,-0.8881,-0.8828,-0.8739,-0.869,-0.8621,-0.8621,-0.8633,-0.8629,-0.8621,-0.8629,-0.8629,-0.8621,-0.8629,-0.8612,-0.8612,-0.8612,-0.8612,-0.8608,-0.8422,-0.8426,-0.8608,-0.8571,-0.8571,-0.8612,-0.8612,-0.8612,-0.8612,-0.8612,-0.8612,-0.8612,-0.8612,-0.8612,-0.8612,-0.8612,-0.8612,-0.8612,0.0,0.0,0.0,0.0,0.0,0.0,0.0,0.0,0.0,0.0,0.0,0.0,0.0,-3.003,0.0,0.0,-3.003,-2.9911,-2.9221,-2.917,-2.8383,-2.6577,-2.5647,-2.5086,-2.4859,-2.5075,-2.4962,-2.4497,-2.4497,-2.4497,-2.4507,-2.4745,-2.4724,-2.4487,-2.4322,-2.4095,-2.3846,-2.3258,-2.2686,-2.2231,-2.232,-2.2035,-2.1358,-1.9549,-1.8939,-1.8853,-1.7056,0.0,0.0,0.0,0.0,0.0,0.0,0.0,-1.4115,-1.4255,-1.4302,-1.418,-1.3542,0.0,0.0,-1.1302,0.0,-1.0207,-0.9381,-0.9187,-0.9183,-0.9229,-0.9162,-0.9106,-0.9068,-0.8804,-0.8666,-0.8811,-0.8822,-0.88,-0.8857,-0.8844,-0.8775,-0.8589,-0.8487,-0.8434,-0.8434,-0.8434,-0.8514,-0.8604,-0.8612,-0.8612,-0.8612,-0.8526,-0.8434,-0.8434,-0.8349,-0.8345,-0.8477,-0.8434,-0.8522,-0.8608,-0.8514,-0.8518,-0.8612,-0.8612,-0.8612,-0.8612,-0.8612,-0.8612,-0.8612,-0.8612,-0.8612,-0.8612,-0.8612,-0.8612,-0.8612,-0.8612,-0.8612,-0.8624,0.0,0.0,0.0,0.0,0.0,0.0,0.0,0.0,0.0,0.0,0.0,0.0,0.0,-3.0206,-3.0281,0.0,0.0,0.0,-2.8578,-2.8211,-2.7389,-2.5981,-2.5484,-2.5003,-2.4621,-2.4993,-2.4962,-2.4497,-2.4497,-2.4497,-2.4497,-2.4497,-2.4497,-2.4476,-2.3991,-2.3764,-2.3722,-2.3133,-2.245,-2.1799,-2.211,-2.1759,-2.0952,-1.9647,-1.9049,-1.8718,-1.7124,-1.6256,-1.5827,-1.5425,0.0,0.0,0.0,0.0,-1.4135,-1.4376,-1.418,-1.3836,-1.351,0.0,-1.1175,-0.9934,-0.9579,0.0,-0.9183,-0.9133,-0.9034,-0.873,-0.8582,-0.8552,-0.864,-0.8322,-0.8151,-0.85,-0.8463,-0.8506,-0.8589,-0.8584,-0.8494,-0.8264,-0.8081,-0.804,-0.8223,-0.8243,-0.8333,-0.8596,-0.858,-0.8563,-0.8563,-0.8345,-0.8243,-0.8243,-0.8126,-0.8117,-0.8239,-0.8304,-0.8398,-0.8563,-0.8596,-0.8612,-0.8612,-0.8612,-0.8612,-0.8612,-0.8612,-0.8612,-0.8612,-0.8612,-0.8612,-0.8612,-0.8612,-0.8612,-0.8612,-0.8612,-0.8629,-0.8625,0.0,0.0,0.0,0.0,0.0,0.0,0.0,0.0,0.0,0.0,-2.9792,-2.9792,-2.9792,-2.9854,-2.988,-2.9804,-2.9867,-2.9491,-2.8554,0.0,0.0,-2.6399,-2.5609,-2.5158,-2.5096,-2.5158,-2.4962,-2.4497,-2.4497,-2.4497,-2.4497,-2.4497,-2.4497,-2.4456,-2.366,-2.3277,-2.3215,-2.216,-2.1539,-2.1267,-2.1172,-2.0957,-2.0586,-1.9638,-1.8798,-1.8063,-1.7351,-1.6563,-1.587,-1.5605,-1.5354,0.0,0.0,0.0,-1.4095,-1.4135,-1.3724,-1.3023,-1.2137,0.0,-0.9704,0.0,-0.9579,-0.9476,0.0,0.0,-0.8726,0.0,-0.8249,-0.8367,-0.834,-0.8136,-0.8011,-0.8204,-0.8264,-0.8316,-0.8568,-0.843,-0.826,-0.8073,-0.7898,-0.7902,-0.8032,-0.8048,-0.8195,-0.8588,-0.8418,-0.8325,-0.8325,-0.815,-0.8048,-0.8048,-0.8182,-0.8187,-0.8052,-0.8369,-0.8506,-0.8329,-0.8535,-0.8612,-0.8612,-0.8612,-0.8612,-0.8612,-0.8612,-0.8612,-0.8612,-0.8612,-0.8612,-0.8612,-0.8612,-0.8612,-0.8612,-0.8612,-0.8662,-0.8771,0.0,0.0,0.0,0.0,0.0,0.0,0.0,0.0,0.0,0.0,0.0,-2.9792,-2.9792,-2.9792,-2.9792,-2.9792,-2.9792,-2.9209,-2.781,-2.6038,-2.5158,-2.5359,-2.5003,-2.4763,-2.4633,-2.4763,-2.466,-2.4325,-2.4325,-2.4325,-2.4325,-2.4196,-2.4196,-2.4294,-2.3257,-2.2808,-2.2757,-2.1734,-2.1205,-2.1022,-2.0945,-2.0928,-2.075,-1.9176,-1.8449,-1.8141,-1.6711,-1.5965,-1.56,-1.5389,-1.512,-1.4873,-1.4523,0.0,0.0,0.0,-1.3871,-1.338,-1.2115,-1.0594,-0.9445,0.0,-0.9579,-0.9476,-0.8924,-0.8825,-0.8627,-0.8088,-0.8011,-0.8021,-0.8077,-0.783,-0.7737,-0.8128,-0.8113,-0.816,-0.8568,-0.8406,-0.8223,-0.8032,-0.7947,-0.7931,-0.8008,-0.8105,-0.828,-0.8592,-0.8394,-0.8292,-0.8292,-0.8024,-0.787,-0.787,-0.7849,-0.7849,-0.787,-0.8073,-0.8216,-0.8292,-0.8373,-0.851,-0.8612,-0.8612,-0.8612,-0.8612,-0.8612,-0.8612,-0.8612,-0.8612,-0.8612,-0.8612,-0.8612,-0.8612,-0.862,-0.8674,-0.8755,-0.8824,0.0,0.0,0.0,0.0,0.0,0.0,0.0,0.0,0.0,0.0,0.0,-2.9624,-2.917,0.0,0.0,0.0,-2.9008,-2.8249,-2.653,-2.5219,-2.4445,-2.4332,-2.4392,-2.4325,-2.4206,-2.4282,-2.4239,-2.411,-2.411,-2.411,-2.411,-2.3851,-2.379,-2.3831,-2.2916,-2.2422,-2.2312,-2.1459,-2.1022,-2.0916,-2.0947,-2.1066,-2.105,-1.9556,-1.8871,-1.8523,-1.681,-1.5917,0.0,0.0,-1.4999,-1.4741,-1.4566,-1.4321,0.0,0.0,0.0,-1.3065,0.0,0.0,-0.9271,-0.9502,-0.9559,-0.942,0.0,0.0,-0.8627,0.0,-0.7897,-0.7873,-0.7865,-0.7634,-0.7559,-0.8019,-0.7967,-0.8032,-0.8432,-0.8363,-0.8239,-0.8101,-0.804,-0.8032,-0.8081,-0.8211,-0.8365,-0.8596,-0.8394,-0.8268,-0.8223,-0.7967,-0.778,-0.7731,-0.7641,-0.7637,-0.7731,-0.7775,-0.7955,-0.8219,-0.8268,-0.8361,-0.8543,-0.8592,-0.8612,-0.8612,-0.8612,-0.8612,-0.8612,-0.8612,-0.8612,-0.8612,-0.8612,-0.8612,-0.8624,-0.871,-0.8783,-0.8832,0.0,0.0,0.0,0.0,0.0,0.0,0.0,0.0,0.0,0.0,0.0,-2.9131,-2.7435,-2.8051,-2.8211,-2.7313,-2.6886,-2.6086,-2.4735,-2.4534,-2.4311,-2.3929,-2.411,0.0,-2.4206,-2.398,-2.3841,-2.3841,-2.3841,-2.3841,-2.3841,-2.3634,-2.3328,-2.2964,-2.2651,-2.2291,-2.1879,-2.1212,-2.0906,-2.0907,-2.1115,-2.1171,-2.1239,-2.1588,-2.0615,-1.9033,-1.8573,0.0,0.0,0.0,0.0,0.0,0.0,0.0,-1.4363,0.0,0.0,0.0,0.0,-0.8886,0.0,-0.9331,-0.9416,0.0,0.0,0.0,-0.8627,-0.8088,-0.7982,-0.7931,-0.7828,-0.7567,-0.7458,-0.7675,-0.7819,-0.7984,-0.8201,-0.8272,-0.8284,-0.8276,-0.8117,-0.8081,-0.826,-0.8284,-0.8365,-0.8596,-0.8394,-0.8215,-0.8036,-0.7898,-0.7718,-0.7539,-0.7698,-0.7706,-0.75,-0.771,-0.789,-0.8028,-0.8207,-0.8296,-0.8312,-0.8531,-0.8612,-0.8612,-0.8612,-0.8612,-0.8612,-0.8612,-0.8612,-0.8612,-0.8612,-0.8612,-0.8612,-0.862,-0.8682,-0.88,0.0,0.0,0.0,0.0,0.0,0.0,0.0,0.0,0.0,0.0,0.0,0.0,0.0,-2.7395,-2.7476,-2.7151,-2.6449,-2.5872,-2.5368,-2.4798,-2.4382,-2.4099,-2.4157,-2.4077,-2.3764,-2.3797,-2.3754,-2.3634,-2.3634,-2.3494,-2.3225,-2.2959,-2.25,-2.1822,-2.2022,-2.1885,-2.1411,-2.0928,-2.0693,-2.0702,0.0,0.0,0.0,0.0,0.0,0.0,0.0,0.0,0.0,0.0,0.0,0.0,0.0,0.0,0.0,0.0,0.0,0.0,0.0,0.0,0.0,-0.9129,-0.9322,-0.9276,-0.8807,-0.8754,-0.8627,-0.8088,-0.7988,-0.7971,-0.7917,-0.779,-0.7684,-0.7717,-0.7869,-0.8065,-0.8172,-0.8372,-0.8426,-0.8304,-0.8337,-0.8349,-0.8296,-0.8398,-0.8539,-0.8608,-0.8394,-0.826,-0.8195,-0.7959,-0.7771,-0.7702,-0.7649,-0.7588,-0.7484,-0.7588,-0.771,-0.7894,-0.8028,-0.8174,-0.8296,-0.8526,-0.8612,-0.8612,-0.8612,-0.8612,-0.8612,-0.8612,-0.8612,-0.8612,-0.8612,-0.8612,-0.8624,-0.869,-0.8767,-0.8812,0.0,0.0,0.0,0.0,0.0,-2.9606,-2.8221,-2.7483,-2.6976,-2.6689,0.0,0.0,0.0,0.0,-2.6509,-2.6065,-2.5628,-2.5251,-2.4929,-2.465,-2.4349,-2.3982,-2.4029,-2.3894,-2.3503,-2.3537,-2.3493,-2.3373,-2.3225,-2.3008,-2.2774,-2.2457,-2.1924,-2.121,-2.1543,-2.1426,0.0,0.0,0.0,-2.0615,0.0,0.0,-2.1131,0.0,0.0,0.0,0.0,0.0,0.0,0.0,0.0,0.0,0.0,0.0,0.0,0.0,0.0,0.0,-1.0289,0.0,0.0,0.0,-0.9137,-0.9127,-0.8877,-0.8856,-0.8762,-0.8372,-0.8283,-0.8237,-0.8137,-0.8052,-0.7949,-0.774,-0.7943,-0.811,-0.8172,-0.8424,-0.8567,-0.8398,-0.8535,-0.8563,-0.8394,-0.8539,-0.8612,-0.8612,-0.8494,-0.8357,-0.8296,-0.8106,-0.7922,-0.7804,-0.7682,-0.7584,-0.7484,-0.7484,-0.7584,-0.771,-0.7902,-0.8077,-0.8207,-0.8498,-0.8612,-0.8612,-0.8612,-0.8612,-0.8612,-0.8612,-0.8612,-0.8612,-0.8612,-0.8612,-0.8624,-0.8694,-0.8771,-0.882,0.0,-3.3111,-3.2635,-3.1143,-3.0429,-2.9564,-2.8138,-2.7401,-2.6741,-2.5861,0.0,0.0,0.0,0.0,0.0,-2.4013,-2.4249,-2.4125,-2.3277,-2.4011,-2.4173,-2.3521,0.0,0.0,-2.3503,-2.3232,-2.3091,-2.3091,-2.2715,-2.251,-2.248,-2.206,-2.1631,-2.1171,-2.1171,-2.0977,-2.0605,0.0,-2.0605,-2.0644,0.0,-2.119,-2.122,0.0,0.0,0.0,-1.9119,-1.7747,0.0,-1.6309,0.0,0.0,0.0,0.0,0.0,0.0,0.0,0.0,0.0,0.0,0.0,0.0,0.0,0.0,-0.9104,-0.9092,-0.8974,-0.8841,-0.8825,-0.8726,-0.8482,-0.8432,-0.8283,-0.789,-0.7998,-0.8117,-0.8113,-0.8378,-0.8624,-0.8624,-0.8624,-0.8624,-0.8624,-0.862,-0.862,-0.862,-0.8612,-0.8531,-0.8308,-0.8292,-0.813,-0.782,-0.7808,-0.7718,-0.7492,-0.7496,-0.7496,-0.7496,-0.7854,-0.802,-0.8032,-0.8402,-0.8612,-0.8612,-0.8612,-0.8612,-0.8612,-0.8612,-0.8612,-0.8612,-0.8612,-0.8612,-0.862,-0.862,-0.8682,-0.8828,-3.2416,-3.2792,-3.2395,-3.0252,-2.9464,-2.8439,-2.6314,-2.5541,-2.5147,0.0,0.0,0.0,-2.454,-2.4743,-2.4734,-2.4364,-2.4296,-2.418,-2.3934,-2.3968,-2.3833,-2.3497,-2.3564,-2.346,-2.3232,-2.3144,-2.3091,-2.3091,-2.2715,-2.2353,-2.2051,-2.1621,-2.1172,-2.0752,-2.0752,-2.0684,-2.0605,-2.0605,0.0,-2.0644,-2.1055,-2.1045,0.0,0.0,0.0,0.0,0.0,-1.8288,-1.7187,0.0,-1.6009,-1.5478,0.0,0.0,0.0,0.0,0.0,0.0,-1.0293,0.0,0.0,0.0,0.0,0.0,-0.884,-0.8917,-0.8974,-0.8841,-0.8825,-0.8775,-0.8726,-0.8676,-0.8662,-0.8519,-0.849,-0.8415,-0.8245,-0.8656,-0.895,-0.895,-0.895,-0.895,-0.895,-0.8828,-0.8751,0.0,-0.8637,-0.8588,-0.8535,-0.8361,-0.8182,-0.7951,-0.7943,-0.7858,-0.7726,-0.7805,-0.7805,-0.7726,-0.8044,-0.8215,-0.8223,-0.8502,-0.8612,-0.8612,-0.8612,-0.8612,-0.8612,-0.8612,-0.8612,-0.8612,-0.8612,-0.8641,-0.8751,-0.8751,-0.8865,-0.9019,-3.1324,-3.1671,-3.1268,-2.9226,-2.8507,-2.7611,-2.5756,-2.491,-2.4569,0.0,0.0,0.0,-2.4368,-2.4368,-2.4325,-2.4239,-2.411,-2.4024,-2.4024,-2.3894,-2.3711,-2.3503,-2.3503,-2.3363,-2.3101,-2.3091,-2.3091,-2.3091,-2.2715,-2.2295,-2.1875,-2.1405,-2.0996,-2.0605,-2.0605,-2.0605,-2.0605,0.0,0.0,0.0,-2.1055,0.0,0.0,-2.1338,-2.1066,0.0,0.0,0.0,-1.7692,-1.7026,-1.6345,0.0,0.0,0.0,0.0,0.0,0.0,0.0,0.0,0.0,0.0,0.0,0.0,0.0,-0.9027,-0.9033,-0.906,-0.9032,-0.9067,-0.9018,-0.892,-0.8871,-0.8845,-0.8814,-0.8849,-0.878,-0.8606,-0.8906,-0.9096,-0.9096,-0.9096,-0.9096,-0.9096,-0.893,-0.882,-0.882,-0.8662,-0.8612,-0.8612,-0.851,-0.8321,-0.8134,-0.813,-0.8044,-0.7866,-0.7963,-0.7963,-0.787,-0.8154,-0.8292,-0.8296,-0.8526,-0.8612,-0.8612,-0.8612,-0.8612,-0.8612,-0.8612,-0.8612,-0.8612,-0.8612,-0.8629,-0.8723,-0.8796,-0.8938,-0.9108,0.0,-3.0123,-2.967,-2.825,-2.7655,-2.7006,-2.5993,-2.5088,-2.4652,0.0,-2.4755,-2.4411,-2.4206,-2.4153,-2.4067,-2.3841,-2.3797,-2.3754,-2.3754,-2.3754,-2.3624,-2.346,-2.346,-2.3319,-2.3101,-2.3091,-2.3091,-2.3091,-2.2676,-2.2246,-2.1875,-2.1387,-2.0947,-2.0605,-2.0605,-2.0605,-2.0605,-2.0605,0.0,-2.0713,-2.1074,-2.119,0.0,0.0,-2.1396,-2.057,-1.987,-1.885,-1.7794,-1.7354,-1.6791,0.0,0.0,0.0,0.0,0.0,-1.3525,0.0,0.0,0.0,0.0,0.0,-1.0123,0.0,-0.9554,-0.9272,-0.9116,-0.9339,-0.9375,-0.9276,-0.904,-0.9008,-0.9014,-0.8849,-0.9057,-0.9182,-0.9022,-0.9112,-0.9157,-0.9157,-0.9157,-0.9157,-0.9157,-0.8991,-0.8881,-0.8881,-0.8723,-0.8661,-0.8641,-0.8641,-0.8511,-0.8325,-0.8321,-0.8231,-0.8044,-0.8065,-0.8065,-0.8044,-0.8231,-0.8321,-0.8325,-0.8535,-0.8612,-0.8612,-0.8612,-0.8612,-0.8612,-0.8612,-0.8612,-0.8612,-0.8612,-0.862,-0.8661,-0.8787,-0.8966,-0.9153,-2.9391,-2.9538,-2.9305,-2.8184,-2.7633,-2.6887,-2.5542,-2.4848,-2.4528,-2.4621,-2.443,-2.4249,-2.4206,-2.4024,-2.3841,-2.3797,-2.3667,-2.3547,-2.3547,-2.3363,-2.3222,-2.3188,-2.3188,-2.3135,-2.3091,-2.3091,-2.3091,-2.3091,-2.2383,-2.1963,-2.1865,-2.1104,-2.0693,-2.0605,-2.0605,-2.0605,-2.0605,0.0,0.0,-2.1073,-2.1161,0.0,-2.1239,-2.1719,-2.1535,-2.0868,-1.993,-1.9015,-1.8055,-1.6952,-1.6046,-1.5389,0.0,0.0,0.0,-1.4356,0.0,0.0,0.0,0.0,0.0,0.0,0.0,0.0,-1.0035,-0.9436,-0.8926,-0.9112,-0.9145,-0.9149,-0.9102,-0.9215,-0.9272,-0.9072,-0.9296,-0.9418,-0.919,-0.9351,-0.9522,-0.9522,-0.9522,-0.9522,-0.9522,-0.9356,-0.9298,-0.9298,-0.9092,-0.893,-0.8779,-0.8771,-0.869,-0.8563,-0.8559,-0.8426,-0.8235,-0.8385,-0.8385,-0.8239,-0.8426,-0.8559,-0.8559,-0.8596,-0.8612,-0.8612,-0.8612,-0.8612,-0.8612,-0.8612,-0.8612,-0.8612,-0.8612,-0.8653,-0.8792,-0.8974,-0.9153,-0.938,-2.7621,-2.7863,-2.7826,-2.7102,-2.6506,-2.5944,-2.5485,-2.4679,-2.4224,-2.4459,-2.4209,-2.398,-2.3851,-2.3721,-2.358,-2.344,-2.3363,-2.3319,-2.3319,-2.3178,-2.3091,-2.3091,-2.3091,-2.3091,-2.3091,-2.3091,-2.3091,-2.3091,-2.251,-2.209,-2.1875,-2.1211,-2.0651,-2.0195,-2.0459,-2.0194,-1.9567,0.0,-1.9729,-1.9712,-2.1003,0.0,-2.1882,-2.2353,-2.2327,-2.1883,-2.0412,-1.9015,-1.7667,-1.6891,-1.6359,0.0,0.0,-1.5319,-1.4944,0.0,-1.4321,-1.411,0.0,0.0,0.0,-1.2229,0.0,0.0,0.0,-1.0154,-0.9546,-0.9747,-0.9343,-0.8986,-0.908,-0.9092,-0.9116,-0.921,-0.9376,-0.9478,-0.9418,-0.9529,-0.9579,-0.9579,-0.9579,-0.9579,-0.9579,-0.9462,-0.9367,-0.9282,-0.9145,-0.9056,-0.8962,-0.8873,-0.8783,-0.8694,-0.8657,-0.8567,-0.8473,-0.8563,-0.8563,-0.8473,-0.8567,-0.8612,-0.8612,-0.8612,-0.8612,-0.8612,-0.8612,-0.8612,-0.8612,-0.8612,-0.8612,-0.8612,-0.8612,-0.867,-0.8844,-0.9031,-0.9206,-0.9429,-2.5801,-2.6022,-2.6094,-2.5677,-2.5265,-2.5029,-2.5223,-2.4516,-2.4018,-2.4344,-2.4018,-2.3667,-2.3503,-2.345,-2.3319,-2.3135,-2.3091,-2.3091,-2.3091,-2.3091,-2.3091,-2.3091,-2.3091,-2.3052,-2.2974,-2.2877,-2.279,-2.2703,-2.215,-2.1692,-2.1349,-2.0852,-2.0202,-1.9494,-1.9912,-1.9451,0.0,0.0,0.0,-1.8263,0.0,-2.1427,-2.182,-2.2371,-2.2539,-2.2255,-2.0522,-1.874,-1.7201,-1.6991,-1.6815,-1.6587,-1.5806,-1.5519,0.0,0.0,0.0,0.0,0.0,0.0,0.0,0.0,0.0,-1.2545,0.0,0.0,0.0,-1.0409,-0.9636,0.0,0.0,0.0,0.0,-0.9208,0.0,0.0,0.0,-0.9534,0.0,-0.9579,-0.9579,-0.9579,-0.9579,-0.9494,-0.9348,-0.921,-0.9198,-0.9185,-0.9149,-0.9003,-0.8909,-0.8877,-0.8743,-0.8698,-0.8661,-0.8661,-0.8645,-0.8612,-0.8612,-0.8612,-0.8612,-0.8612,-0.8612,-0.8612,-0.8612,-0.8612,-0.8612,-0.8612,-0.8612,-0.8616,-0.8649,-0.8698,-0.8844,-0.9068,-0.9282,-0.9429,-2.5199,-2.4987,-2.4735,-2.4684,-2.4922,-2.4902,-2.4102,-2.4243,-2.4313,-2.3918,-2.3664,-2.3547,-2.3503,0.0,0.0,0.0,0.0,0.0,-2.3091,0.0,-2.3091,-2.3091,-2.3091,-2.2916,-2.2598,-2.2092,-2.1697,-2.1311,-2.0109,-1.9461,-1.94,-1.8678,-1.8308,-1.8195,-1.8348,0.0,0.0,0.0,-1.8087,0.0,-1.8683,-1.8888,0.0,-2.0256,-2.0508,-2.0052,-1.9269,-1.8095,-1.6947,0.0,-1.6529,-1.5965,0.0,-1.5234,-1.4741,-1.4489,0.0,0.0,0.0,0.0,0.0,0.0,-1.3307,0.0,0.0,0.0,-1.0937,-1.0139,0.0,0.0,0.0,0.0,0.0,-0.8718,-0.9098,0.0,-0.9177,-0.9429,-0.9579,-0.9579,-0.9579,-0.9579,-0.9579,-0.9608,-0.9587,-0.9567,-0.9518,-0.9498,-0.938,-0.9355,-0.9269,-0.9072,-0.9047,-0.8958,-0.8792,-0.8792,-0.8718,-0.8612,-0.8612,-0.8612,-0.8612,-0.8612,-0.8612,-0.8612,-0.8612,-0.8612,-0.8612,-0.8612,-0.8612,-0.8624,-0.8735,-0.8804,-0.8861,-0.9249,-0.9384,-0.9429,-2.4319,-2.4464,-2.4434,-2.4129,-2.4151,-2.4062,-2.3684,-2.3652,-2.3703,-2.3772,-2.3477,-2.3374,0.0,0.0,0.0,0.0,0.0,-2.3091,0.0,0.0,0.0,0.0,0.0,0.0,-2.1764,-2.1525,-2.0971,-2.0048,-1.9227,-1.8827,-1.8818,-1.8114,-1.7738,-1.7606,-1.7828,0.0,-1.6773,0.0,-1.6875,0.0,0.0,0.0,0.0,-1.906,-1.9507,-1.8953,-1.8502,-1.7741,-1.6911,0.0,-1.6425,0.0,0.0,0.0,0.0,0.0,0.0,0.0,0.0,0.0,0.0,0.0,0.0,0.0,-1.3525,0.0,-1.2012,0.0,0.0,0.0,0.0,0.0,0.0,0.0,-0.8901,0.0,0.0,0.0,-0.9397,-0.9554,0.0,0.0,-0.947,-0.9563,-0.9579,-0.9579,-0.9579,-0.9596,-0.9514,-0.9461,-0.9371,-0.9298,-0.9149,-0.906,-0.8982,-0.8873,-0.8783,-0.8714,-0.8657,-0.8612,-0.8612,-0.8612,-0.8612,-0.8612,-0.8612,-0.8612,-0.8612,-0.8612,-0.8612,-0.8641,-0.8873,-0.8978,-0.9011,-0.931,-0.9469,-0.9527,-2.3537,0.0,0.0,-2.3674,-2.3593,-2.3594,-2.3594,-2.331,-2.3208,-2.3574,-2.3286,0.0,-2.3574,-2.3286,0.0,0.0,-2.3091,-2.3091,0.0,0.0,-2.3091,0.0,0.0,0.0,0.0,-2.069,-1.9887,-1.8862,-1.8153,-1.781,-1.785,-1.7186,-1.6807,-1.6745,-1.7017,-1.6607,-1.5777,0.0,-1.5859,-1.53,-1.599,-1.5908,-1.5599,-1.7742,-1.8279,-1.7878,-1.7677,-1.7318,-1.6864,-1.6584,-1.6309,0.0,-1.5725,0.0,0.0,0.0,0.0,0.0,-1.4124,0.0,0.0,0.0,0.0,0.0,0.0,0.0,0.0,0.0,0.0,0.0,0.0,0.0,-0.9576,-0.9611,0.0,-0.9329,0.0,-0.925,0.0,0.0,0.0,0.0,0.0,-0.9551,-0.9579,-0.9579,-0.9579,-0.9579,-0.9579,-0.9502,-0.9477,-0.9477,-0.9307,-0.9218,-0.9169,-0.9035,-0.8917,-0.882,-0.8694,-0.8657,-0.8612,-0.8612,-0.8612,-0.8612,-0.8612,-0.8612,-0.8612,-0.8612,-0.8612,-0.8649,-0.8958,-0.9096,-0.9125,-0.9348,-0.9514,-0.9579,-2.3135,-2.3154,0.0,0.0,0.0,0.0,0.0,0.0,0.0,0.0,0.0,0.0,0.0,0.0,0.0,0.0,0.0,-2.3091,-2.3091,0.0,-2.3091,0.0,0.0,-2.1555,0.0,0.0,-1.8185,-1.7755,-1.6348,-1.5843,-1.6036,-1.5191,-1.4951,-1.5267,-1.5355,-1.5208,-1.4945,-1.528,-1.5424,-1.541,-1.5424,-1.5591,-1.5805,0.0,-1.6415,-1.6676,-1.6629,0.0,0.0,-1.6239,-1.6127,-1.6025,0.0,0.0,0.0,0.0,0.0,0.0,0.0,0.0,0.0,-1.4088,0.0,0.0,0.0,0.0,-1.3864,0.0,0.0,0.0,0.0,0.0,-1.1981,-1.1759,-1.1051,0.0,0.0,0.0,0.0,0.0,0.0,0.0,0.0,-0.9575,-0.9579,-0.9579,-0.9579,-0.9579,-0.9579,-0.9571,-0.9571,-0.9571,-0.9562,-0.9522,-0.9396,-0.9388,-0.9165,-0.882,-0.8812,-0.8727,-0.8612,-0.8612,-0.8612,-0.8612,-0.8612,-0.8612,-0.8612,-0.8612,-0.8612,-0.8649,-0.8958,-0.9096,-0.9141,-0.949,-0.9575,-0.9579,-2.3091,0.0,0.0,0.0,0.0,0.0,0.0,-2.3188,0.0,0.0,-2.3276,0.0,0.0,-2.331,-2.3091,0.0,0.0,-2.3091,-2.3091,-2.3091,0.0,0.0,0.0,-2.0918,0.0,0.0,0.0,0.0,-1.6177,-1.5927,-1.5976,-1.5374,-1.5156,-1.5266,-1.5343,-1.5334,0.0,0.0,0.0,0.0,0.0,-1.5451,-1.5598,0.0,-1.6223,-1.6312,-1.6116,-1.6163,-1.6298,-1.5994,-1.5784,-1.5608,-1.5415,-1.5185,-1.495,-1.4861,-1.4787,-1.4666,0.0,0.0,-1.4329,-1.4135,0.0,0.0,0.0,0.0,0.0,0.0,0.0,0.0,0.0,0.0,-1.2188,-1.2061,-1.1836,-1.1577,0.0,0.0,0.0,0.0,0.0,0.0,0.0,0.0,-1.0167,-0.9494,-0.9445,-0.9498,-0.9571,-0.9579,-0.9579,-0.9579,-0.9579,-0.96,-0.9535,-0.9465,-0.9343,-0.9169,-0.8934,-0.8792,-0.8731,-0.8617,-0.8612,-0.8612,-0.8612,-0.8612,-0.8612,-0.8612,-0.8612,-0.8649,-0.8958,-0.9096,-0.9141,-0.9494,-0.9579,-0.9579,-2.312,-2.3091,0.0,0.0,0.0,0.0,0.0,0.0,0.0,0.0,-2.3276,0.0,-2.3525,0.0,-2.3091,0.0,-2.3091,-2.3091,-2.3091,-2.2784,0.0,-2.1587,-2.0917,0.0,0.0,0.0,0.0,0.0,0.0,-1.5817,-1.5878,-1.5414,-1.5194,-1.5201,0.0,-1.5337,-1.5264,-1.5665,-1.5718,0.0,0.0,-1.5551,0.0,0.0,-1.6015,-1.5933,0.0,-1.5927,-1.6028,-1.5879,-1.5705,-1.5551,-1.5551,-1.5351,-1.5117,-1.5117,-1.5089,-1.4968,-1.473,-1.4676,-1.4629,-1.4442,-1.4439,0.0,-1.4439,0.0,-1.4482,0.0,0.0,0.0,0.0,0.0,-1.343,-1.3247,-1.302,-1.2592,0.0,-1.1602,0.0,0.0,0.0,0.0,0.0,-1.023,-1.0371,-0.9444,-0.9343,-0.934,-0.9518,-0.9531,-0.9559,-0.9575,-0.9579,-0.9579,-0.9579,-0.951,-0.9469,-0.94,-0.912,-0.8978,-0.8913,-0.8808,-0.8718,-0.8658,-0.8658,-0.8621,-0.8616,-0.8633,-0.8658,-0.8694,-0.9047,-0.919,-0.9226,-0.9518,-0.9579,-0.9579,-2.3179,-2.3101,0.0,0.0,-2.311,0.0,0.0,0.0,-2.3091,0.0,-2.3091,-2.3091,-2.3101,-2.3101,-2.3091,-2.3057,-2.3057,-2.3047,-2.3003,-2.2148,0.0,0.0,-1.9368,-1.8241,-1.794,0.0,0.0,0.0,0.0,-1.5468,-1.5688,-1.5228,-1.5042,-1.5042,-1.5291,0.0,-1.5068,-1.5585,-1.5784,-1.5784,-1.5784,-1.5771,-1.5758,-1.5771,-1.5651,-1.5438,-1.5678,-1.5784,-1.5784,-1.5784,-1.5784,-1.5784,-1.5784,-1.5645,-1.5418,-1.5418,-1.5224,-1.5048,-1.5035,-1.5028,-1.5028,-1.5015,-1.5008,-1.5008,0.0,0.0,-1.5095,0.0,0.0,0.0,0.0,0.0,0.0,-1.5142,-1.4479,-1.3568,-1.2165,0.0,0.0,0.0,0.0,0.0,0.0,-1.0608,-1.0259,-0.9507,-0.9233,-0.9173,0.0,-0.9412,-0.9445,-0.9571,-0.9579,-0.9579,-0.9579,-0.9579,-0.9539,-0.9416,-0.9408,-0.9318,-0.9112,-0.91,-0.8995,-0.882,-0.882,-0.8731,-0.8637,-0.8751,-0.8828,-0.8869,-0.9265,-0.9408,-0.9437,-0.9563,-0.9579,-0.9579,-2.312,-2.2969,-2.3032,0.0,-2.3305,-2.3091,0.0,0.0,0.0,0.0,-2.3091,-2.3057,-2.2882,-2.2882,-2.2794,-2.2618,-2.2574,0.0,0.0,0.0,0.0,-1.894,-1.8357,-1.7723,-1.6998,-1.6645,0.0,-1.6462,0.0,0.0,-1.6054,-1.5738,-1.5491,-1.5297,0.0,-1.5558,-1.5311,-1.5671,-1.5784,-1.5784,-1.5784,-1.5698,-1.5531,0.0,-1.5651,-1.5438,-1.5678,-1.5784,-1.5784,-1.5784,-1.5784,-1.5784,-1.5784,-1.5731,-1.5718,-1.5718,-1.5665,-1.5558,-1.5344,-1.5284,-1.5237,-1.5062,-1.5008,-1.5008,-1.5008,-1.5008,0.0,0.0,0.0,0.0,0.0,0.0,0.0,0.0,0.0,0.0,0.0,0.0,0.0,-1.3703,0.0,0.0,0.0,-1.1347,-1.1076,-1.0086,-0.9456,-0.9173,-0.9396,-0.9482,-0.9579,-0.9575,-0.9579,-0.9579,-0.9579,-0.9579,-0.9604,-0.9555,-0.9469,-0.938,-0.9331,-0.9157,-0.8995,-0.882,-0.882,-0.8796,-0.8759,-0.88,-0.8901,-0.9047,-0.9318,-0.9437,-0.9563,-0.9612,-0.9579,-0.9579,-2.2718,-2.1996,0.0,-2.2007,0.0,0.0,-2.2828,-2.2882,0.0,-2.2227,-2.2555,0.0,-2.1463,-2.1739,-2.1784,-2.1195,-2.115,0.0,-2.0359,0.0,0.0,-1.7902,-1.7451,-1.6897,-1.6251,-1.6251,0.0,-1.6251,0.0,0.0,-1.6028,-1.5879,-1.5671,-1.5411,0.0,-1.5665,-1.5418,-1.5705,-1.5784,-1.5784,-1.5784,-1.5732,0.0,-1.5718,-1.5732,-1.5605,-1.5772,-1.5784,-1.5784,-1.5784,-1.5784,-1.5784,-1.5784,-1.5784,-1.5784,-1.5784,-1.5784,-1.5792,-1.5631,-1.5585,-1.5545,-1.5384,-1.5344,-1.5344,-1.5344,-1.5344,-1.5391,0.0,-1.5585,-1.5598,-1.5631,0.0,0.0,0.0,0.0,0.0,0.0,0.0,0.0,0.0,-1.3817,0.0,-1.2589,-1.1576,-1.0947,-1.0815,-0.9962,0.0,0.0,-0.9906,-0.986,-0.9506,-0.9587,-0.9579,-0.9579,-0.9579,-0.9579,-0.9575,-0.9522,-0.9474,-0.947,-0.9372,-0.923,-0.9051,-0.9051,-0.9011,-0.895,-0.9023,-0.9116,-0.9226,-0.9405,-0.9539,-0.9579,-0.9579,-0.9579,-0.9579,-2.2039,-2.0683,0.0,0.0,0.0,0.0,0.0,-2.2157,0.0,-2.0908,0.0,-2.1382,-1.9633,-2.0223,-2.0404,-1.9497,0.0,-1.936,-1.9222,-1.8403,-1.777,-1.7458,-1.6636,-1.6028,-1.5832,-1.5784,0.0,0.0,0.0,0.0,-1.5784,-1.5784,-1.5698,0.0,0.0,0.0,0.0,-1.5718,-1.5784,-1.5784,-1.5784,-1.5784,-1.5784,-1.5784,-1.5784,-1.5784,-1.5784,-1.5784,-1.5784,-1.5784,-1.5784,-1.5784,-1.5784,-1.5784,-1.5784,-1.5784,-1.5784,-1.5784,-1.5784,-1.5784,-1.5784,-1.5784,-1.5784,-1.5784,-1.5784,-1.5784,-1.5784,-1.5784,-1.5784,-1.5752,-1.5504,0.0,0.0,0.0,0.0,0.0,0.0,0.0,0.0,0.0,0.0,0.0,0.0,-1.1845,0.0,0.0,-1.0723,0.0,0.0,0.0,-1.0186,-0.9433,-0.9547,-0.9579,-0.9579,-0.9579,-0.9579,-0.9579,-0.9579,-0.9579,-0.9579,-0.9579,-0.9527,-0.9404,-0.9404,-0.9318,-0.9141,-0.9339,-0.9416,-0.9457,-0.9563,-0.9579,-0.9579,-0.9579,-0.9579,-0.9579,-2.0828,0.0,0.0,0.0,0.0,-1.9101,-1.9642,-1.9906,-1.9951,-1.977,-1.9906,-1.977,-1.9222,-1.9314,-1.9322,-1.8964,-1.8926,0.0,0.0,0.0,0.0,-1.615,-1.5967,-1.5832,-1.5784,-1.5784,-1.5784,0.0,0.0,0.0,-1.5784,-1.5784,-1.5751,0.0,0.0,0.0,-1.5711,-1.5758,0.0,-1.5784,-1.5784,-1.5784,-1.5784,-1.5784,-1.5784,-1.5784,-1.5784,-1.5784,-1.5784,-1.5784,-1.5784,-1.5784,-1.5784,-1.5784,-1.5784,-1.5784,-1.5784,-1.5784,-1.5784,-1.5784,-1.5784,-1.5784,-1.5784,-1.5784,-1.5784,-1.5784,-1.5784,-1.5784,-1.5784,-1.5764,-1.5718,-1.5792,0.0,0.0,0.0,0.0,0.0,0.0,0.0,0.0,0.0,-1.3907,0.0,0.0,0.0,0.0,0.0,0.0,0.0,0.0,-1.0341,0.0,-0.9612,-0.9579,0.0,-0.9579,-0.9579,-0.9579,-0.9579,-0.9579,-0.9579,-0.9579,-0.9527,-0.9404,-0.9404,-0.9384,-0.9359,-0.9388,-0.9441,-0.9583,-0.9616,-0.9579,-0.9579,-0.9579,-0.9579,-0.9579,0.0,0.0,0.0,0.0,0.0,0.0,0.0,-1.7742,-1.7958,-1.8295,-1.8826,-1.868,-1.7529,-1.7855,-1.7909,-1.7311,-1.7264,-1.7037,-1.6534,-1.6534,-1.6298,-1.5825,-1.5784,-1.5784,-1.5784,-1.5784,-1.5784,-1.5784,0.0,-1.5784,-1.5784,-1.5784,-1.5784,-1.5784,0.0,-1.5784,0.0,0.0,-1.5784,-1.5784,-1.5784,-1.5784,-1.5784,-1.5784,-1.5784,-1.5784,-1.5784,-1.5784,-1.5784,-1.5784,-1.5784,-1.5784,-1.5784,-1.5784,-1.5784,-1.5784,-1.5784,-1.5784,-1.5784,-1.5784,-1.5784,-1.5784,-1.5784,-1.5784,-1.5784,-1.5784,-1.5784,-1.5784,-1.5784,-1.5784,-1.5784,-1.5705,-1.5651,0.0,0.0,0.0,0.0,0.0,0.0,0.0,0.0,0.0,0.0,0.0,0.0,0.0,0.0,0.0,0.0,0.0,-1.0238,0.0,0.0,0.0,-0.9579,0.0,-0.9579,-0.9579,-0.9579,-0.9579,-0.9579,-0.9579,-0.9579,-0.9494,-0.9494,-0.9494,-0.9494,-0.9494,-0.9547,-0.9579,-0.9579,-0.9579,-0.9579,-0.9579,-0.9579,-0.9579,0.0,-1.7867,0.0,0.0,-1.663,-1.6301,-1.6186,-1.6179,-1.6381,-1.6892,-1.7692,-1.7544,-1.5967,-1.6534,-1.6676,-1.5872,-1.5784,-1.5784,-1.5784,-1.5784,-1.5784,-1.5784,-1.5784,-1.5784,-1.5784,-1.5784,-1.5784,0.0,0.0,0.0,-1.5784,-1.5784,-1.5784,0.0,0.0,0.0,0.0,-1.5784,-1.5784,-1.5784,-1.5784,-1.5784,-1.5784,-1.5784,-1.5784,-1.5784,-1.5784,-1.5784,-1.5784,-1.5784,-1.5784,-1.5784,-1.5784,-1.5784,-1.5784,-1.5784,-1.5784,-1.5784,-1.5784,-1.5784,-1.5784,-1.5784,-1.5784,-1.5784,-1.5784,-1.5784,-1.5784,-1.5784,-1.5784,-1.5784,-1.5784,-1.5645,-1.5565,0.0,0.0,0.0,0.0,0.0,0.0,0.0,0.0,0.0,-1.4649,0.0,0.0,0.0,0.0,0.0,-1.0616,0.0,0.0,-0.9679,-0.9782,-0.9808,-0.9808,0.0,-0.9579,-0.9579,-0.9579,-0.9579,-0.9579,-0.9579,-0.9579,-0.9579,-0.9579,-0.9579,-0.9579,-0.9579,-0.9579,-0.9579,-0.9579,-0.9579,-0.9579,-0.9579,-0.9579,-0.9583,0.0,0.0,0.0,0.0,0.0,-1.6179,-1.5912,-1.5872,-1.5858,-1.5927,-1.6015,-1.6015,-1.5825,-1.5879,-1.592,-1.5832,-1.5784,-1.5784,-1.5784,-1.5784,-1.5784,-1.5784,-1.5784,-1.5784,-1.5784,-1.5784,-1.5784,0.0,0.0,-1.5784,-1.5784,-1.5784,-1.5784,-1.5784,-1.5784,-1.5784,-1.5784,-1.5784,-1.5784,-1.5784,-1.5784,-1.5784,-1.5784,-1.5784,-1.5784,-1.5784,-1.5784,-1.5784,-1.5784,-1.5784,-1.5784,-1.5784,-1.5784,-1.5784,-1.5784,-1.5784,-1.5784,-1.5784,-1.5784,-1.5784,-1.5784,-1.5784,-1.5784,-1.5784,-1.5784,-1.5784,-1.5784,-1.5784,-1.5784,-1.5784,-1.5784,-1.5758,-1.5751,0.0,0.0,0.0,0.0,0.0,0.0,0.0,0.0,0.0,0.0,-1.5164,0.0,0.0,-1.2917,0.0,0.0,0.0,-1.1394,-1.0616,-1.0596,-1.0605,-1.0605,-0.9926,-0.9579,-0.9579,-0.9579,-0.9579,-0.9579,-0.9579,-0.9579,-0.9579,-0.9579,-0.9579,-0.9579,-0.9579,-0.9579,-0.9579,-0.9579,-0.9579,-0.9579,-0.9579,-0.9579,-0.9648,0.0,0.0,-1.6807,-1.6573,-1.6386,-1.6233,-1.6112,-1.6092,-1.6032,-1.5852,-1.5784,-1.5784,-1.5784,-1.5784,-1.5784,-1.5784,-1.5784,-1.5784,-1.5784,-1.5784,-1.5784,-1.5784,-1.5784,-1.5784,-1.5784,-1.5784,-1.5784,0.0,0.0,0.0,0.0,-1.5784,-1.5784,-1.5784,-1.5784,-1.5784,-1.5784,-1.5784,-1.5784,-1.5784,-1.5784,-1.5784,-1.5784,-1.5784,-1.5784,-1.5784,-1.5784,-1.5784,-1.5784,-1.5784,-1.5784,-1.5784,-1.5784,-1.5784,-1.5784,-1.5784,-1.5784,-1.5784,-1.5784,-1.5784,-1.5784,-1.5784,-1.5784,-1.5784,-1.5784,-1.5784,-1.5784,-1.5784,-1.5784,-1.5784,-1.5784,-1.5691,-1.5625,-1.5751,0.0,0.0,0.0,0.0,0.0,0.0,0.0,0.0,0.0,-1.517,0.0,0.0,0.0,0.0,0.0,-1.1559,-1.1502,-1.191,0.0,-1.033,-1.0999,-1.007,-0.9579,-0.9579,-0.9579,-0.9579,-0.9579,-0.9579,-0.9579,-0.9579,-0.9579,-0.9579,-0.9579,-0.9579,-0.9579,-0.9579,-0.9579,-0.9579,-0.9579,-0.9579,-0.9693,-0.9807,-1.7367,-1.7041,-1.6807,-1.672,-1.6466,-1.6295,-1.6152,-1.6146,-1.6066,-1.5804,-1.5784,-1.5784,-1.5784,-1.5784,-1.5784,-1.5784,-1.5784,-1.5784,-1.5784,-1.5784,-1.5784,-1.5784,-1.5784,0.0,-1.5784,-1.5784,-1.5784,-1.5784,-1.5784,0.0,0.0,-1.5784,-1.5784,-1.5784,-1.5784,-1.5784,-1.5784,-1.5784,-1.5784,-1.5784,-1.5784,-1.5784,-1.5784,-1.5784,-1.5784,-1.5784,-1.5784,-1.5784,-1.5784,-1.5784,-1.5784,-1.5784,-1.5784,-1.5784,-1.5784,-1.5784,-1.5784,-1.5784,-1.5784,-1.5784,-1.5784,-1.5784,-1.5784,-1.5784,-1.5784,-1.5784,-1.5784,-1.5784,-1.5784,-1.5784,-1.5784,-1.5665,-1.5591,-1.5751,0.0,0.0,0.0,-1.5784,0.0,0.0,-1.5524,-1.5398,-1.5398,-1.5211,0.0,0.0,0.0,0.0,0.0,-1.2046,-1.212,-1.3003,-1.1327,-1.0754,-1.1516,-1.0226,-0.9579,-0.9579,-0.9579,-0.9579,-0.9579,-0.9579,-0.9579,-0.9579,-0.9579,-0.9579,-0.9579,-0.9579,-0.9579,-0.9579,-0.9579,-0.9579,-0.9628,-0.9965,-1.014,-1.0335,-1.7582,-1.7393,-1.7099,-1.676,-1.6466,-1.6172,-1.5879,-1.5832,-1.5784,-1.5784,-1.5784,-1.5784,-1.5784,-1.5784,-1.5784,-1.5784,-1.5784,-1.5784,-1.5784,-1.5784,-1.5784,0.0,0.0,-1.5784,-1.5784,-1.5784,-1.5784,-1.5784,0.0,0.0,-1.5784,-1.5784,-1.5784,-1.5784,-1.5784,-1.5784,-1.5784,-1.5784,-1.5784,-1.5784,-1.5784,-1.5784,-1.5784,-1.5784,-1.5784,-1.5784,-1.5784,-1.5784,-1.5784,-1.5784,-1.5784,-1.5784,-1.5784,-1.5784,-1.5784,-1.5784,-1.5784,-1.5784,-1.5784,-1.5784,-1.5784,-1.5784,-1.5784,-1.5784,-1.5784,-1.5784,-1.5784,-1.5784,-1.5784,-1.5784,-1.5784,-1.5778,-1.5778,-1.5784,0.0,0.0,0.0,-1.5784,0.0,-1.5438,-1.5398,-1.5398,-1.5398,-1.5391,0.0,0.0,0.0,0.0,0.0,-1.377,-1.3776,-1.3776,-1.2805,-1.2288,-1.2293,-1.0502,-0.9579,-0.9579,-0.9579,-0.9579,-0.9579,-0.9579,-0.9579,-0.9579,-0.9579,-0.9579,-0.9579,-0.9579,-0.9579,-0.9579,-0.9579,-0.9579,-0.9723,-1.0788,-1.1175,-1.1334,-1.7061,-1.7125,-1.7105,-1.676,-1.6627,-1.6473,-1.6179,-1.6132,-1.6059,-1.5804,-1.5784,-1.5784,-1.5784,-1.5784,-1.5784,0.0,-1.5784,-1.5784,0.0,-1.5784,-1.5784,-1.5784,-1.5784,-1.5784,-1.5784,-1.5784,-1.5784,-1.5784,-1.5784,-1.5784,-1.5784,-1.5784,-1.5784,-1.5784,-1.5784,-1.5784,-1.5784,-1.5784,-1.5784,-1.5784,-1.5784,-1.5784,-1.5784,-1.5784,-1.5784,-1.5784,-1.5784,-1.5784,-1.5784,-1.5784,-1.5784,-1.5784,-1.5784,-1.5784,-1.5784,-1.5784,-1.5784,-1.5784,-1.5784,-1.5784,-1.5784,-1.5784,-1.5784,-1.5784,-1.5784,-1.5784,-1.5784,-1.5784,-1.5784,-1.5784,-1.5784,-1.5784,-1.5784,-1.5784,-1.5784,0.0,-1.5784,0.0,-1.5792,-1.5705,-1.5691,-1.5691,-1.5691,-1.5691,0.0,0.0,0.0,0.0,-1.4922,-1.4393,-1.4444,-1.5154,-1.2805,-1.1892,-1.2571,-1.0618,-0.9579,-0.9579,-0.9579,-0.9579,-0.9579,-0.9579,-0.9579,-0.9628,-1.035,-1.069,-1.0739,-1.1419,-1.1712,-1.1712,-1.1712,-1.1712,-1.176,-1.2101,-1.2438,-1.2759,-1.7108,-1.7146,-1.7139,-1.6907,-1.678,-1.6647,-1.6466,-1.6339,-1.6206,-1.6019,-1.5899,-1.5784,-1.5784,-1.5784,-1.5784,-1.5784,-1.5784,-1.5784,-1.5784,-1.5784,-1.5784,-1.5784,-1.5784,-1.5784,-1.5784,-1.5784,-1.5784,-1.5784,-1.5784,-1.5784,-1.5784,-1.5784,-1.5784,-1.5784,-1.5784,-1.5784,-1.5784,-1.5784,-1.5784,-1.5784,-1.5784,-1.5784,-1.5784,-1.5784,-1.5784,-1.5784,-1.5784,-1.5784,-1.5784,-1.5784,-1.5784,-1.5784,-1.5784,-1.5784,-1.5784,-1.5784,-1.5784,-1.5784,-1.5784,-1.5784,-1.5784,-1.5784,-1.5784,-1.5784,-1.5784,-1.5784,-1.5784,-1.5784,-1.5784,-1.5784,-1.5784,-1.5784,-1.5784,-1.5784,-1.5784,-1.5784,-1.5784,0.0,-1.5744,0.0,0.0,-1.5665,-1.5665,-1.5665,-1.5712,0.0,0.0,0.0,-1.5558,-1.5014,-1.4861,-1.5248,-1.2969,-1.1901,-1.2145,-1.0453,-0.9579,-0.9579,-0.9579,-0.9579,-0.9628,-1.0015,-1.0207,-1.0256,-1.1321,-1.1755,-1.1804,-1.2436,-1.2678,-1.2678,-1.2678,-1.2678,-1.2737,-1.3273,-1.369,-1.4115,-1.7555,-1.7407,-1.7233,-1.7233,-1.6947,-1.676,-1.674,-1.6506,-1.6368,-1.6328,-1.6032,-1.5852,-1.5784,-1.5784,-1.5784,-1.5784,-1.5784,-1.5784,-1.5784,-1.5784,-1.5784,-1.5784,-1.5784,-1.5784,-1.5784,-1.5784,-1.5784,-1.5784,-1.5784,-1.5784,-1.5784,-1.5784,-1.5784,-1.5784,-1.5784,-1.5784,-1.5784,-1.5784,-1.5784,-1.5784,-1.5784,-1.5784,-1.5784,-1.5784,-1.5784,-1.5784,-1.5784,-1.5784,-1.5784,-1.5784,-1.5784,-1.5784,-1.5784,-1.5784,-1.5784,-1.5784,-1.5784,-1.5784,-1.5784,-1.5784,-1.5784,-1.5784,-1.5784,-1.5784,-1.5784,-1.5784,-1.5784,-1.5784,-1.5784,-1.5784,-1.5784,-1.5784,-1.5784,-1.5784,-1.5784,-1.5784,-1.5784,-1.5784,-1.5732,-1.5458,0.0,-1.5424,-1.5424,-1.5424,-1.5538,0.0,0.0,0.0,-1.5784,-1.5458,-1.5012,-1.4334,-1.3173,-1.2145,-1.1219,-1.0158,-0.9579,-0.9579,-0.9579,-0.9628,-0.9723,-1.0739,-1.1219,-1.1365,-1.2387,-1.2829,-1.2829,-1.2877,-1.2926,-1.2926,-1.2926,-1.2931,-1.312,-1.4349,-1.5035,-1.5412,-1.7347,-1.7427,-1.7534,-1.7534,-1.7422,-1.7301,-1.7132,-1.7038,-1.6831,-1.6382,-1.6213,-1.6079,-1.5804,-1.5784,-1.5784,-1.5784,-1.5784,-1.5784,-1.5784,-1.5784,-1.5784,-1.5784,-1.5784,-1.5784,-1.5784,-1.5784,-1.5784,-1.5784,-1.5784,-1.5784,-1.5784,-1.5784,-1.5784,-1.5784,-1.5784,-1.5784,-1.5784,-1.5784,-1.5784,-1.5784,-1.5784,-1.5784,-1.5784,-1.5784,-1.5784,-1.5784,-1.5784,-1.5784,-1.5784,-1.5784,-1.5784,-1.5784,-1.5784,-1.5784,-1.5784,-1.5784,-1.5784,-1.5784,-1.5784,-1.5784,-1.5784,-1.5784,-1.5784,-1.5784,-1.5784,-1.5784,-1.5784,-1.5784,-1.5784,-1.5784,-1.5784,-1.5784,-1.5784,-1.5784,-1.5784,-1.5784,-1.5784,-1.5784,-1.5758,0.0,-1.5732,-1.5732,-1.5732,-1.5732,-1.5752,0.0,0.0,-1.5591,-1.5771,-1.4778,-1.4237,-1.4286,-1.249,-1.1414,-1.1219,-1.0158,-0.9579,-0.9579,-0.9579,-1.0015,-1.0837,-1.1077,-1.1609,-1.2387,-1.3463,-1.3902,-1.3998,-1.4765,-1.5051,-1.5051,-1.5051,-1.5233,-1.5534,-1.6051,-1.6511,-1.6946,-1.7427,-1.7475,-1.7582,-1.7582,-1.7582,-1.7528,-1.7427,-1.7286,-1.7085,-1.6764,-1.6489,-1.6213,-1.6052,-1.5912,-1.5784,-1.5784,-1.5784,-1.5784,-1.5784,-1.5784,-1.5784,-1.5784,-1.5784,-1.5784,-1.5784,-1.5784,-1.5784,-1.5784,-1.5784,-1.5784,-1.5784,-1.5784,-1.5784,-1.5784,-1.5784,-1.5784,-1.5784,-1.5784,-1.5784,-1.5784,-1.5784,-1.5784,-1.5784,-1.5784,-1.5784,-1.5784,-1.5784,-1.5784,-1.5784,-1.5784,-1.5784,-1.5784,-1.5784,-1.5784,-1.5784,-1.5784,-1.5784,-1.5784,-1.5784,-1.5784,-1.5784,-1.5784,-1.5784,-1.5784,-1.5784,-1.5784,-1.5784,-1.5784,-1.5784,-1.5784,-1.5784,-1.5784,-1.5784,-1.5784,-1.5784,-1.5784,-1.5784,-1.5784,-1.5784,-1.5784,-1.5784,-1.5784,-1.5784,-1.5784,-1.5784,-1.5784,-1.5685,-1.5665,-1.5771,-1.4669,-1.3892,-1.3553,-1.2047,-1.0979,-1.0449,-0.9871,-0.9579,-0.9628,-1.0109,-1.0645,-1.1219,-1.2198,-1.2926,-1.3511,-1.4532,-1.4968,-1.5016,-1.5588,-1.5784,-1.5784,-1.5784,-1.606,-1.6495,-1.6377,-1.7016,-1.7865,-1.7595,-1.7622,-1.7635,-1.7589,-1.7582,-1.7582,-1.7582,-1.7427,-1.7253,-1.7206,-1.6764,-1.6442,-1.6388,-1.6112,-1.5959,-1.5959,-1.5919,-1.5831,-1.5784,-1.5784,-1.5784,-1.5784,-1.5784,-1.5784,-1.5784,-1.5784,-1.5784,-1.5784,-1.5784,-1.5784,-1.5784,-1.5784,-1.5784,-1.5784,-1.5784,-1.5784,-1.5784,-1.5784,-1.5784,-1.5784,-1.5784,-1.5784,-1.5784,-1.5784,-1.5784,-1.5784,-1.5784,-1.5784,-1.5784,-1.5784,-1.5784,-1.5784,-1.5784,-1.5784,-1.5784,-1.5784,-1.5784,-1.5784,-1.5784,-1.5784,-1.5784,-1.5784,-1.5784,-1.5784,-1.5784,-1.5784,-1.5784,-1.5784,-1.5784,-1.5784,-1.5784,-1.5784,-1.5784,-1.5784,-1.5784,-1.5784,-1.5784,-1.5784,-1.5784,-1.5784,-1.5784,-1.5784,-1.5784,-1.5784,-1.5784,-1.5784,-1.5784,-1.5784,-1.5784,-1.4873,-1.3902,-1.2974,-1.195,-1.0984,-1.0064,-1.0064,-1.0064,-1.0064,-1.0984,-1.1512,-1.1707,-1.3516,-1.4394,-1.4586,-1.5445,-1.5784,-1.5784,-1.5784,-1.5804,-1.5899,-1.5899,-1.6257,-1.6798,-1.6386,-1.7171,-1.8401,-1.7629,-1.7796,-1.7896,-1.7629,-1.7582,-1.7582,-1.7582,-1.7542,-1.7481,-1.7233,-1.7119,-1.6971,-1.6667,-1.6593,-1.6573,-1.6573,-1.6346,-1.6099,-1.5798,-1.5784,-1.5784,-1.5784,-1.5784,-1.5784,-1.5784,-1.5784,-1.5784,-1.5784,-1.5784,-1.5784,-1.5784,-1.5784,-1.5784,-1.5784,-1.5784,-1.5784,-1.5784,-1.5784,-1.5784,-1.5784,-1.5784,-1.5784,-1.5784,-1.5784,-1.5784,-1.5784,-1.5784,-1.5784,-1.5784,-1.5784,-1.5784,-1.5784,-1.5784,-1.5784,-1.5784,-1.5784,-1.5784,-1.5784,-1.5784,-1.5784,-1.5784,-1.5784,-1.5784,-1.5784,-1.5784,-1.5784,-1.5784,-1.5784,-1.5784,-1.5784,-1.5784,-1.5784,-1.5784,-1.5784,-1.5784,-1.5784,-1.5784,-1.5784,-1.5784,-1.5784,-1.5784,-1.5784,-1.5784,-1.5784,-1.5784,-1.5784,-1.5784,-1.5784,-1.5784,-1.4873,-1.4202,-1.4052,-1.3022,-1.2393,-1.2198,-1.2198,-1.2198,-1.2198,-1.2393,-1.2926,-1.3806,-1.4148,-1.4777,-1.5588,-1.573,-1.5784,-1.5784,-1.5784,-1.5979,-1.6206,-1.6206,-1.6738,-1.7493,-1.7629,-1.8152,-1.8745,-1.8103,-1.819,-1.819,-1.7889,-1.7836,-1.7776,-1.7609,-1.7582,-1.7535,-1.7454,-1.73,-1.7146,-1.7012,-1.68,-1.6707,-1.6707,-1.6587,-1.638,-1.6086,-1.5919,-1.5784,-1.5784,-1.5784,-1.5784,-1.5784,-1.5784,-1.5784,-1.5784,-1.5784,-1.5784,-1.5784,-1.5784,-1.5784,-1.5784,-1.5784,-1.5784,-1.5784,-1.5784,-1.5784,-1.5784,-1.5784,-1.5784,-1.5784,-1.5784,-1.5784,-1.5784,-1.5784,-1.5784,-1.5784,-1.5784,-1.5784,-1.5784,-1.5784,-1.5784,-1.5784,-1.5784,-1.5784,-1.5784,-1.5784,-1.5784,-1.5784,-1.5784,-1.5784,-1.5784,-1.5784,-1.5784,-1.5784,-1.5784,-1.5784,-1.5784,-1.5784,-1.5784,-1.5784,-1.5784,-1.5784,-1.5784,-1.5784,-1.5784,-1.5784,-1.5784,-1.5784,-1.5784,-1.5784,-1.5784,-1.5784,-1.5784,-1.5784,-1.5784,-1.5784,-1.535,-1.5112,-1.5112,-1.3553,-1.2678,-1.2678,-1.2678,-1.2678,-1.2732,-1.327,-1.3806,-1.4346,-1.4873,-1.535,-1.5784,-1.5784,-1.5784,-1.5832,-1.5974,-1.6109,-1.6299,-1.6601,-1.7133,-1.775,-1.7599,-1.8163,-1.9018,-1.8504,-1.8544,-1.8497,-1.8149,-1.8035,-1.7909,-1.7722,-1.7629,-1.7582,-1.7582,-1.744,-1.73,-1.73,-1.7048,-1.6907,-1.6907,-1.6847,-1.6714,-1.6543,-1.6199,-1.5972,-1.5791,-1.5784,-1.5784,-1.5784,-1.5784,-1.5784,-1.5784,-1.5784,-1.5784,-1.5784,-1.5784,-1.5784,-1.5784,-1.5784,-1.5784,-1.5784,-1.5784,-1.5784,-1.5784,-1.5784,-1.5784,-1.5784,-1.5784,-1.5784,-1.5784,-1.5784,-1.5784,-1.5784,-1.5784,-1.5784,-1.5784,-1.5784,-1.5784,-1.5784,-1.5784,-1.5784,-1.5784,-1.5784,-1.5784,-1.5784,-1.5784,-1.5784,-1.5784,-1.5784,-1.5784,-1.5784,-1.5784,-1.5784,-1.5784,-1.5784,-1.5784,-1.5784,-1.5784,-1.5784,-1.5784,-1.5784,-1.5784,-1.5784,-1.5784,-1.5784,-1.5784,-1.5784,-1.5784,-1.5784,-1.5784,-1.5784,-1.5784,-1.5784,-1.5784,-1.5784,-1.5784,-1.4232,-1.3409,-1.3409,-1.3409,-1.3409,-1.3409,-1.4238,-1.4634,-1.4682,-1.5445,-1.5784,-1.5784,-1.5784,-1.5832,-1.5933,-1.6198,-1.6368,-1.6553,-1.7093,-1.7655,-1.8067,-1.7681,-1.8278,-1.922,-1.8544,-1.8704,-1.8798,-1.851,-1.823,-1.7982,-1.7962,-1.7769,-1.7582,-1.7582,-1.7562,-1.7549,-1.7549,-1.7528,-1.7515,-1.7515,-1.7326,-1.7159,-1.7139,-1.6807,-1.64,-1.5804,-1.5784,-1.5784,-1.5784,-1.5784,-1.5784,-1.5784,-1.5784,-1.5784,-1.5784,-1.5784,-1.5784,-1.5784,-1.5784,-1.5784,-1.5784,-1.5784,-1.5784,-1.5784,-1.5784,-1.5784,-1.5784,-1.5784,-1.5784,-1.5784,-1.5784,-1.5784,-1.5784,-1.5784,-1.5784,-1.5784,-1.5784,-1.5784,-1.5784,-1.5784,-1.5784,-1.5784,-1.5784,-1.5784,-1.5784,-1.5784,-1.5784,-1.5784,-1.5784,-1.5784,-1.5784,-1.5784,-1.5784,-1.5784,-1.5784,-1.5784,-1.5784,-1.5784,-1.5784,-1.5784,-1.5784,-1.5784,-1.5784,-1.5784,-1.5784,-1.5784,-1.5784,-1.5784,-1.5784,-1.5784,-1.5784,-1.5784,-1.5784,-1.5784,-1.5784,-1.5784,-1.5635,-1.5588,-1.5588,-1.5588,-1.5588,-1.5588,-1.5635,-1.5689,-1.5689,-1.5784,-1.5784,-1.5784,-1.5784,-1.5927,-1.6198,-1.6532,-1.6946,-1.7421,-1.7778,-1.8306,-1.8805,-1.8774,-1.8997,-1.9272,-1.9058,-1.9125,-1.9105,-1.8811,-1.8664,-1.8408,-1.8049,-1.7896,-1.7802,-1.7609,-1.7582,-1.7582,-1.7582,-1.7582,-1.7582,-1.7582,-1.7534,-1.7393,-1.7213,-1.7092,-1.68,-1.6393,-1.6373,-1.6286,-1.6112,-1.6106,-1.6012,-1.5784,-1.5784,-1.5784,-1.5784,-1.5784,-1.5784,-1.5784,-1.5784,-1.5784,-1.5784,-1.5784,-1.5784,-1.5784,-1.5784,-1.5784,-1.5784,-1.5784,-1.5784,-1.5784,-1.5784,-1.5784,-1.5784,-1.5784,-1.5784,-1.5784,-1.5784,-1.5784,-1.5784,-1.5784,-1.5784,-1.5784,-1.5784,-1.5784,-1.5784,-1.5784,-1.5784,-1.5784,-1.5784,-1.5784,-1.5784,-1.5784,-1.5784,-1.5784,-1.5784,-1.5784,-1.5784,-1.5784,-1.5784,-1.5784,-1.5784,-1.5784,-1.5784,-1.5784,-1.5784,-1.5784,-1.5784,-1.5784,-1.5784,-1.5784,-1.5784,-1.5784,-1.5784,-1.5784,-1.5784,-1.5784,-1.5784,-1.5784,-1.5784,-1.5784,-1.5784,-1.5784,-1.5784,-1.5784,-1.5784,-1.5784,-1.5784,-1.5832,-1.5981,-1.6232,-1.656,-1.6967,-1.7386,-1.7796,-1.8304,-1.8512,-1.8656,-1.8998,-1.913,-1.9078,-1.9424,-1.9424,-1.9305,-1.9098,-1.8985,-1.8758,-1.8209,-1.8049,-1.7882,-1.7622,-1.7582,-1.7582,-1.7582,-1.7582,-1.7582,-1.7582,-1.7582,-1.7502,-1.7347,-1.734,-1.7166,-1.6727,-1.662,-1.6473,-1.6279,-1.6179,-1.6032,-1.5784,-1.5784,-1.5784,-1.5784,-1.5784,-1.5784,-1.5784,-1.5784,-1.5784,-1.5784,-1.5784,-1.5784,-1.5784,-1.5784,-1.5784,-1.5784,-1.5784,-1.5784,-1.5784,-1.5784,-1.5784,-1.5784,-1.5784,-1.5784,-1.5784,-1.5784,-1.5784,-1.5784,-1.5784,-1.5784,-1.5784,-1.5784,-1.5784,-1.5784,-1.5784,-1.5784,-1.5784,-1.5784,-1.5784,-1.5784,-1.5784,-1.5784,-1.5784,-1.5784,-1.5784,-1.5784,-1.5784,-1.5784,-1.5784,-1.5784,-1.5784,-1.5784,-1.5784,-1.5784,-1.5784,-1.5784,-1.5784,-1.5784,-1.5784,-1.5784,-1.5784,-1.5784,-1.5784,-1.5784,-1.5784,-1.5784,-1.5784,-1.5784,-1.5784,-1.5784,-1.5784,-1.5784,-1.5784,-1.5784,-1.5784,-1.5879,-1.5965,-1.617,-1.6532,-1.6967,-1.7309,-1.7725,-1.8103,-1.8506,-1.8584,-1.8458,-1.8873,-1.8966,-1.8921,-1.9424,-1.9424,-1.9424,-1.9424,-1.9125,-1.8831,-1.8537,-1.8243,-1.7889,-1.7629,-1.7589,-1.7589,-1.7582,-1.7582,-1.7582,-1.7582,-1.7582,-1.7582,-1.7582,-1.7582,-1.7321,-1.674,-1.6433,-1.6335,-1.6328,-1.5992,-1.5791,-1.5784,-1.5784,-1.5784,-1.5784,-1.5784,-1.5784,-1.5784,-1.5784,-1.5784,-1.5784,-1.5784,-1.5784,-1.5784,-1.5784,-1.5784,-1.5784,-1.5784,-1.5784,-1.5784,-1.5784,-1.5784,-1.5784,-1.5784,-1.5784,-1.5784,-1.5784,-1.5784,-1.5784,-1.5784,-1.5784,-1.5784,-1.5784,-1.5784,-1.5784,-1.5784,-1.5784,-1.5784,-1.5784,-1.5784,-1.5784,-1.5784,-1.5784,-1.5784,-1.5784,-1.5784,-1.5784,-1.5784,-1.5784,-1.5784,-1.5784,-1.5784,-1.5784,-1.5784,-1.5784,-1.5784,-1.5784,-1.5784,-1.5784,-1.5784,-1.5784,-1.5784,-1.5784,-1.5784,-1.5784,-1.5784,-1.5784,-1.5784,-1.5784,-1.5784,-1.5784,-1.5784,-1.5784,-1.5784,-1.5784,-1.5784,-1.5999,-1.6279,-1.6328,-1.6784,-1.7533,-1.7544,-1.7937,-1.8381,-1.8414,-1.8422,-1.8422,-1.8422,-1.8593,-1.8876,-1.9424,-1.9424,-1.9424,-1.9424,-1.9292,-1.9132,-1.8838,-1.8718,-1.8428,-1.7976,-1.7856,-1.7822,-1.7609,-1.7582,-1.7582,-1.7582,-1.7582,-1.7582,-1.7582,-1.7582,-1.7508,-1.7328,-1.7235,-1.7094,-1.6945,-1.6851,-1.6553,-1.6139,-1.6139,-1.6032,-1.5784,-1.5784,-1.5784,-1.5784,-1.5784,-1.5784,-1.5784,-1.5784,-1.5784,-1.5784,-1.5784,-1.5784,-1.5784,-1.5784,-1.5784,-1.5784,-1.5784,-1.5784,-1.5784,-1.5784,-1.5972,-1.6139,-1.6139,-1.5999,-1.5784,-1.5784,-1.5784,-1.5784,-1.5784,-1.5784,-1.5784,-1.5784,-1.5784,-1.5784,-1.5784,-1.5784,-1.5784,-1.5784,-1.5784,-1.5784,-1.5784,-1.5784,-1.5784,-1.5784,-1.5784,-1.5784,-1.5784,-1.5784,-1.5784,-1.5784,-1.5784,-1.5784,-1.5784,-1.5784,-1.5784,-1.5784,-1.5784,-1.5784,-1.5784,-1.5784,-1.5784,-1.5784,-1.5784,-1.5784,-1.5784,-1.5784,-1.5784,-1.5784,-1.5784,-1.5939,-1.6139,-1.6139,-1.6299,-1.658,-1.6779,-1.7155,-1.7594,-1.7779,-1.81,-1.8407,-1.8387,-1.8272,-1.8115,-1.8318,-1.8517,-1.8605,-1.9424,-1.9424,-1.9424,-1.9424,-1.9424,-1.9265,-1.8965,-1.8925,-1.8758,-1.8283,-1.8069,-1.7922,-1.7789,-1.7655,-1.7582,-1.7582,-1.7582,-1.7582,-1.7582,-1.7582,-1.7582,-1.7582,-1.7582,-1.7442,-1.7206,-1.7085,-1.68,-1.644,-1.644,-1.6293,-1.6005,-1.6005,-1.5939,-1.5784,-1.5784,-1.5784,-1.5784,-1.5784,-1.5784,-1.5784,-1.5784,-1.5784,-1.5784,-1.5784,-1.5784,-1.5784,-1.5784,-1.5784,-1.5784,-1.5784,-1.6025,-1.6301,-1.6132,-1.6052,-1.5979,-1.5865,-1.5784,-1.5784,-1.5784,-1.5784,-1.5784,-1.5784,-1.5784,-1.5784,-1.5784,-1.5784,-1.5784,-1.5784,-1.5784,-1.5784,-1.5784,-1.5784,-1.5784,-1.5784,-1.5784,-1.5784,-1.5784,-1.5784,-1.5784,-1.5784,-1.5784,-1.5784,-1.5784,-1.5784,-1.5784,-1.5784,-1.5784,-1.5784,-1.5784,-1.5784,-1.5784,-1.5784,-1.5784,-1.5784,-1.5784,-1.5945,-1.6005,-1.6005,-1.6005,-1.6159,-1.644,-1.644,-1.66,-1.6931,-1.7089,-1.7367,-1.775,-1.7846,-1.8047,-1.837,-1.8272,-1.822,-1.8167,-1.8318,-1.8496,-1.867,-1.9424,-1.9424,-1.9424,-1.9424,-1.9424,-1.9279,-1.9005,-1.8965,-1.8858,-1.8564,-1.8297,-1.8062,-1.8035,-1.7836,-1.7662,-1.7662,-1.7642,-1.7622,-1.7622,-1.7595,-1.7582,-1.7582,-1.7582,-1.7514,-1.7246,-1.6921,-1.6774,-1.6747,-1.6747,-1.66,-1.6362,-1.6362,-1.6152,-1.5824,-1.5824,-1.5804,-1.5784,-1.5784,-1.5784,-1.5784,-1.5784,-1.5784,-1.5784,-1.5784,-1.5784,-1.5784,-1.5784,-1.5784,-1.5791,-1.5844,-1.6072,-1.6239,-1.6019,-1.6079,-1.6186,-1.5939,-1.5804,-1.5784,-1.5784,-1.5784,-1.5784,-1.5784,-1.5784,-1.5784,-1.5784,-1.5784,-1.5784,-1.5784,-1.5784,-1.5784,-1.5784,-1.5784,-1.5784,-1.5784,-1.5784,-1.5784,-1.5784,-1.5784,-1.5784,-1.5784,-1.5784,-1.5784,-1.5784,-1.5784,-1.5784,-1.5784,-1.5784,-1.5784,-1.5784,-1.5784,-1.5791,-1.5818,-1.5824,-1.5879,-1.5858,-1.6172,-1.6299,-1.6321,-1.6299,-1.6466,-1.6747,-1.6747,-1.6907,-1.7239,-1.7239,-1.7556,-1.7964,-1.7747,-1.795,-1.837,-1.8122,-1.8167,-1.8422,-1.8422,-1.8608,-1.8807,-1.9424,-1.9424,-1.9424,-1.9424,-1.9424,-1.9403,-1.9279,-1.9272,-1.9165,-1.8871,-1.8771,-1.8644,-1.8417,-1.8337,-1.8297,-1.8297,-1.8076,-1.7896,-1.7896,-1.7716,-1.7582,-1.7582,-1.7582,-1.7555,-1.7488,-1.7428,-1.7281,-1.7105,-1.7105,-1.6951,-1.6613,-1.6613,-1.6453,-1.6179,-1.6179,-1.6046,-1.5784,-1.5784,-1.5784,-1.5784,-1.5784,-1.5784,-1.5784,-1.5784,-1.5784,-1.5784,-1.5784,-1.5784,-1.5851,-1.6359,-1.6406,-1.6388,-1.679,-1.6433,-1.5959,-1.6126,-1.6012,-1.5784,-1.5784,-1.5784,-1.5784,-1.5784,-1.5784,-1.5784,-1.5784,-1.5784,-1.5784,-1.5784,-1.5784,-1.5784,-1.5784,-1.5784,-1.5784,-1.5784,-1.5784,-1.5784,-1.5784,-1.5784,-1.5784,-1.5784,-1.5784,-1.5784,-1.5784,-1.5784,-1.5784,-1.5784,-1.5784,-1.5784,-1.5784,-1.5784,-1.5939,-1.6166,-1.6179,-1.6286,-1.6513,-1.658,-1.65,-1.6279,-1.6506,-1.6767,-1.7105,-1.7105,-1.7266,-1.7541,-1.7757,-1.7903,-1.8016,-1.7964,-1.8115,-1.837,-1.8122,-1.8167,-1.8422,-1.8422,-1.8629,-1.89,-1.9424,-1.9424,-1.9424,-1.9424,-1.9424,-1.9424,-1.9424,-1.9424,-1.9312,-1.9158,-1.9011,-1.8865,-1.8718,-1.8577,-1.849,-1.849,-1.835,-1.8257,-1.8257,-1.7976,-1.7802,-1.7802,-1.7662,-1.7582,-1.7582,-1.7582,-1.7508,-1.7407,-1.7407,-1.7259,-1.6914,-1.6914,-1.676,-1.648,-1.648,-1.6319,-1.6039,-1.6039,-1.5959,-1.5784,-1.5784,-1.5784,-1.5784,-1.5784,-1.5784,-1.5784,-1.5784,-1.5784,-1.5851,-1.6346,-1.6486,-1.6506,-1.673,-1.6506,-1.6226,-1.6099,-1.5952,-1.5784,-1.5784,-1.5784,-1.5784,-1.5784,-1.5784,-1.5784,-1.5784,-1.5784,-1.5784,-1.5784,-1.5784,-1.5784,-1.5784,-1.5784,-1.5784,-1.5784,-1.5784,-1.5784,-1.5784,-1.5784,-1.5784,-1.5784,-1.5784,-1.5784,-1.5784,-1.5959,-1.6039,-1.6039,-1.6172,-1.6246,-1.6246,-1.6246,-1.6319,-1.6473,-1.648,-1.6553,-1.6707,-1.6847,-1.6891,-1.6744,-1.6898,-1.7119,-1.7407,-1.7517,-1.7598,-1.7635,-1.801,-1.8122,-1.803,-1.8333,-1.8517,-1.866,-1.8604,-1.872,-1.8848,-1.8848,-1.895,-1.9134,-1.9424,-1.9424,-1.9424,-1.9424,-1.9424,-1.9424,-1.9424,-1.9424,-1.9424,-1.9424,-1.9152,-1.8998,-1.8998,-1.8784,-1.8637,-1.8637,-1.8591,-1.8564,-1.8564,-1.829,-1.8069,-1.8069,-1.7876,-1.7716,-1.7662,-1.7662,-1.7635,-1.7582,-1.7582,-1.7514,-1.728,-1.728,-1.7092,-1.6707,-1.6707,-1.652,-1.6192,-1.6192,-1.6052,-1.5784,-1.5784,-1.5784,-1.5784,-1.5784,-1.5784,-1.5784,-1.5784,-1.5865,-1.5945,-1.6192,-1.6433,-1.66,-1.6406,-1.644,-1.6466,-1.6032,-1.5824,-1.5784,-1.5784,-1.5784,-1.5784,-1.5784,-1.5784,-1.5784,-1.5784,-1.5784,-1.5784,-1.5784,-1.5784,-1.5784,-1.5784,-1.5784,-1.5784,-1.5784,-1.5784,-1.5784,-1.5784,-1.5784,-1.5784,-1.5784,-1.5872,-1.5905,-1.5905,-1.6172,-1.6346,-1.6346,-1.6567,-1.6707,-1.6707,-1.6707,-1.6727,-1.678,-1.678,-1.6807,-1.6854,-1.7152,-1.728,-1.728,-1.728,-1.74,-1.7635,-1.7852,-1.7852,-1.7687,-1.8213,-1.8325,-1.8202,-1.8712,-1.901,-1.9081,-1.9234,-1.9336,-1.9404,-1.9294,-1.9362,-1.9496,-1.9424,-1.9424,-1.9424,-1.9424,-1.9424,-1.9424,-1.9424,-1.9424,-1.9424,-1.9424,-1.9332,-1.9305,-1.9305,-1.9272,-1.931,-1.931,-1.9011,-1.8865,-1.8865,-1.8591,-1.843,-1.843,-1.839,-1.825,-1.7935,-1.7929,-1.7849,-1.7582,-1.7582,-1.7562,-1.7522,-1.7522,-1.7235,-1.6707,-1.6707,-1.64,-1.5885,-1.5885,-1.5818,-1.5784,-1.5784,-1.5784,-1.5784,-1.5784,-1.5784,-1.5784,-1.5784,-1.5999,-1.6219,-1.6259,-1.6299,-1.6366,-1.658,-1.6326,-1.5985,-1.6159,-1.6032,-1.5784,-1.5784,-1.5784,-1.5784,-1.5784,-1.5784,-1.5784,-1.5784,-1.5784,-1.5784,-1.5784,-1.5784,-1.5784,-1.5784,-1.5784,-1.5784,-1.5784,-1.5784,-1.5784,-1.5784,-1.5784,-1.5784,-1.5784,-1.6052,-1.6213,-1.6213,-1.648,-1.6647,-1.6647,-1.6687,-1.6707,-1.6707,-1.6707,-1.682,-1.7132,-1.7139,-1.7259,-1.7462,-1.7502,-1.7522,-1.7522,-1.7522,-1.7542,-1.7582,-1.7635,-1.7747,-1.7964,-1.8265,-1.8541,-1.8786,-1.9099,-1.942,-1.965,-1.9427,-1.9466,-1.9713,-1.9434,-1.9652,-2.0088,-1.9424,-1.9424,-1.9424,-1.9424,-1.9424,-1.9424,-1.9424,-1.9424,-1.9424,-1.9424,-1.9424,-1.9424,-1.9424,-1.9424,-1.9424,-1.9424,-1.9245,-1.9172,-1.9172,-1.8898,-1.8731,-1.8731,-1.8577,-1.843,-1.8297,-1.8075,-1.7922,-1.7842,-1.7669,-1.7582,-1.7582,-1.7582,-1.7442,-1.7188,-1.7027,-1.672,-1.6306,-1.6146,-1.5979,-1.5784,-1.5784,-1.5784,-1.5784,-1.5784,-1.5784,-1.5784,-1.5784,-1.5912,-1.6079,-1.6406,-1.6406,-1.6375,-1.6613,-1.6413,-1.6072,-1.6039,-1.5932,-1.5784,-1.5784,-1.5784,-1.5784,-1.5784,-1.5784,-1.5784,-1.5784,-1.5784,-1.5784,-1.5784,-1.5784,-1.5784,-1.5784,-1.5784,-1.5784,-1.5784,-1.5784,-1.5784,-1.5784,-1.5784,-1.5892,-1.6059,-1.6333,-1.6513,-1.6513,-1.678,-1.7005,-1.7005,-1.7108,-1.7194,-1.7194,-1.7194,-1.7255,-1.744,-1.744,-1.7507,-1.7582,-1.7756,-1.7842,-1.7842,-1.8009,-1.7916,-1.7635,-1.7747,-1.7799,-1.7799,-1.8436,-1.8548,-1.8478,-1.9392,-1.9708,-1.9584,-1.9939,-2.0077,-1.9989,-1.9454,-1.979,-2.0464]},{"header":{"parameterUnit":"m.s-1","parameterCategory":1,"la1":30.6,"la2":28.766,"lo1":-90.7593,"lo2":-88.6598,"dy":0.0162,"dx":0.0183,"nx":116,"ny":114,"refTime":"2024-03-05T18:00:00:Z","depth":0,"parameterNumber":3,"parameterNumberName":"V-component_of_WINDS"},"data":[0.0,0.0,0.0,0.0,0.0,0.0,0.0,0.0,0.0,0.0,0.0,0.0,0.0,0.0,0.0,0.0,0.0,0.0,0.0,0.0,0.0,0.0,0.0,0.0,0.0,0.0,0.0,0.0,0.0,0.0,0.0,0.0,0.0,0.0,0.0,0.0,0.0,0.0,0.0,0.0,0.0,0.0,0.0,0.0,0.0,0.0,0.0,0.0,0.0,0.0,0.0,0.0,0.0,0.0,0.0,0.0,0.0,0.0,0.0,0.0,0.0,0.0,0.0,0.0,0.0,0.0,0.0,0.0,0.0,0.0,0.0,0.0,0.0,0.0,0.0,0.0,0.0,0.0,0.0,0.0,0.0,0.0,0.0,0.0,0.0,0.0,0.0,0.0,0.0,0.0,0.0,0.0,0.0,0.0,0.0,0.0,0.0,0.0,0.0,0.0,0.0,0.0,0.0,0.0,0.0,0.0,0.0,0.0,0.0,0.0,0.0,0.0,0.0,0.0,0.0,0.0,0.0,0.0,0.0,0.0,0.0,0.0,0.0,0.0,0.0,0.0,0.0,0.0,0.0,0.0,0.0,0.0,0.0,0.0,0.0,0.0,0.0,0.0,0.0,0.0,0.0,0.0,0.0,0.0,0.0,0.0,0.0,0.0,0.0,0.0,0.0,0.0,0.0,0.0,0.0,0.0,0.0,0.0,0.0,0.0,0.0,0.0,0.0,0.0,0.0,0.0,0.0,0.0,0.0,0.0,0.0,0.0,0.0,0.0,0.0,0.0,0.0,0.0,0.0,0.0,0.0,0.0,0.0,0.0,0.0,0.0,0.0,0.0,0.0,0.0,0.0,0.0,0.0,0.0,0.0,0.0,0.0,0.0,0.0,0.0,0.0,0.0,0.0,0.0,0.0,0.0,0.0,0.0,0.0,0.0,0.0,0.0,0.0,0.0,0.0,0.0,0.0,0.0,0.0,0.0,0.0,0.0,0.0,0.0,0.0,0.0,0.0,0.0,0.0,0.0,0.0,0.0,0.0,0.0,0.0,0.0,0.0,0.0,0.0,0.0,0.0,0.0,0.0,0.0,0.0,0.0,0.0,0.0,0.0,0.0,0.0,0.0,0.0,0.0,0.0,0.0,0.0,0.0,0.0,0.0,0.0,0.0,0.0,0.0,0.0,0.0,0.0,0.0,0.0,0.0,0.0,0.0,0.0,0.0,0.0,0.0,0.0,0.0,0.0,0.0,0.0,0.0,0.0,0.0,0.0,0.0,0.0,0.0,0.0,0.0,0.0,0.0,0.0,0.0,0.0,0.0,0.0,0.0,0.0,0.0,0.0,0.0,0.0,0.0,0.0,0.0,0.0,0.0,0.0,0.0,0.0,0.0,0.0,0.0,0.0,0.0,0.0,0.0,0.0,0.0,0.0,0.0,0.0,0.0,0.0,0.0,0.0,0.0,0.0,0.0,0.0,0.0,0.0,0.0,0.0,0.0,0.0,0.0,0.0,0.0,0.0,0.0,0.0,0.0,0.0,0.0,0.0,0.0,0.0,0.0,0.0,0.0,0.0,0.0,0.0,0.0,0.0,0.0,0.0,0.0,0.0,0.0,0.0,0.0,0.0,0.0,0.0,0.0,0.0,0.0,0.0,0.0,0.0,0.0,0.0,0.0,0.0,0.0,0.0,0.0,0.0,0.0,0.0,0.0,0.0,0.0,0.0,0.0,0.0,0.0,0.0,0.0,0.0,0.0,0.0,0.0,0.0,0.0,0.0,0.0,0.0,0.0,0.0,0.0,0.0,0.0,0.0,0.0,0.0,0.0,0.0,0.0,0.0,0.0,0.0,0.0,0.0,0.0,0.0,0.0,0.0,0.0,0.0,0.0,0.0,0.0,0.0,0.0,0.0,0.0,0.0,0.0,0.0,0.0,0.0,0.0,0.0,0.0,0.0,0.0,0.0,0.0,0.0,0.0,0.0,0.0,0.0,0.0,0.0,0.0,0.0,0.0,0.0,0.0,0.0,0.0,0.0,0.0,0.0,0.0,0.0,0.0,0.0,0.0,0.0,0.0,0.0,0.0,0.0,0.0,0.0,0.0,0.0,0.0,0.0,0.0,0.0,0.0,0.0,0.0,0.0,0.0,0.0,0.0,0.0,0.0,0.0,0.0,0.0,0.0,0.0,0.0,0.0,0.0,0.0,0.0,0.0,0.0,0.0,0.0,0.0,0.0,0.0,0.0,0.0,0.0,0.0,0.0,0.0,0.0,0.0,0.0,0.0,0.0,0.0,0.0,0.0,0.0,0.0,0.0,0.0,0.0,0.0,0.0,0.0,0.0,0.0,0.0,0.0,0.0,0.0,0.0,0.0,0.0,0.0,0.0,0.0,0.0,0.0,0.0,0.0,0.0,0.0,0.0,0.0,0.0,0.0,0.0,0.0,0.0,0.0,0.0,0.0,0.0,0.0,0.0,0.0,0.0,0.0,0.0,0.0,0.0,0.0,0.0,0.0,0.0,0.0,0.0,0.0,0.0,0.0,0.0,0.0,0.0,0.0,0.0,0.0,0.0,0.0,0.0,0.0,0.0,0.0,0.0,0.0,0.0,0.0,0.0,0.0,0.0,0.0,0.0,0.0,0.0,0.0,0.0,0.0,0.0,0.0,0.0,0.0,0.0,0.0,0.0,0.0,0.0,0.0,0.0,0.0,0.0,0.0,0.0,0.0,0.0,0.0,0.0,0.0,0.0,0.0,0.0,0.0,0.0,0.0,0.0,0.0,0.0,0.0,0.0,0.0,0.0,0.0,0.0,0.0,0.0,0.0,0.0,0.0,0.0,0.0,0.0,0.0,0.0,0.0,0.0,0.0,0.0,0.0,0.0,0.0,0.0,0.0,0.0,0.0,0.0,0.0,0.0,0.0,0.0,0.0,0.0,0.0,0.0,0.0,0.0,0.0,0.0,0.0,0.0,0.0,0.0,0.0,0.0,0.0,0.0,0.0,0.0,0.0,0.0,0.0,0.0,0.0,0.0,0.0,0.0,0.0,0.0,0.0,0.0,0.0,0.0,0.0,0.0,0.0,0.0,0.0,0.0,0.0,0.0,0.0,0.0,0.0,0.0,0.0,0.0,0.0,0.0,0.0,0.0,0.0,0.0,0.0,0.0,0.0,0.0,0.0,0.0,0.0,0.0,0.0,0.0,0.0,0.0,0.0,0.0,0.0,0.0,0.0,0.0,0.0,0.0,0.0,0.0,0.0,0.0,0.0,0.0,0.0,0.0,0.0,0.0,0.0,0.0,0.0,0.0,0.0,0.0,0.0,0.0,0.0,0.0,0.0,0.0,0.0,0.0,0.0,0.0,0.0,0.0,0.0,0.0,0.0,0.0,0.0,0.0,0.0,0.0,0.0,0.0,0.0,0.0,0.0,0.0,0.0,0.0,0.0,0.0,0.0,0.0,0.0,0.0,0.0,0.0,0.0,0.0,0.0,0.0,0.0,0.0,0.0,0.0,0.0,0.0,0.0,0.0,0.0,0.0,0.0,0.0,0.0,0.0,0.0,0.0,0.0,0.0,0.0,0.0,0.0,0.0,0.0,0.0,0.0,0.0,0.0,0.0,0.0,0.0,0.0,0.0,0.0,0.0,0.0,0.0,0.0,0.0,0.0,0.0,0.0,0.0,0.0,0.0,0.0,0.0,0.0,0.0,0.0,0.0,0.0,0.0,0.0,0.0,0.0,0.0,0.0,0.0,0.0,0.0,0.0,0.0,0.0,0.0,0.0,0.0,0.0,0.0,0.0,0.0,0.0,0.0,0.0,0.0,0.0,0.0,0.0,0.0,0.0,0.0,0.0,0.0,0.0,0.0,0.0,0.0,0.0,0.0,0.0,0.0,0.0,0.0,0.0,0.0,0.0,0.0,0.0,0.0,0.0,0.0,0.0,0.0,0.0,0.0,0.0,0.0,0.0,0.0,0.0,0.0,0.0,0.0,0.0,0.0,0.0,0.0,0.0,0.0,0.0,0.0,0.0,0.0,0.0,0.0,0.0,0.0,0.0,0.0,0.0,0.0,0.0,0.0,0.0,0.0,0.0,0.0,0.0,0.0,0.0,0.0,0.0,0.0,0.0,0.0,0.0,0.0,0.0,0.0,0.0,0.0,0.0,0.0,0.0,0.0,0.0,0.0,0.0,0.0,0.0,0.0,0.0,0.0,0.0,0.0,0.0,0.0,0.0,0.0,0.0,0.0,0.0,0.0,0.0,0.0,0.0,0.0,0.0,0.0,0.0,0.0,0.0,0.0,0.0,0.0,0.0,0.0,0.0,0.0,0.0,0.0,0.0,0.0,0.0,0.0,0.0,0.0,0.0,0.0,0.0,0.0,0.0,0.0,0.0,0.0,0.0,0.0,0.0,0.0,0.0,0.0,0.0,0.0,0.0,0.0,0.0,0.0,0.0,0.0,0.0,0.0,0.0,0.0,0.0,0.0,0.0,0.0,0.0,0.0,0.0,0.0,0.0,0.0,0.0,0.0,0.0,0.0,0.0,0.0,0.0,0.0,0.0,0.0,0.0,0.0,0.0,0.0,0.0,0.0,0.0,0.0,0.0,0.0,0.0,0.0,0.0,0.0,0.0,0.0,0.0,0.0,0.0,0.0,0.0,0.0,0.0,0.0,0.0,0.0,0.0,0.0,0.0,0.0,0.0,0.0,0.0,0.0,0.0,0.0,0.0,0.0,0.0,0.0,0.0,0.0,0.0,0.0,0.0,0.0,0.0,0.0,0.0,0.0,0.0,0.0,0.0,0.0,0.0,0.0,0.0,0.0,0.0,0.0,0.0,0.0,0.0,0.0,0.0,0.0,0.0,0.0,0.0,0.0,0.0,0.0,0.0,0.0,0.0,0.0,0.0,0.0,0.0,0.0,0.0,0.0,0.0,0.0,0.0,0.0,0.0,0.0,0.0,0.0,0.0,0.0,0.0,0.0,0.0,0.0,0.0,0.0,0.0,0.0,0.0,0.0,0.0,0.0,0.0,0.0,0.0,0.0,0.0,0.0,0.0,0.0,0.0,0.0,0.0,0.0,0.0,0.0,0.0,0.0,0.0,0.0,0.0,0.0,0.0,0.0,0.0,0.0,0.0,0.0,0.0,0.0,0.0,0.0,0.0,0.0,0.0,0.0,0.0,0.0,0.0,0.0,0.0,0.0,0.0,0.0,0.0,0.0,0.0,0.0,0.0,0.0,0.0,0.0,0.0,0.0,0.0,0.0,0.0,0.0,0.0,0.0,0.0,0.0,0.0,0.0,0.0,0.0,0.0,0.0,0.0,0.0,0.0,0.0,0.0,0.0,0.0,0.0,0.0,0.0,0.0,0.0,0.0,0.0,0.0,0.0,0.0,0.0,0.0,0.0,0.0,0.0,0.0,0.0,0.0,0.0,0.0,0.0,0.0,0.0,0.0,0.0,0.0,0.0,0.0,0.0,0.0,0.0,0.0,0.0,0.0,0.0,0.0,0.0,0.0,0.0,0.0,0.0,0.0,0.0,0.0,0.0,0.0,0.0,0.0,0.0,0.0,0.0,0.0,0.0,0.0,0.0,0.0,0.0,0.0,0.0,0.0,0.0,0.0,0.0,0.0,0.0,0.0,0.0,0.0,0.0,0.0,0.0,0.0,0.0,0.0,0.0,0.0,0.0,0.0,0.0,0.0,0.0,0.0,0.0,0.0,0.0,0.0,0.0,0.0,0.0,0.0,0.0,0.0,0.0,0.0,0.0,0.0,0.0,0.0,0.0,0.0,0.0,0.0,0.0,0.0,0.0,0.0,0.0,0.0,0.0,0.0,0.0,0.0,0.0,0.0,0.0,0.0,0.0,0.0,0.0,0.0,0.0,0.0,0.0,0.0,0.0,0.0,0.0,0.0,0.0,0.0,0.0,0.0,0.0,0.0,0.0,0.0,0.0,0.0,0.0,0.0,0.0,0.0,0.0,0.0,0.0,0.0,0.0,0.0,0.0,0.0,0.0,0.0,0.0,0.0,0.0,0.0,0.0,0.0,0.0,0.0,0.0,0.0,0.0,0.0,0.0,0.0,0.0,0.0,0.0,0.0,0.0,0.0,0.0,0.0,0.0,2.8952,0.0,0.0,0.0,0.0,0.0,0.0,0.0,0.0,0.0,0.0,0.0,0.0,0.0,0.0,0.0,0.0,0.0,0.0,0.0,0.0,0.0,0.0,0.0,0.0,0.0,0.0,0.0,0.0,0.0,0.0,0.0,0.0,0.0,0.0,0.0,0.0,0.0,3.1683,3.1683,3.1365,3.1029,3.0671,2.9263,2.7715,2.6148,0.0,0.0,0.0,0.0,0.0,0.0,0.0,0.0,0.0,0.0,0.0,0.0,0.0,0.0,0.0,0.0,0.0,0.0,0.0,0.0,0.0,0.0,0.0,0.0,0.0,0.0,0.0,0.0,0.0,0.0,0.0,0.0,0.0,0.0,0.0,0.0,0.0,0.0,0.0,0.0,0.0,0.0,0.0,0.0,0.0,0.0,0.0,0.0,0.0,0.0,0.0,0.0,0.0,0.0,0.0,0.0,0.0,0.0,0.0,0.0,0.0,0.0,0.0,0.0,0.0,0.0,0.0,0.0,0.0,0.0,3.1415,2.9752,0.0,0.0,0.0,0.0,0.0,0.0,0.0,0.0,0.0,0.0,0.0,0.0,0.0,0.0,0.0,0.0,0.0,0.0,0.0,0.0,0.0,0.0,0.0,3.1491,3.2616,3.2736,3.2886,3.3171,0.0,0.0,0.0,0.0,0.0,3.3635,3.3499,3.3604,3.3664,3.3664,3.324,3.2785,3.2378,3.2217,3.1268,2.9662,2.8384,0.0,0.0,0.0,0.0,0.0,0.0,0.0,0.0,0.0,0.0,0.0,0.0,0.0,0.0,0.0,0.0,0.0,0.0,0.0,0.0,0.0,0.0,0.0,0.0,0.0,0.0,0.0,0.0,0.0,0.0,0.0,0.0,0.0,0.0,0.0,0.0,0.0,0.0,0.0,0.0,0.0,0.0,0.0,0.0,0.0,0.0,0.0,0.0,0.0,0.0,0.0,0.0,0.0,0.0,0.0,0.0,0.0,0.0,0.0,0.0,0.0,0.0,0.0,3.5095,3.5922,3.6243,3.6319,3.6609,3.6883,3.3969,3.2735,3.264,3.0929,0.0,0.0,0.0,0.0,0.0,0.0,0.0,0.0,0.0,0.0,0.0,0.0,0.0,0.0,0.0,0.0,0.0,0.0,0.0,0.0,0.0,3.2076,3.3167,3.3743,3.4319,3.4728,3.4819,0.0,3.4409,3.3789,3.4255,3.4208,3.3514,3.4053,3.4384,3.4384,3.4872,3.5356,3.5841,3.5807,3.5659,3.5269,3.1421,2.941,2.8882,0.0,0.0,0.0,0.0,0.0,0.0,0.0,0.0,0.0,0.0,0.0,0.0,0.0,0.0,0.0,0.0,0.0,0.0,0.0,0.0,0.0,0.0,0.0,0.0,0.0,0.0,0.0,0.0,0.0,0.0,0.0,0.0,0.0,0.0,0.0,0.0,0.0,0.0,0.0,0.0,0.0,3.5633,3.63,0.0,0.0,0.0,0.0,0.0,0.0,0.0,0.0,0.0,0.0,0.0,0.0,0.0,3.4985,3.4591,3.6553,3.7063,3.6076,3.767,3.7826,3.6737,3.7313,3.7297,3.6878,3.7305,0.0,3.5514,3.4667,0.0,0.0,0.0,0.0,0.0,0.0,0.0,0.0,0.0,0.0,0.0,0.0,0.0,0.0,0.0,0.0,0.0,0.0,0.0,0.0,0.0,3.3842,3.5237,3.5535,3.6238,3.6601,3.6587,3.6211,3.6009,3.606,3.6296,3.6117,3.5431,3.6444,3.6816,3.6475,3.6368,3.631,3.6202,3.6496,3.6595,3.6532,3.4938,3.3252,3.1632,3.1269,0.0,0.0,0.0,0.0,0.0,0.0,0.0,0.0,0.0,0.0,0.0,0.0,0.0,0.0,0.0,0.0,0.0,0.0,0.0,0.0,0.0,0.0,0.0,0.0,0.0,0.0,0.0,0.0,0.0,0.0,0.0,0.0,0.0,0.0,0.0,0.0,0.0,0.0,0.0,3.4483,3.5318,3.5198,3.4909,3.433,0.0,0.0,0.0,0.0,0.0,0.0,0.0,0.0,0.0,3.607,3.6562,3.7026,3.7571,3.9239,3.9428,3.8181,3.9655,3.9813,3.8842,3.9114,3.9082,3.8858,3.9326,3.9139,3.8384,3.6415,3.511,3.4075,0.0,0.0,0.0,0.0,3.0879,3.1649,0.0,0.0,0.0,0.0,0.0,0.0,0.0,0.0,0.0,0.0,0.0,0.0,3.3165,3.5465,3.7074,3.7444,3.7798,3.8059,3.8194,3.7387,3.713,3.762,3.7402,3.7157,3.6878,3.8016,3.8396,3.7961,3.7623,3.7216,3.6738,3.7256,3.7481,3.7497,3.7637,3.65,3.446,3.4053,3.3009,3.1563,0.0,0.0,0.0,0.0,0.0,0.0,0.0,0.0,0.0,0.0,0.0,0.0,0.0,0.0,0.0,0.0,0.0,0.0,0.0,0.0,0.0,0.0,0.0,0.0,0.0,0.0,0.0,0.0,0.0,0.0,0.0,0.0,0.0,0.0,0.0,0.0,0.0,3.5447,3.6091,3.5498,3.6038,3.5918,0.0,0.0,0.0,0.0,0.0,0.0,3.6039,3.6159,3.6998,3.8649,3.8769,3.9314,4.0296,4.1309,4.116,3.9852,4.0772,4.0834,4.0105,4.0105,4.0105,4.0121,4.0229,4.028,4.0094,3.7791,3.6755,3.6368,3.3957,3.3555,3.4125,3.2554,3.2334,3.285,0.0,0.0,0.0,0.0,0.0,0.0,0.0,0.0,0.0,0.0,0.0,3.3322,3.4887,3.6388,3.7815,3.9165,3.8651,3.8586,3.9266,3.7991,3.7176,3.7153,3.6355,3.6181,3.6794,3.7486,3.7841,3.7812,3.8424,3.8697,3.8681,3.9352,3.9639,3.9609,3.8886,3.8055,3.7112,3.5905,3.5322,3.5021,3.2452,0.0,0.0,0.0,0.0,0.0,0.0,0.0,0.0,0.0,0.0,0.0,0.0,0.0,0.0,0.0,0.0,0.0,0.0,0.0,0.0,0.0,0.0,0.0,0.0,0.0,0.0,0.0,0.0,0.0,0.0,0.0,0.0,0.0,0.0,0.0,0.0,0.0,0.0,4.0067,4.0438,0.0,0.0,0.0,0.0,3.7588,3.7415,3.7853,3.9185,3.9266,3.993,4.1355,4.1719,4.2062,4.2454,4.2446,4.1919,4.084,4.0595,4.0073,3.9361,3.9361,3.9361,3.9367,3.9773,3.9944,3.9899,3.9424,3.8859,3.8088,3.6238,3.5348,3.5072,3.4595,3.4648,3.4949,0.0,0.0,0.0,0.0,0.0,0.0,0.0,0.0,3.1276,3.1686,3.34,3.5021,3.6102,3.7945,3.9313,3.9804,4.0054,4.0087,3.9871,3.937,3.9044,3.9044,3.8726,3.8899,3.9605,3.9056,3.8987,3.9411,3.9217,3.8901,3.8495,3.9028,3.9289,3.9308,3.9849,3.9686,3.8898,3.7379,3.6252,3.5429,3.4472,3.3408,0.0,0.0,0.0,0.0,0.0,0.0,0.0,0.0,0.0,0.0,0.0,0.0,0.0,0.0,0.0,0.0,0.0,0.0,0.0,0.0,0.0,0.0,0.0,0.0,0.0,0.0,0.0,0.0,0.0,0.0,0.0,0.0,0.0,0.0,0.0,0.0,0.0,4.0409,4.091,0.0,4.0092,3.9594,3.9385,3.9465,4.0229,4.0696,4.0717,4.1161,4.1654,4.215,4.2314,4.24,4.2528,4.2518,4.1865,4.0562,4.047,4.0011,3.9299,3.9299,3.9299,3.9315,3.9445,3.9506,3.9506,3.9364,3.8923,3.8234,3.7153,3.6373,3.5774,3.5158,3.4997,3.5037,0.0,0.0,0.0,0.0,0.0,0.0,0.0,0.0,3.2276,3.2628,3.4624,3.6299,3.7077,3.8928,4.0299,4.0807,4.0815,4.0832,4.084,4.0146,3.9842,4.0146,4.04,4.0493,4.046,4.0375,4.0414,4.0608,4.0414,4.0087,3.9671,3.9963,4.012,4.0124,4.0751,4.0874,4.0595,3.9203,3.7816,3.6547,3.6097,3.5209,3.3993,0.0,0.0,0.0,0.0,0.0,0.0,0.0,0.0,0.0,0.0,0.0,0.0,0.0,0.0,0.0,0.0,0.0,0.0,0.0,0.0,0.0,0.0,0.0,0.0,0.0,0.0,0.0,0.0,0.0,0.0,0.0,0.0,0.0,0.0,0.0,4.0647,4.0442,4.1425,4.1889,4.1177,4.1094,4.121,4.1458,4.2121,4.239,4.2142,4.2605,4.287,4.287,4.287,4.2738,4.2489,4.2241,4.1598,4.0567,4.0334,4.0014,3.967,3.967,3.967,3.967,3.967,3.9527,3.9309,3.9309,3.8742,3.787,3.7814,3.717,3.6252,3.5885,3.5589,3.5308,0.0,0.0,0.0,0.0,0.0,0.0,0.0,3.1853,3.2598,3.3322,3.5385,3.7117,3.7845,3.924,4.0697,4.2163,4.0976,4.0756,4.2197,4.0282,3.9466,4.033,4.1061,4.0722,3.9172,4.1247,4.1991,4.1264,4.1974,4.2286,4.2286,4.2286,4.2286,4.226,4.1588,4.1618,4.2144,4.1407,4.0207,3.8745,3.7337,3.7052,3.7229,0.0,0.0,0.0,0.0,0.0,0.0,0.0,0.0,0.0,0.0,0.0,0.0,0.0,0.0,0.0,0.0,0.0,0.0,0.0,0.0,0.0,0.0,0.0,0.0,0.0,0.0,0.0,0.0,0.0,0.0,0.0,0.0,0.0,3.8377,4.0117,4.1254,4.0669,4.2398,4.3393,4.2713,4.2597,4.2879,4.3591,4.2978,4.2895,4.3608,4.3658,4.3658,4.3658,4.3625,4.326,4.2514,4.1768,4.1216,4.0884,4.022,4.0096,4.04,4.04,4.04,4.04,4.04,3.9983,3.9327,3.931,3.8406,3.7155,3.8239,3.7764,3.6514,3.6843,3.6517,3.5907,0.0,0.0,0.0,0.0,0.0,0.0,3.119,3.2273,3.3169,3.3372,3.5859,3.7823,3.8424,3.9807,4.1023,4.1857,4.1576,4.1506,4.1903,4.1366,4.1265,4.1715,4.2174,4.238,4.2268,4.2937,4.3124,4.2726,4.2431,4.2286,4.2286,4.2286,4.2286,4.2303,4.2654,4.2629,4.2369,4.2686,4.2552,4.1907,3.9897,3.8839,3.8308,0.0,0.0,0.0,0.0,0.0,0.0,0.0,0.0,0.0,0.0,0.0,0.0,0.0,0.0,0.0,0.0,0.0,0.0,0.0,0.0,0.0,0.0,0.0,0.0,0.0,0.0,0.0,0.0,0.0,0.0,0.0,3.9815,4.0704,3.991,4.1482,4.3216,4.4653,4.466,4.4908,4.5823,4.4908,4.4332,4.4524,4.4366,4.4332,4.4524,4.4524,4.4524,4.4524,4.4016,4.3389,4.2644,4.1882,4.1172,4.0551,4.0347,4.0319,4.04,4.04,4.04,4.04,4.04,4.0297,4.0051,3.9515,3.873,3.7849,3.7557,3.6888,3.6082,3.6171,3.6078,3.5907,0.0,0.0,0.0,0.0,0.0,0.0,3.119,3.2188,3.3051,3.3372,3.5757,3.7562,3.7882,3.9393,4.0549,4.0885,4.1145,4.129,4.1269,4.1332,4.1743,4.2565,4.3131,4.355,4.3781,4.4481,4.4597,4.41,4.3786,4.3611,4.3558,4.3369,4.3278,4.3267,4.3707,4.3698,4.3342,4.376,4.4125,4.4218,4.262,4.1597,4.0952,3.9869,3.8753,3.7742,3.7449,3.6955,3.6461,3.6348,0.0,0.0,0.0,0.0,0.0,0.0,0.0,0.0,0.0,0.0,0.0,0.0,0.0,0.0,0.0,0.0,0.0,0.0,0.0,0.0,0.0,0.0,0.0,0.0,4.1854,4.2679,4.2234,4.336,4.4722,4.5992,4.5596,4.5585,4.6498,4.5757,4.5241,4.5241,4.5241,4.5188,4.5081,4.5081,4.49,4.4592,4.4137,4.3477,4.2496,4.2031,4.1526,4.0932,4.0932,4.1024,4.1202,4.1202,4.1202,4.1202,4.1202,4.096,4.0516,4.0117,3.9217,0.0,0.0,0.0,0.0,0.0,3.6371,3.6298,0.0,0.0,0.0,0.0,0.0,0.0,3.119,3.1836,3.2564,3.3305,3.5301,3.674,3.6945,3.8573,3.9723,3.9834,4.044,4.0798,4.0846,4.1055,4.1789,4.3188,4.4094,4.4596,4.4578,4.5881,4.62,4.5457,4.5543,4.5537,4.5407,4.4971,4.4748,4.4665,4.4665,4.4654,4.4615,4.4615,4.501,4.5645,4.5066,4.4602,4.4197,4.3474,4.2398,4.1148,4.0396,3.9326,3.824,3.812,0.0,0.0,0.0,0.0,0.0,0.0,0.0,0.0,0.0,0.0,0.0,0.0,0.0,0.0,0.0,0.0,0.0,0.0,0.0,0.0,0.0,0.0,0.0,0.0,4.3949,4.4963,4.5187,4.5705,4.6015,4.5914,4.587,4.5877,4.5947,4.5895,4.5843,4.5843,4.5843,4.5742,4.5511,0.0,0.0,0.0,0.0,4.3586,4.2364,4.2259,4.2053,4.1774,4.1774,4.1941,4.2308,4.2308,4.2308,4.2308,4.2308,4.1792,4.0949,4.0861,3.9838,3.8257,3.7746,3.7134,3.6585,3.6888,3.6937,3.6761,0.0,0.0,0.0,0.0,0.0,0.0,3.119,3.1836,3.2564,3.3305,3.4805,3.6363,3.779,3.8892,3.9862,4.0673,4.1486,4.2248,4.2886,4.3264,4.385,4.4746,4.5809,4.6561,4.6934,4.7342,4.7362,4.6978,4.6419,4.6123,4.6098,4.5893,4.5563,4.5161,4.5161,4.4944,4.4615,4.4615,4.501,4.5674,4.5542,4.5407,4.5078,4.3848,4.3073,4.259,4.1869,4.1421,4.1164,4.097,4.0224,3.9452,3.9877,3.9204,0.0,0.0,0.0,0.0,0.0,0.0,0.0,0.0,0.0,0.0,0.0,0.0,0.0,0.0,0.0,0.0,0.0,0.0,0.0,4.4715,4.5876,4.7122,4.8794,4.8601,4.8005,4.7231,4.692,4.6985,4.7583,4.711,4.6754,4.6754,4.6754,4.6731,4.6666,4.6666,4.6312,4.5491,4.4852,4.4072,4.3176,4.2576,4.2246,4.2187,0.0,0.0,4.2308,4.2308,4.2308,4.2308,4.2308,4.2198,4.1958,4.1317,4.0497,3.9477,3.7769,3.7031,3.6908,3.6987,3.6584,3.6003,0.0,0.0,0.0,0.0,0.0,0.0,3.1092,3.1455,3.2002,3.2747,3.4346,3.5589,3.6046,3.7574,3.8634,3.8787,4.0215,4.1607,4.2818,4.3468,4.4309,4.5511,4.6497,4.7314,4.7937,4.8031,4.8167,4.8393,4.7694,4.7328,4.7299,4.6892,4.6335,4.5699,4.5699,4.558,4.5337,4.5062,4.5166,4.5497,4.5224,4.5113,4.5016,4.4669,4.4007,4.3257,4.3166,4.3152,4.3133,4.2954,4.2502,4.2006,4.2259,4.1671,4.0702,0.0,0.0,0.0,0.0,0.0,0.0,0.0,0.0,0.0,0.0,0.0,0.0,0.0,0.0,4.2311,4.331,0.0,4.5378,4.7038,4.7665,4.8167,4.8818,4.855,4.8269,4.8225,4.7712,4.7499,4.7855,4.7571,4.7356,4.7356,4.7356,4.7294,4.716,4.6766,4.6193,4.5387,4.4617,4.3852,4.3147,4.2771,4.2611,4.2611,4.2611,4.2611,4.2611,4.2611,4.2611,4.2611,4.2611,4.2532,4.2378,4.1471,4.0877,4.036,3.8599,3.79,3.7847,3.7457,3.705,3.6589,0.0,0.0,0.0,0.0,0.0,0.0,0.0,3.1075,3.1441,3.2209,3.3656,3.4482,3.4054,3.5819,3.6952,3.6744,3.864,4.0457,4.1906,4.3042,4.4307,4.5773,4.6598,4.7423,4.823,4.8267,4.865,4.9354,4.8825,4.8505,4.843,4.7879,4.7142,4.6262,4.6262,4.6213,4.6074,4.5622,4.5459,4.539,4.4763,4.4442,4.433,4.471,4.4248,4.346,4.3957,4.4018,4.3934,4.4083,4.4026,4.3942,4.4076,4.3836,4.3149,4.155,4.109,0.0,0.0,0.0,0.0,0.0,0.0,0.0,0.0,0.0,4.1561,4.2749,4.362,4.4627,4.6244,4.7165,4.8003,4.8974,4.9148,4.8912,4.8261,4.8043,4.8167,4.8818,4.8206,4.7717,4.7717,4.7717,4.7717,4.7717,4.7717,4.7615,4.7385,4.6611,4.5819,4.4988,4.4252,4.354,4.29,4.2901,4.2901,4.2901,4.2901,4.2901,4.2901,4.2901,4.2901,4.2901,4.2901,4.2805,4.2595,4.1773,4.1443,4.1282,3.9744,3.9118,3.901,3.797,3.7506,3.7166,0.0,0.0,0.0,0.0,0.0,0.0,0.0,0.0,3.1325,3.2188,3.2486,3.2974,3.3901,3.4612,3.5579,3.7012,3.8674,4.0002,4.0913,4.3068,4.4692,4.5586,4.6388,4.7209,4.8014,4.8149,4.8532,4.9234,4.9154,4.9089,4.9001,4.8808,4.803,4.6799,4.6799,4.6566,4.6116,4.6042,4.6,4.5898,4.4724,4.3846,4.315,4.2107,4.2422,4.3409,4.3494,4.3088,4.2689,4.3884,4.3844,4.344,4.408,4.4668,4.4719,4.273,0.0,4.1651,3.9437,3.9225,3.9893,4.0774,4.1231,4.2428,0.0,0.0,4.5988,4.8568,4.9197,4.9346,4.9571,4.9702,4.981,4.9945,4.9963,4.9949,4.9858,4.922,4.88,4.8891,4.8206,4.7717,4.7717,4.7717,4.7717,4.7717,4.7717,4.7696,4.7657,4.6897,4.6083,4.5269,4.4473,4.3696,4.2919,4.2901,4.2901,4.2901,4.2901,4.2901,4.2901,4.2901,4.2901,4.2901,4.2901,4.2882,4.2863,4.2735,4.2699,4.2536,4.0926,4.0312,4.0095,3.8276,3.7149,3.6506,0.0,0.0,0.0,0.0,0.0,0.0,0.0,0.0,0.0,3.1496,3.2185,3.2644,3.266,3.3491,3.4621,3.6015,3.8085,3.9727,4.0718,4.3488,4.5238,4.5585,4.6825,4.7664,4.7992,4.8506,4.9145,4.9885,5.0277,5.0489,5.0482,5.0351,4.9491,4.8047,4.8047,4.7514,4.6566,4.6238,4.5925,4.5519,4.4249,4.3549,4.3123,4.1722,4.1593,4.2134,4.2134,4.2202,0.0,4.2959,4.2662,4.2162,4.2915,4.3196,4.3131,4.2322,4.2215,0.0,4.1328,4.1256,0.0,0.0,4.3673,4.5263,4.7383,4.7767,4.8103,4.976,5.0452,5.0818,5.0818,5.1176,5.1176,0.0,5.0112,4.9764,4.884,4.8424,4.8185,4.8185,4.7895,4.7717,4.7717,4.7717,4.7717,4.7717,4.7717,4.75,4.7029,4.625,4.5436,4.4621,4.3806,4.3245,4.2901,4.2901,4.2901,4.2901,4.2901,4.2901,4.2901,4.2901,4.2976,4.3124,4.3124,4.3214,4.3373,4.3373,4.3373,4.3263,4.2109,4.165,4.1362,3.8864,3.7735,3.7375,0.0,0.0,0.0,0.0,0.0,0.0,0.0,0.0,0.0,0.0,3.1771,3.2181,3.1727,3.2509,3.3459,3.4455,3.6791,3.8672,3.9838,4.2903,4.5048,4.5798,4.6964,4.7802,4.8239,4.886,4.9552,5.0311,5.1027,5.1423,5.1437,5.1348,5.056,4.9238,4.9238,4.8572,4.7424,4.6885,4.6309,4.5621,4.4196,4.362,4.345,4.1814,4.1339,4.1474,4.1271,4.1349,4.1614,4.2022,4.1605,4.1058,4.1809,4.2001,4.1933,4.1549,4.1487,4.1655,4.2044,0.0,0.0,4.3745,4.5534,4.7343,4.8157,4.8822,4.9456,5.0253,5.0886,5.1212,5.0995,5.1448,5.1375,4.9981,4.9764,4.9275,4.7898,4.7717,4.7717,4.7717,4.7916,4.7932,4.7735,4.7717,4.7717,4.7717,4.7717,4.7355,4.654,4.5943,4.5164,4.4132,4.3516,4.3137,4.2901,4.2976,4.3013,4.3013,4.3087,4.3105,4.3105,4.3105,4.3232,4.3408,4.3408,4.3528,4.3695,4.3695,4.3695,4.3603,4.2567,4.2176,4.187,3.9335,3.8532,3.8622,0.0,0.0,0.0,0.0,0.0,0.0,0.0,0.0,0.0,0.0,0.0,0.0,0.0,3.1711,3.193,3.237,3.455,3.6409,3.7614,4.0656,4.3611,4.6359,4.6522,4.7283,4.884,4.9023,4.9422,5.0112,5.098,5.1379,5.1325,5.1285,5.085,5.0075,5.0075,4.9619,4.8793,4.8271,4.7581,4.6682,4.4898,4.4173,4.3967,4.1954,4.1644,4.2168,4.1457,4.0557,3.9898,4.1336,4.1105,4.0381,4.1158,4.191,0.0,4.0679,3.976,3.9484,4.0717,0.0,4.3695,4.4935,4.6465,4.8094,4.9655,5.0057,5.0293,5.1086,5.1267,5.1049,5.0293,5.0166,4.989,4.9054,4.8927,4.8637,4.7826,4.7717,4.7717,4.7717,4.8384,4.8547,0.0,4.7717,4.7717,4.7717,4.7717,4.7355,4.654,4.6486,4.5743,4.415,4.4077,4.3679,4.2919,4.316,4.3285,4.3285,4.3545,4.3679,4.3679,4.3679,4.3679,4.3679,4.3679,4.3695,4.3695,4.3695,4.3695,4.3529,4.1957,4.1329,4.1126,3.9486,3.9372,3.9941,0.0,0.0,0.0,0.0,0.0,0.0,0.0,0.0,0.0,0.0,0.0,0.0,0.0,0.0,0.0,0.0,3.4192,3.538,3.7082,3.9651,4.1896,4.3627,4.5189,4.6431,4.728,4.8412,4.9336,5.0112,5.0931,5.133,5.1303,5.1846,5.1375,5.013,5.0673,4.997,4.833,4.7784,4.6892,4.5705,4.4249,4.3656,4.3503,4.1841,4.1214,4.1133,0.0,3.9901,3.9641,3.9919,3.9442,3.8874,3.962,3.9898,3.9886,3.9722,4.0211,4.1039,4.2002,4.3448,4.5019,4.6517,4.7717,4.8786,4.9836,5.0112,5.0184,5.0456,5.0071,4.9619,4.9365,4.9311,4.9039,4.8221,4.8547,4.8619,4.7805,4.8149,4.8294,4.7751,4.8402,0.0,0.0,0.0,0.0,4.7732,4.721,4.6858,4.677,4.5748,4.5278,4.5479,4.4983,4.4561,4.4303,4.439,4.4148,4.3562,4.3662,4.3695,4.3695,4.3695,4.3793,4.3968,4.3968,4.4064,4.4233,4.4233,4.4233,4.4121,4.3052,4.2623,4.2417,4.0774,4.0325,4.041,0.0,0.0,0.0,0.0,0.0,0.0,0.0,0.0,0.0,0.0,0.0,0.0,0.0,0.0,0.0,0.0,0.0,3.4091,3.5813,3.8108,4.007,4.1629,4.3539,4.4839,4.5413,4.6587,4.7591,4.8369,4.9474,5.0162,5.047,5.1267,5.1,4.9848,5.0353,4.9554,4.7784,4.7249,4.6204,4.4819,4.3807,4.3359,4.3112,4.1912,4.1427,0.0,4.0083,3.9661,3.9599,3.9103,3.853,3.8155,3.8631,3.8626,3.8582,3.9209,4.0293,4.156,4.2936,4.4277,4.5689,4.7301,4.8098,4.8674,4.9492,4.9673,4.9582,4.9293,4.884,4.8294,4.7735,4.7862,4.779,4.6975,4.7518,4.7859,4.7355,4.7735,4.795,4.7735,4.8402,4.8565,0.0,0.0,0.0,4.7902,4.7357,4.708,4.7077,4.6379,4.6047,4.6202,4.5981,4.5722,4.5426,4.5214,4.474,4.3986,4.3986,4.3986,4.3986,4.3986,4.4079,4.4229,4.4229,4.4335,4.4501,4.4501,4.4501,4.4407,4.3613,4.3106,4.2675,4.1304,4.0609,4.0265,0.0,0.0,0.0,0.0,0.0,0.0,0.0,0.0,0.0,0.0,0.0,0.0,0.0,0.0,0.0,0.0,0.0,0.0,3.3874,3.5979,3.8122,4.0275,4.1481,4.2507,4.3334,4.377,4.4382,4.5196,4.677,4.7928,4.8685,4.9521,4.9599,4.9091,4.9127,4.8411,4.7151,4.663,4.5484,4.4044,4.3501,4.3121,4.2796,4.2105,4.2107,4.2236,4.0446,3.9788,3.9664,3.8841,3.8438,3.8263,3.8263,3.8299,3.848,3.9278,4.0075,4.118,4.3534,4.4784,4.5798,4.7319,4.7717,4.7916,4.8656,4.88,4.8547,4.7808,4.7551,4.7065,0.0,0.0,4.6271,4.551,4.6126,4.6726,4.6726,4.6726,4.6977,0.0,0.0,0.0,0.0,0.0,0.0,4.8135,0.0,4.7903,4.7496,4.8124,4.7828,4.6348,4.6995,4.6977,4.6181,4.5579,4.4995,4.4501,4.4501,4.4501,4.4501,4.4501,4.4501,4.4501,4.4501,4.4501,4.4501,4.4501,4.4501,4.4407,4.3613,4.2769,4.1911,4.1098,4.029,3.9589,0.0,0.0,0.0,0.0,0.0,0.0,0.0,0.0,0.0,0.0,0.0,0.0,0.0,0.0,0.0,0.0,0.0,0.0,3.3267,3.3866,3.5095,3.7085,3.8551,3.9962,4.1324,4.218,4.2997,4.3736,4.4843,4.535,4.528,4.6642,4.6891,4.62,4.6784,4.6535,4.5644,4.5101,4.3982,4.2526,4.198,4.1383,4.0848,4.102,4.0995,4.0779,4.0055,3.9674,3.9373,0.0,0.0,0.0,3.9079,3.946,4.0075,4.0872,4.2103,4.3444,4.4657,4.6015,4.7192,4.7609,4.7717,4.7753,4.795,4.7554,4.7065,4.6866,4.5852,4.4892,0.0,0.0,0.0,4.6592,4.8254,0.0,4.9816,4.9636,0.0,4.9282,0.0,4.9245,4.8456,4.8015,0.0,0.0,4.7682,4.7884,4.8554,4.7659,4.7292,4.7673,4.7299,4.67,4.584,4.508,4.4632,4.4501,4.4501,4.4501,4.4501,4.4501,4.4501,4.4501,4.4501,4.4501,4.4501,4.4501,4.4501,4.4407,4.3613,4.2769,4.1911,4.1098,4.029,3.9589,0.0,0.0,0.0,0.0,0.0,0.0,0.0,0.0,0.0,0.0,0.0,0.0,0.0,0.0,0.0,0.0,0.0,0.0,0.0,3.3317,3.4012,3.5169,3.6517,3.7637,3.8523,3.9262,4.0002,4.0789,4.1715,4.2259,4.2391,4.3691,4.391,4.3272,4.3733,4.3537,4.2895,4.2591,4.1772,0.0,0.0,4.0408,4.0014,4.0804,4.1125,4.1081,4.0744,4.0311,3.9876,0.0,0.0,4.0944,4.0944,4.1216,4.1651,4.2103,0.0,4.4729,4.5182,4.6468,4.7717,4.7717,4.7446,4.7174,4.7174,4.6558,4.587,4.5526,4.4729,0.0,4.3625,4.5438,0.0,0.0,0.0,0.0,4.9602,4.9732,4.9751,0.0,4.9343,0.0,4.8661,4.7937,4.7595,0.0,4.7311,4.7326,4.8093,4.7283,4.7045,4.765,4.7237,4.658,4.5716,4.5247,4.4838,4.4501,4.4501,4.4501,4.4501,4.4501,4.4501,4.4501,4.4501,4.4501,4.4501,4.4501,4.4501,4.4463,4.4008,4.3074,4.1948,4.1479,4.0591,3.9589,0.0,0.0,0.0,0.0,0.0,0.0,0.0,0.0,0.0,0.0,3.2315,0.0,0.0,0.0,0.0,0.0,0.0,0.0,0.0,0.0,3.3912,3.4135,3.5098,3.5696,3.5842,3.6197,3.6738,3.7415,3.8366,3.9142,3.98,4.074,4.0929,4.0485,4.0485,4.024,3.9808,3.9808,3.9385,3.8768,3.9622,3.9773,3.96,0.0,4.1696,4.207,4.1789,4.1325,0.0,0.0,4.2411,4.2919,4.3028,4.3118,4.3227,4.3227,4.4277,4.5454,4.5454,4.6558,4.7681,4.7572,4.7102,4.6613,4.6395,4.5798,4.5073,4.4258,0.0,4.3734,4.3028,4.5074,4.6433,4.5205,0.0,4.9646,4.841,4.8859,4.9211,4.8969,4.8952,4.881,4.8451,4.8006,4.769,4.7562,4.6744,4.6483,4.6978,4.7012,4.6955,4.6843,4.673,4.6317,4.5547,4.5547,4.519,4.4501,4.4501,4.4501,4.4501,4.4501,4.4501,4.4501,4.4501,4.4501,4.4501,4.4501,4.4501,4.4501,4.4501,4.3543,4.2155,4.2042,4.106,3.9758,0.0,0.0,0.0,0.0,0.0,0.0,0.0,0.0,0.0,0.0,3.2651,3.3889,0.0,0.0,0.0,0.0,0.0,0.0,0.0,0.0,0.0,3.3842,3.4066,3.4582,3.5459,3.5715,3.5893,3.5953,3.6913,3.7268,3.7087,3.7967,3.834,3.8244,3.8381,3.8374,3.8278,3.8278,3.7855,3.7303,3.8633,3.88,3.8418,4.0238,0.0,0.0,4.1676,0.0,0.0,4.3407,4.3317,4.3028,4.3679,4.4349,4.4874,4.4874,4.5544,4.6287,4.6287,4.6993,4.7554,4.6884,4.7102,4.7156,4.5816,4.5399,0.0,0.0,4.357,4.3082,4.2937,4.46,4.6232,4.6969,4.8742,5.0378,5.1409,5.0847,5.018,0.0,0.0,0.0,0.0,4.7452,0.0,0.0,4.5471,4.5594,4.6936,4.7012,4.6674,4.596,4.5284,4.4857,4.4707,4.4707,4.4632,4.4501,4.4501,4.4501,4.4501,4.4501,4.4501,4.4501,4.4501,0.0,4.4501,4.4501,4.4501,4.4501,4.4501,4.3933,4.2994,4.2267,4.1404,4.0591,0.0,0.0,0.0,0.0,0.0,0.0,0.0,2.9037,3.0135,3.1308,3.2813,3.3926,3.4382,3.5251,3.5638,0.0,0.0,0.0,0.0,0.0,0.0,0.0,3.4369,3.4612,3.5125,3.5224,3.527,3.5234,0.0,3.5923,3.5739,3.6226,3.6441,3.6458,3.6599,3.6645,3.6645,3.6675,3.6502,3.6315,3.7821,3.8227,3.8106,0.0,0.0,0.0,0.0,0.0,0.0,0.0,4.3824,4.3733,4.4965,4.5617,4.5852,4.5417,4.587,4.6504,4.6504,4.7102,4.7627,4.7228,4.7102,4.6757,4.5562,0.0,0.0,0.0,4.3173,4.2901,4.2901,4.4491,0.0,4.6057,4.8489,5.0341,5.0312,5.0775,0.0,0.0,0.0,0.0,0.0,4.6947,4.6518,4.6038,4.5249,4.5129,4.5863,4.59,4.5712,4.5297,4.49,4.4712,4.4712,4.4712,4.4712,4.4712,4.4712,4.4712,4.4712,4.4712,4.4712,4.4712,4.4712,4.4712,4.4712,4.4712,4.4712,4.4712,4.4712,4.4163,4.3358,4.2943,4.1932,4.0797,0.0,0.0,0.0,0.0,0.0,0.0,0.0,2.9062,3.0293,3.1805,3.3066,3.3892,3.4155,3.5485,3.6173,0.0,0.0,0.0,0.0,0.0,0.0,0.0,0.0,0.0,0.0,0.0,0.0,3.5131,3.5393,0.0,0.0,0.0,0.0,0.0,3.5467,3.5469,3.5492,3.5549,3.5577,0.0,0.0,3.7905,0.0,0.0,0.0,0.0,0.0,0.0,0.0,0.0,4.4095,4.4277,4.5381,4.5979,4.6087,4.5273,4.5725,4.6504,4.6504,4.7102,4.7663,4.75,4.7102,4.6468,4.5291,4.4693,0.0,0.0,4.2901,4.2919,4.2938,4.4162,4.5096,0.0,4.739,4.9213,4.8518,0.0,0.0,0.0,0.0,0.0,0.0,4.6474,0.0,4.5899,4.5328,4.4955,4.4895,4.4895,4.4895,4.4895,4.4895,4.4895,4.4895,4.4895,4.4895,4.4895,4.4895,4.4895,4.4895,4.4895,4.4895,4.4895,4.4895,4.4895,4.4895,4.4895,4.4895,4.4895,4.4895,4.4455,4.3781,4.3624,4.2517,4.113,0.0,0.0,0.0,0.0,0.0,0.0,0.0,2.9551,3.0456,3.2762,3.3688,3.4311,3.476,3.5214,3.5764,0.0,0.0,0.0,0.0,0.0,0.0,0.0,0.0,0.0,0.0,0.0,0.0,3.5909,3.6572,0.0,0.0,0.0,0.0,0.0,0.0,3.54,3.5492,3.5514,0.0,0.0,0.0,0.0,0.0,0.0,0.0,0.0,0.0,0.0,0.0,0.0,0.0,4.3987,4.3426,4.4222,4.5254,4.444,0.0,0.0,4.6504,4.7102,4.7515,4.6794,4.7102,4.7011,4.4729,0.0,0.0,4.3227,4.2901,4.2938,4.3049,4.3139,4.3524,0.0,0.0,4.614,4.8201,0.0,0.0,0.0,0.0,0.0,4.5559,4.6001,4.6118,4.5262,4.5249,4.5159,4.4907,4.4895,4.4895,4.4895,4.4895,4.4895,4.4895,4.4895,4.4895,4.4895,4.4895,4.4895,4.4895,4.4895,4.4895,4.4895,4.4895,4.4895,0.0,4.4895,4.4895,4.4895,4.4895,4.4845,4.4693,4.3947,4.2992,4.219,0.0,0.0,0.0,0.0,0.0,0.0,2.9465,2.9595,3.038,3.2489,3.3003,3.3667,3.4936,3.5213,3.5535,3.6246,0.0,0.0,0.0,0.0,0.0,0.0,0.0,0.0,0.0,0.0,3.6671,3.6671,3.697,0.0,0.0,0.0,0.0,0.0,0.0,0.0,3.5383,3.5469,0.0,0.0,0.0,0.0,0.0,0.0,0.0,0.0,0.0,0.0,0.0,0.0,0.0,0.0,4.2429,4.2955,0.0,0.0,4.4168,4.5273,4.625,4.7102,4.7606,4.7301,4.6739,4.5997,4.5037,0.0,4.3661,4.3027,4.2901,4.2919,4.2975,4.2994,4.3196,4.3777,4.446,4.5278,4.6375,0.0,0.0,0.0,0.0,0.0,0.0,0.0,4.5619,4.5252,4.5275,4.5246,4.5148,4.5148,4.5148,4.5148,4.5148,4.5148,4.5148,4.5148,4.5148,4.5148,4.5148,4.5148,4.5148,4.5148,4.5148,4.5148,4.5148,4.5148,0.0,4.5148,4.5148,4.5148,4.5148,4.5103,4.4976,4.4653,4.3938,4.3149,0.0,0.0,0.0,0.0,0.0,2.8956,2.9784,3.003,3.0814,3.2571,3.2962,3.3543,3.4817,3.4953,3.5203,3.5783,3.5578,0.0,0.0,0.0,0.0,0.0,0.0,0.0,0.0,0.0,3.7433,3.7433,3.7649,3.7748,0.0,0.0,0.0,0.0,0.0,0.0,0.0,0.0,0.0,0.0,0.0,0.0,0.0,0.0,0.0,0.0,0.0,0.0,0.0,0.0,0.0,0.0,0.0,0.0,0.0,0.0,4.3281,4.4385,4.578,4.6739,4.7409,4.7624,4.6504,4.5291,0.0,0.0,4.2901,4.2901,4.2938,4.2975,4.2994,4.3068,4.316,4.3251,4.392,4.4617,4.5106,4.5993,0.0,0.0,0.0,4.5813,0.0,4.5307,4.5307,4.5307,4.5307,4.5307,4.5307,4.5307,4.5307,4.5307,4.5307,4.5307,4.5307,4.5307,4.5307,4.5307,4.5307,4.5307,4.5307,4.5307,4.5307,4.5307,4.5307,4.5307,0.0,4.5307,4.5307,4.5307,4.5307,4.5235,4.5159,4.5159,4.4577,4.379,0.0,0.0,0.0,0.0,0.0,0.0,3.0409,3.1105,3.1961,3.3314,3.4008,3.4399,3.4414,3.4414,3.462,3.5154,3.5275,0.0,0.0,0.0,0.0,0.0,0.0,0.0,0.0,0.0,3.8195,3.8195,3.8934,3.9282,3.9265,3.8526,3.7814,3.7069,0.0,0.0,0.0,0.0,0.0,0.0,0.0,0.0,0.0,0.0,0.0,0.0,0.0,0.0,0.0,0.0,0.0,0.0,0.0,4.051,4.0673,4.1488,4.2864,4.4277,4.5091,4.5906,4.6703,4.7518,4.6504,4.5291,0.0,0.0,4.2901,4.2901,4.3012,4.3123,4.3178,4.3196,4.3233,4.3376,4.3412,4.3808,4.4934,4.5159,0.0,0.0,0.0,4.4934,4.5256,4.5307,4.5307,4.5307,4.5307,0.0,4.5307,4.5307,4.5307,4.5307,4.5307,4.5307,4.5307,4.5307,4.5307,4.5307,4.5307,4.5307,4.5307,4.5307,4.5307,4.5307,4.5307,4.5307,0.0,4.5307,4.5307,4.5307,4.5307,4.5297,4.5297,4.5297,4.4698,4.3999,0.0,0.0,0.0,0.0,0.0,0.0,0.0,3.1105,3.183,3.2701,3.3369,3.3935,3.437,3.4414,3.4656,3.5283,3.4812,0.0,0.0,0.0,0.0,0.0,0.0,0.0,0.0,0.0,3.8941,3.8941,3.9199,3.9299,3.9299,3.9067,3.856,3.7847,3.7615,0.0,0.0,0.0,0.0,0.0,0.0,0.0,0.0,0.0,0.0,0.0,0.0,0.0,0.0,0.0,0.0,0.0,0.0,0.0,0.0,4.1777,4.1669,4.2067,4.3951,4.4675,4.491,4.5182,4.4041,4.2991,4.3516,0.0,4.1706,4.2795,4.3123,4.3178,4.3196,4.3269,4.334,4.3394,4.3394,4.3538,0.0,0.0,0.0,4.4901,4.5069,4.5184,0.0,0.0,4.5307,4.5307,4.5307,4.5307,4.5307,4.5307,4.5307,4.5307,4.5307,4.5307,4.5307,4.5307,4.5307,4.5307,4.5307,4.5307,4.5307,4.5307,4.5307,4.5307,4.5307,4.5307,4.5307,4.5307,4.5307,4.5307,4.5307,4.5307,4.5307,4.5307,4.5104,4.4891,0.0,0.0,0.0,0.0,0.0,0.0,0.0,3.1337,3.2048,3.2469,3.3282,3.3978,3.437,3.4414,3.4675,3.5334,3.4888,0.0,0.0,0.0,0.0,0.0,0.0,0.0,3.8639,3.8958,3.9121,3.9121,3.9245,3.9299,3.9299,3.9299,3.8907,3.8186,3.8186,3.7849,0.0,0.0,0.0,0.0,0.0,0.0,4.0096,0.0,0.0,0.0,0.0,0.0,0.0,0.0,0.0,0.0,0.0,0.0,0.0,0.0,4.1126,4.0945,4.3063,4.386,4.4168,4.4476,4.3335,4.2357,0.0,0.0,4.1523,4.2832,4.3196,4.3287,4.3287,4.3358,4.3446,4.3446,4.3446,4.3498,0.0,0.0,0.0,4.4105,0.0,0.0,0.0,4.5105,4.5307,4.5307,4.5307,4.5307,4.5307,4.5307,4.5307,4.5307,4.5307,4.5307,4.5307,4.5307,4.5307,4.5307,4.5307,4.5307,4.5307,4.5307,4.5307,4.5307,4.5307,4.5307,0.0,4.5307,4.5307,4.5307,4.5307,4.5307,4.5269,4.4934,4.501,4.5239,0.0,0.0,0.0,0.0,0.0,0.0,0.0,3.1671,3.2481,3.2481,3.363,3.4414,3.4414,3.4414,3.469,3.5407,0.0,0.0,0.0,0.0,0.0,0.0,0.0,0.0,3.829,3.8611,3.8777,3.8805,3.9121,3.9272,3.9299,3.9299,3.8924,3.8295,3.8295,3.7991,0.0,0.0,0.0,0.0,4.0096,4.0096,0.0,0.0,0.0,0.0,0.0,0.0,0.0,0.0,0.0,0.0,0.0,0.0,0.0,0.0,0.0,0.0,0.0,4.3336,4.4095,4.4784,4.3897,4.301,4.3698,0.0,0.0,4.2959,4.3269,4.3412,4.3412,4.3464,4.3515,4.3515,4.3515,4.3615,0.0,4.4033,0.0,0.0,4.4614,0.0,4.4083,4.4781,4.5307,4.5307,4.5307,4.5307,4.5307,4.5307,4.5307,4.5307,4.5307,4.5307,4.5307,4.5307,4.5307,4.5307,4.5307,4.5307,4.5307,4.5307,4.5307,0.0,4.5307,4.5307,4.5307,4.5307,4.5307,4.5307,4.5307,4.5307,4.5201,4.4399,4.4609,4.5182,0.0,0.0,0.0,0.0,0.0,0.0,0.0,0.0,0.0,0.0,3.363,3.4414,3.4414,3.4414,3.4864,0.0,0.0,0.0,0.0,0.0,0.0,0.0,0.0,0.0,3.7399,3.8132,3.86,3.8805,3.8887,3.904,3.9299,3.9299,3.9216,3.905,3.905,3.9082,0.0,0.0,0.0,0.0,4.0096,4.0096,0.0,0.0,0.0,0.0,4.0204,4.058,0.0,0.0,0.0,0.0,0.0,0.0,0.0,0.0,4.1198,4.0743,4.1124,0.0,4.2157,4.1723,4.1887,4.2014,0.0,0.0,0.0,0.0,0.0,0.0,0.0,4.3497,4.3515,4.3515,4.3515,4.3615,4.3958,0.0,0.0,4.3947,4.473,4.4953,4.4083,4.4781,4.5307,4.5307,4.5307,4.5307,4.5307,4.5307,4.5307,4.5307,4.5307,4.5307,4.5307,4.5307,4.5307,4.5307,4.5307,4.5307,4.5307,4.5307,4.5307,4.5307,4.5307,4.5307,4.5307,4.5307,4.5307,4.5307,4.5307,4.5307,4.5288,4.5067,4.5125,4.5182,0.0,0.0,0.0,0.0,0.0,0.0,0.0,0.0,0.0,0.0,0.0,3.4414,3.4414,3.4414,0.0,0.0,0.0,0.0,0.0,0.0,0.0,0.0,0.0,3.7087,3.7474,3.8075,3.8516,3.8805,3.8942,3.9121,3.9299,3.9299,3.9299,3.9299,3.9299,3.9405,0.0,0.0,0.0,0.0,4.0087,0.0,0.0,0.0,0.0,0.0,3.9723,4.0018,0.0,3.997,4.076,4.1872,0.0,0.0,0.0,0.0,4.0997,4.0757,4.0757,4.1287,4.1724,4.1306,4.185,4.2395,4.1958,0.0,0.0,0.0,0.0,0.0,0.0,0.0,4.3682,4.3513,4.3728,0.0,0.0,0.0,4.4325,4.4034,4.4418,4.4685,0.0,4.501,4.5307,4.5307,4.5307,4.5307,4.5307,4.5307,4.5307,4.5307,4.5307,4.5307,4.5307,4.5307,4.5307,4.5307,4.5307,4.5307,4.5307,4.5307,4.5307,4.5307,4.5307,4.5307,4.5307,4.5307,4.5307,4.5269,4.4857,4.4704,4.4609,4.3845,4.3806,4.4036,0.0,0.0,0.0,0.0,0.0,0.0,0.0,0.0,0.0,0.0,0.0,0.0,0.0,0.0,0.0,0.0,0.0,0.0,0.0,0.0,0.0,0.0,3.6782,3.7028,3.7841,3.8205,3.8516,3.8805,3.9094,3.9245,3.9299,3.9299,3.9299,3.9299,3.9299,3.9379,0.0,0.0,0.0,0.0,4.0062,0.0,0.0,0.0,0.0,0.0,0.0,0.0,0.0,3.9452,4.023,4.1287,4.0564,0.0,0.0,0.0,0.0,0.0,4.0624,4.1335,4.1974,4.17,4.2357,4.2977,4.274,0.0,0.0,0.0,0.0,0.0,0.0,4.3732,0.0,0.0,0.0,0.0,4.4025,4.4116,4.414,4.4025,4.4121,0.0,4.5029,4.522,4.5307,4.5307,4.5307,4.5307,4.5307,4.5307,4.5307,4.5307,4.5307,4.5307,4.5307,4.5307,4.5307,4.5307,4.5307,4.5307,4.5307,4.5307,4.522,4.5105,4.5105,0.0,4.5105,4.5105,4.5105,4.5029,4.4293,4.3911,4.3643,4.2221,4.2163,4.2679,0.0,0.0,0.0,0.0,0.0,0.0,0.0,0.0,0.0,0.0,0.0,0.0,0.0,0.0,0.0,0.0,0.0,0.0,0.0,0.0,0.0,3.7447,3.6822,3.6814,3.7634,3.8132,3.8516,3.8805,3.886,3.9013,3.9299,3.9299,3.9299,3.9299,3.9299,3.9379,3.9528,3.9625,0.0,3.9901,4.0062,0.0,0.0,0.0,0.0,0.0,0.0,0.0,0.0,3.9502,3.9875,4.005,3.975,0.0,0.0,0.0,0.0,0.0,3.9739,4.1086,4.189,4.0349,4.1169,4.1988,4.0635,0.0,0.0,0.0,0.0,0.0,0.0,4.3531,4.3649,0.0,0.0,4.4959,0.0,0.0,4.4838,4.4083,0.0,4.4857,4.4255,4.4876,4.5307,4.5307,4.5307,4.5307,4.5307,4.5307,4.5307,4.5307,4.5307,4.5307,4.5307,4.5307,4.5307,4.5307,4.5307,4.5307,4.5307,4.5307,4.4895,4.4197,0.0,4.4197,4.4197,4.4197,4.4197,4.4178,4.4045,4.3567,4.2947,4.2698,4.2698,4.2679,0.0,0.0,0.0,0.0,0.0,0.0,0.0,0.0,0.0,0.0,0.0,0.0,0.0,0.0,0.0,0.0,0.0,0.0,0.0,0.0,3.6086,3.6821,3.647,3.6753,3.7738,3.8315,3.8766,3.9067,3.9067,3.9363,3.9895,3.9895,3.968,3.9299,3.9299,3.9325,3.9422,3.9599,3.9729,3.9807,0.0,0.0,0.0,0.0,0.0,0.0,0.0,0.0,0.0,0.0,3.9047,3.9536,3.9022,0.0,0.0,0.0,0.0,0.0,3.9103,4.0088,4.0912,4.0518,4.233,4.3996,0.0,0.0,0.0,0.0,0.0,0.0,0.0,0.0,4.4293,4.5208,0.0,4.5544,4.5647,4.5042,4.4456,0.0,0.0,4.4628,4.4704,4.5048,4.5307,4.5307,4.5307,4.5307,4.5307,4.5307,4.5307,4.5307,4.5307,4.5307,4.5307,4.5307,4.5307,4.5307,4.5307,4.5307,4.5288,4.4819,4.438,4.3987,0.0,4.3605,4.3968,4.3529,4.3902,4.4571,4.3195,4.2717,4.2698,4.1781,4.1457,4.1399,0.0,0.0,0.0,0.0,0.0,0.0,0.0,0.0,0.0,0.0,0.0,0.0,0.0,0.0,0.0,0.0,0.0,0.0,0.0,3.5862,3.5952,3.6461,3.6332,3.6799,3.7985,3.8439,3.8887,3.9299,3.9481,3.9862,4.0409,4.0227,3.9846,3.9299,3.9299,3.9299,3.9325,3.9573,3.9703,3.9729,0.0,0.0,0.0,0.0,0.0,0.0,0.0,0.0,0.0,0.0,0.0,0.0,0.0,0.0,0.0,3.8708,3.8624,3.8744,3.8927,3.957,4.0377,4.1185,0.0,0.0,0.0,0.0,0.0,0.0,0.0,0.0,0.0,4.4009,0.0,4.5887,4.5997,4.5841,4.56,4.4838,4.4293,4.4293,4.4293,4.4571,4.525,4.5307,4.5307,4.5307,4.5307,4.5307,4.5307,4.5307,4.5307,4.5307,4.5307,4.5201,4.4991,4.4991,4.4991,4.4991,4.4991,4.4991,4.4972,4.4112,4.372,4.3663,4.2851,4.2851,4.3357,4.2756,4.3252,4.4218,4.2259,4.1781,4.2068,4.0759,4.0301,4.0301,0.0,0.0,0.0,0.0,0.0,0.0,0.0,0.0,0.0,0.0,0.0,0.0,0.0,0.0,0.0,0.0,0.0,0.0,0.0,3.5695,3.5859,3.7244,3.6725,3.6981,3.8222,3.8322,3.8645,3.9299,3.9995,4.0359,4.0393,3.9696,3.9348,3.9299,3.9299,3.9299,3.9325,3.9573,3.9703,3.9729,3.9995,0.0,0.0,0.0,0.0,0.0,0.0,0.0,0.0,0.0,0.0,0.0,0.0,0.0,3.8598,3.8676,3.8692,3.8854,3.9606,4.0396,4.1205,4.2011,4.1258,0.0,4.3166,4.2525,0.0,4.4251,0.0,0.0,0.0,4.3394,4.3659,4.4738,4.5163,4.5611,4.6309,0.0,4.5201,4.5201,4.5201,4.522,4.5288,4.5307,4.5307,4.5307,4.5307,4.5307,4.5307,4.5307,4.5307,4.5307,4.5307,4.4914,4.4102,4.4083,4.4083,4.4083,4.4083,4.4083,4.4064,4.3271,4.2889,4.2832,4.1972,4.1628,4.1686,4.1609,4.1648,4.1762,4.1571,4.1074,4.0473,4.0339,4.0301,4.0301,0.0,0.0,0.0,0.0,0.0,0.0,0.0,0.0,0.0,0.0,0.0,0.0,0.0,0.0,0.0,0.0,0.0,0.0,0.0,3.5574,3.5648,3.6207,3.6344,3.6814,3.7706,3.8108,3.9059,4.0613,4.1342,4.1011,3.973,4.0315,4.0133,3.9299,3.9299,3.9299,3.9325,3.9573,3.9703,3.9729,3.9995,4.0096,0.0,0.0,0.0,0.0,0.0,0.0,0.0,0.0,3.856,3.8368,3.8446,3.8544,3.8624,3.8692,3.8707,3.8781,3.9074,4.012,4.1168,4.148,4.1479,0.0,0.0,4.4525,4.4342,4.5259,4.587,0.0,0.0,0.0,4.5216,4.5136,4.5644,4.6156,4.6462,4.5812,4.5307,4.5307,4.5307,4.5307,4.5307,4.5307,4.5307,4.5307,4.5307,4.5307,4.5307,4.5307,4.5307,4.5307,4.5307,4.4876,4.4006,4.4006,4.3472,4.245,4.2985,4.3252,4.3233,4.2374,4.1991,4.1953,4.1113,4.1036,4.1457,4.096,4.138,4.224,4.1705,4.1017,4.0301,4.0301,4.0301,4.0301,0.0,0.0,0.0,0.0,0.0,0.0,0.0,0.0,0.0,0.0,0.0,0.0,0.0,0.0,0.0,0.0,0.0,0.0,3.5765,3.5797,3.5888,3.6099,3.6491,3.7139,3.8002,3.819,3.9091,4.0746,4.1243,4.0961,3.9951,4.0498,4.0216,3.9299,3.9299,3.9299,3.9325,3.9537,3.9651,3.9729,3.9961,4.0062,0.0,0.0,0.0,0.0,0.0,0.0,0.0,0.0,3.8554,3.8415,3.8478,3.859,3.8707,3.8707,3.8891,3.9074,3.9074,3.9882,4.0765,4.104,0.0,0.0,4.472,4.5492,4.5805,4.6338,4.6743,0.0,4.5204,0.0,0.0,0.0,4.5583,4.6118,4.6118,4.564,4.5307,4.5307,4.5307,4.5307,4.5307,4.5048,4.4895,4.4895,4.4647,4.4609,4.4876,4.4647,4.4628,4.4876,4.4628,4.4093,4.3223,4.3204,4.2507,4.1132,4.1724,4.2144,4.2354,4.1514,4.1266,4.1457,4.0654,4.0616,4.1074,4.054,4.0969,4.1953,4.1342,4.0788,4.0301,4.0301,4.0301,4.0301,0.0,0.0,0.0,0.0,0.0,0.0,0.0,0.0,0.0,0.0,0.0,0.0,0.0,0.0,0.0,0.0,0.0,0.0,3.6337,3.6399,3.6707,3.7368,3.7401,3.8032,3.9361,3.8688,3.8618,3.9299,3.9315,4.0044,4.1331,3.9978,3.9315,3.9299,3.9315,3.9315,3.9299,3.9432,3.959,3.9703,3.9849,3.9986,4.0061,0.0,0.0,0.0,0.0,0.0,0.0,0.0,3.9011,3.8415,3.8478,3.859,3.8707,3.8707,3.9258,3.9882,3.9882,3.9916,4.0102,4.0875,0.0,0.0,4.337,4.4615,4.5653,4.727,4.6591,4.5623,4.5355,4.4372,0.0,4.3956,4.4723,4.5307,4.5307,4.5307,4.5307,4.5307,4.5307,4.5307,4.5288,4.4513,4.4006,4.3987,4.3252,4.3157,4.3949,4.3233,4.3176,4.3968,4.3214,4.2374,4.1514,4.1495,4.1094,4.0301,4.0282,4.0711,4.1457,4.0654,4.0731,4.1437,4.0654,4.0301,4.0301,4.0301,4.0301,4.0301,4.0301,4.0301,4.0301,4.0301,4.0301,4.0301,0.0,0.0,0.0,0.0,0.0,0.0,0.0,0.0,0.0,0.0,0.0,0.0,0.0,0.0,0.0,0.0,0.0,0.0,3.5765,3.5765,3.6064,3.666,3.7151,3.778,3.8621,3.8874,3.9094,3.9299,4.0282,4.0481,3.9945,4.0514,4.0233,3.9315,3.9846,3.9796,3.9325,3.9547,3.9651,3.9729,3.9961,4.0045,4.0035,0.0,0.0,0.0,0.0,0.0,0.0,0.0,0.0,0.0,3.8593,3.8658,3.8707,3.8707,3.8872,3.9056,3.9056,4.0304,0.0,4.0487,0.0,0.0,0.0,4.3742,0.0,0.0,4.6644,4.5843,4.5377,4.5025,0.0,4.4092,4.4723,4.5307,4.5307,4.5307,4.5307,4.5307,4.5307,4.5048,4.4456,4.414,4.3758,4.3195,4.2928,4.2908,4.3138,4.2928,4.2908,4.3157,4.2928,4.2374,4.1514,4.1495,4.1094,4.0282,3.9671,3.9833,4.0654,4.0416,4.0435,4.0635,4.0396,4.0301,4.0301,4.0301,4.0301,4.0301,4.0301,4.0301,4.0301,4.0301,4.0301,4.0301,0.0,0.0,0.0,0.0,0.0,0.0,0.0,0.0,0.0,0.0,3.5504,3.5504,0.0,0.0,0.0,0.0,0.0,0.0,3.5876,3.5846,3.6148,3.6784,3.7413,3.8067,3.8673,3.9374,3.9597,3.9299,4.015,4.0266,3.9763,4.0299,4.01,3.9315,3.9763,3.9713,3.9299,3.9468,3.9432,3.9301,3.9766,3.9826,3.967,0.0,0.0,0.0,0.0,0.0,0.0,0.0,0.0,0.0,3.8643,3.8707,3.8762,3.9074,3.9184,3.9313,3.9955,4.1025,0.0,4.1612,4.299,4.4252,4.3671,0.0,0.0,0.0,4.6837,4.6047,4.5409,4.501,0.0,4.3663,4.4227,4.4666,4.4341,4.4571,4.4666,4.4341,4.4303,4.4093,4.3567,4.3214,4.2813,4.2316,4.1991,4.1953,4.2278,4.1972,4.1953,4.2278,4.1972,4.1552,4.1036,4.1017,4.0788,4.0282,3.9766,3.9785,4.0282,3.9938,3.9957,4.0301,4.0301,4.0301,4.0301,4.0301,4.0301,4.0301,4.0301,4.0301,4.0301,4.0301,4.0301,4.0301,0.0,0.0,3.3707,3.4298,0.0,0.0,0.0,0.0,0.0,0.0,3.5504,3.5504,0.0,0.0,0.0,3.5549,3.6058,3.6381,3.632,3.6321,3.6631,3.737,3.8087,3.8788,3.9398,4.0061,4.0044,3.9299,3.9299,3.9647,4.0293,3.968,3.9365,3.9299,3.9299,3.9265,3.9199,3.9133,3.8876,3.8556,3.9234,3.927,3.8991,3.979,0.0,0.0,0.0,0.0,0.0,0.0,0.0,0.0,3.8645,3.8707,3.8836,3.957,3.9827,4.0228,4.1695,4.1878,4.1991,4.3549,4.3633,0.0,4.4618,4.5475,4.6326,4.7354,0.0,4.6137,4.5335,4.4475,4.3643,4.2928,4.3414,4.3643,4.2908,4.3433,4.3586,4.2775,4.2679,4.2641,4.2584,4.1858,4.138,4.138,4.0711,4.0616,4.1342,4.0711,4.0635,4.1361,4.0692,4.0301,4.0301,4.0301,4.0301,4.0301,4.0225,4.0225,4.0263,3.9489,3.9546,4.0301,4.0301,4.0301,4.0301,4.0301,4.0301,4.0301,4.0301,4.0301,4.0301,4.0301,4.0301,4.0301,0.0,0.0,3.374,3.4514,0.0,0.0,0.0,0.0,0.0,0.0,0.0,0.0,0.0,0.0,0.0,3.5519,3.5639,3.5719,3.5683,3.5668,3.6196,3.734,3.9032,4.0023,4.016,4.0326,4.0044,3.9299,3.9299,3.9381,3.9547,3.9978,3.9862,3.9299,3.9299,3.8984,3.8411,3.7926,3.7745,3.776,3.8026,3.8132,3.8153,3.8399,3.8985,0.0,0.0,0.0,0.0,0.0,0.0,0.0,3.8829,3.8707,3.8726,3.8909,3.9405,4.0018,4.0589,4.1579,0.0,0.0,4.3917,4.4592,4.5156,4.5411,4.5602,4.5793,4.5679,4.5297,4.4437,4.3615,4.3004,4.2832,4.2947,4.3004,4.2813,4.2947,4.2737,4.1877,4.1781,4.1533,4.0893,4.0664,4.0559,4.0559,4.0396,4.0377,4.0559,4.0377,4.0377,4.0559,4.0377,4.0301,4.0301,4.0301,4.0301,4.0282,3.9623,3.9642,4.0282,4.011,4.011,4.0301,4.0301,4.0301,4.0301,4.0301,4.0301,4.0301,4.0301,4.0301,4.0301,4.0301,4.0301,4.0301,0.0,0.0,0.0,0.0,0.0,0.0,0.0,0.0,0.0,0.0,0.0,0.0,0.0,3.5789,0.0,0.0,3.5789,3.5964,3.5925,3.5941,3.6492,3.778,3.9493,4.0243,3.9879,4.0227,4.0044,3.9299,3.9299,3.9299,3.9315,3.9696,3.9663,3.9282,3.8924,3.856,3.8162,3.7493,3.7111,3.6999,3.7424,3.7501,3.7464,3.8264,3.8831,3.9306,4.0182,0.0,0.0,0.0,0.0,0.0,0.0,0.0,3.8781,3.9166,3.9294,3.9629,4.1067,0.0,0.0,4.39,0.0,4.5109,4.5348,4.5408,4.5389,4.536,4.5034,4.4508,4.3598,4.2795,4.2126,4.1676,4.1954,4.2078,4.1667,4.1609,4.1285,4.0406,3.9928,3.968,3.968,3.968,3.9843,4.0263,4.0301,4.0301,4.0301,3.99,3.968,3.968,3.9279,3.926,3.9671,3.968,3.9881,4.0282,3.9843,3.9862,4.0301,4.0301,4.0301,4.0301,4.0301,4.0301,4.0301,4.0301,4.0301,4.0301,4.0301,4.0301,4.0301,4.0301,4.0301,4.0358,0.0,0.0,0.0,0.0,0.0,0.0,0.0,0.0,0.0,0.0,0.0,0.0,0.0,3.5998,3.6088,0.0,0.0,0.0,3.6414,3.66,3.7268,3.8428,3.9714,4.0111,3.9497,4.0094,4.0044,3.9299,3.9299,3.9299,3.9299,3.9299,3.9299,3.9265,3.8394,3.803,3.7963,3.7111,3.6546,3.6279,3.6889,3.6939,3.6752,3.8148,3.8733,3.8916,3.9856,3.9859,3.9422,3.9539,0.0,0.0,0.0,0.0,3.8836,3.9496,3.9359,3.9482,4.1735,0.0,4.2824,4.481,4.5307,0.0,4.5389,4.5399,4.5419,4.5438,4.4671,4.3742,4.2948,4.2076,4.1213,4.0424,4.0911,4.1121,4.0406,4.0167,3.9747,3.8877,3.8018,3.7827,3.8686,3.8782,3.9202,4.0225,4.0148,4.0072,4.0072,3.926,3.8782,3.8782,3.8228,3.819,3.8763,3.9069,3.9508,4.0072,4.0225,4.0301,4.0301,4.0301,4.0301,4.0301,4.0301,4.0301,4.0301,4.0301,4.0301,4.0301,4.0301,4.0301,4.0301,4.0301,4.0377,4.0578,0.0,0.0,0.0,0.0,0.0,0.0,0.0,0.0,0.0,0.0,3.5504,3.5504,3.5504,3.5579,3.5609,3.5519,3.5594,3.5855,3.6383,0.0,0.0,3.923,4.0005,4.0359,4.026,4.0359,4.0044,3.9299,3.9299,3.9299,3.9299,3.9299,3.9299,3.9232,3.7864,3.7251,3.7152,3.5898,3.5409,3.5482,3.5675,3.5756,3.5836,3.6453,3.6893,3.7345,3.8518,3.9139,3.9404,3.9489,3.9483,0.0,0.0,0.0,3.8726,3.8836,3.9438,4.023,4.0811,0.0,4.4001,0.0,4.5307,4.5309,0.0,0.0,4.5419,0.0,4.4237,4.3042,4.2908,4.1614,4.0504,4.0326,4.0394,4.0423,4.031,3.9661,3.8858,3.798,3.7158,3.6978,3.7789,3.7865,3.8553,4.0186,3.9603,3.9164,3.9164,3.8343,3.7865,3.7865,3.8495,3.8514,3.7884,3.9374,3.9804,3.9183,3.9938,4.0301,4.0301,4.0301,4.0301,4.0301,4.0301,4.0301,4.0301,4.0301,4.0301,4.0301,4.0301,4.0301,4.0301,4.0301,4.075,4.1266,0.0,0.0,0.0,0.0,0.0,0.0,0.0,0.0,0.0,0.0,0.0,3.5504,3.5504,3.5504,3.5504,3.5504,3.5504,3.591,3.6906,3.8153,3.9018,3.933,3.9627,3.9823,3.9904,3.9823,3.9657,3.9405,3.9405,3.9405,3.9405,3.9484,3.9484,3.9355,3.7952,3.7311,3.7228,3.5816,3.5291,3.5423,3.5469,3.5796,3.6305,3.6544,3.7003,3.7611,3.8204,3.8543,3.8734,3.8819,3.8882,3.8873,3.8588,0.0,0.0,0.0,3.9034,3.97,4.1063,4.2689,4.4197,0.0,4.5307,4.5309,4.5381,4.54,4.5438,4.5577,4.4579,4.3545,4.3057,4.1991,4.0995,4.0401,4.0325,4.0335,4.031,3.9546,3.8686,3.7789,3.7387,3.7311,3.7674,3.8132,3.8954,4.0205,3.9489,3.9011,3.9011,3.775,3.7024,3.7024,3.6929,3.6929,3.7024,3.778,3.8448,3.9011,3.9393,3.9823,4.0301,4.0301,4.0301,4.0301,4.0301,4.0301,4.0301,4.0301,4.0301,4.0301,4.0301,4.0301,4.0339,4.0807,4.1189,4.1514,0.0,0.0,0.0,0.0,0.0,0.0,0.0,0.0,0.0,0.0,0.0,3.5619,3.5941,0.0,0.0,0.0,3.5821,3.6076,3.7023,3.8466,3.9216,3.9033,3.9226,3.9405,3.9501,3.9432,3.9458,3.9537,3.9537,3.9537,3.9537,3.9694,3.9594,3.9272,3.8045,3.7408,3.7133,3.589,3.5423,3.5508,3.5739,3.6213,3.6831,3.7072,3.7644,3.8295,3.8203,3.8309,0.0,0.0,3.8322,3.8401,3.8446,3.8559,0.0,0.0,0.0,3.9332,0.0,0.0,4.3615,4.4704,4.4972,4.5041,0.0,0.0,4.5438,0.0,4.5075,4.4365,4.3494,4.2483,4.1544,4.0781,4.0513,4.0381,4.0319,3.9555,3.8763,3.8113,3.7827,3.7789,3.8018,3.8629,3.9355,4.0225,3.9489,3.8897,3.8686,3.7283,3.6405,3.6175,3.5755,3.5736,3.6175,3.6385,3.7226,3.8667,3.8897,3.9336,3.9976,4.0205,4.0301,4.0301,4.0301,4.0301,4.0301,4.0301,4.0301,4.0301,4.0301,4.0301,4.0358,4.0979,4.1323,4.1552,0.0,0.0,0.0,0.0,0.0,0.0,0.0,0.0,0.0,0.0,0.0,3.5973,3.7161,3.6723,3.66,3.7251,3.6668,3.6235,3.6158,3.8142,3.9,3.8295,3.9056,0.0,3.9501,3.9616,3.9677,3.9677,3.9677,3.9677,3.9677,3.9824,3.9505,3.8791,3.7885,3.7099,3.6413,3.5742,3.5492,3.5582,3.6388,3.6761,3.688,3.7581,3.8367,3.9024,3.8292,0.0,0.0,0.0,0.0,0.0,0.0,0.0,3.8544,0.0,0.0,0.0,0.0,4.1581,0.0,4.3663,4.4064,0.0,0.0,0.0,4.5438,4.5577,4.5556,4.5267,4.4393,4.2912,4.1761,4.1662,4.094,4.037,4.0307,3.9554,3.8973,3.8935,3.819,3.8018,3.8858,3.8973,3.9355,4.0225,3.9489,3.8648,3.7808,3.6958,3.6118,3.5278,3.6023,3.6061,3.5286,3.608,3.692,3.7769,3.861,3.903,3.9107,3.9919,4.0301,4.0301,4.0301,4.0301,4.0301,4.0301,4.0301,4.0301,4.0301,4.0301,4.0301,4.0339,4.0845,4.1399,0.0,0.0,0.0,0.0,0.0,0.0,0.0,0.0,0.0,0.0,0.0,0.0,0.0,3.7191,3.7131,3.737,3.7511,3.7556,3.7522,3.8646,3.9209,3.9039,3.9325,3.958,3.9746,3.9703,3.9729,3.9824,3.9824,3.9588,3.9135,3.9269,3.8678,3.7513,3.7667,3.734,3.6622,3.5886,3.5571,3.5588,0.0,0.0,0.0,0.0,0.0,0.0,0.0,0.0,0.0,0.0,0.0,0.0,0.0,0.0,0.0,0.0,0.0,0.0,0.0,0.0,0.0,4.2947,4.3624,4.4113,4.4528,4.5036,4.5438,4.5577,4.5594,4.5498,4.519,4.4182,4.303,4.1893,4.1447,4.1011,4.0392,4.0032,3.9642,3.9069,3.9221,3.9279,3.903,3.9508,3.9957,4.0282,3.9489,3.8858,3.8553,3.7245,3.6366,3.6042,3.5793,3.5507,3.5209,3.5507,3.608,3.6939,3.7769,3.8457,3.903,3.99,4.0301,4.0301,4.0301,4.0301,4.0301,4.0301,4.0301,4.0301,4.0301,4.0301,4.0358,4.0883,4.1246,4.1457,0.0,0.0,0.0,0.0,0.0,3.841,3.8401,3.7828,3.7472,3.7677,0.0,0.0,0.0,0.0,3.7684,3.766,3.8265,3.8422,3.7932,3.8787,3.9252,3.9135,3.9404,3.9668,3.9901,3.9858,3.9884,3.9977,3.9725,3.9354,3.8857,3.8702,3.7973,3.6829,3.7313,3.711,0.0,0.0,0.0,3.5616,0.0,0.0,3.6785,0.0,0.0,0.0,0.0,0.0,0.0,0.0,0.0,0.0,0.0,0.0,0.0,0.0,0.0,0.0,4.0329,0.0,0.0,0.0,4.2985,4.3406,4.4375,4.4777,4.5074,4.5446,4.5522,4.555,4.5568,4.5087,4.4233,4.2802,4.2089,4.148,4.0851,4.05,4.0091,3.9508,3.9938,4.0072,3.9489,3.9957,4.0301,4.0301,3.9747,3.9317,3.903,3.7933,3.7073,3.6519,3.5946,3.5488,3.5209,3.5209,3.5488,3.608,3.7177,3.7999,3.861,3.9766,4.0301,4.0301,4.0301,4.0301,4.0301,4.0301,4.0301,4.0301,4.0301,4.0301,4.0358,4.0903,4.1266,4.1495,0.0,3.9373,3.9414,3.9416,3.8859,3.8442,3.8463,3.7888,3.7663,3.825,0.0,0.0,0.0,0.0,0.0,3.8242,3.8901,3.8702,3.7251,3.852,3.9063,3.8478,0.0,0.0,3.9901,4.0037,4.0096,4.0096,3.9343,3.8988,3.8937,3.821,3.7466,3.6761,3.6761,3.6332,3.56,0.0,3.56,3.5667,0.0,3.6795,3.6846,0.0,0.0,0.0,3.9199,3.9283,0.0,4.0239,0.0,0.0,0.0,0.0,0.0,0.0,0.0,0.0,0.0,0.0,0.0,0.0,0.0,0.0,4.4747,4.469,4.4355,4.5218,4.54,4.5419,4.5485,4.5495,4.5244,4.4462,4.2893,4.1757,4.1738,4.0949,4.0358,4.0358,4.0358,4.0358,4.0358,4.0339,4.0339,4.0339,4.0301,3.9919,3.9088,3.9011,3.8247,3.6596,3.6538,3.6118,3.5248,3.5267,3.5267,3.5267,3.6948,3.7731,3.7789,3.9527,4.0301,4.0301,4.0301,4.0301,4.0301,4.0301,4.0301,4.0301,4.0301,4.0301,4.0339,4.0339,4.0845,4.1533,3.8631,3.908,3.9561,4.0055,3.9547,3.9234,3.9756,3.9236,3.8816,0.0,0.0,0.0,3.9272,3.9121,3.9011,3.899,3.9262,3.9265,3.8866,3.9304,3.9568,3.9496,3.9706,3.9926,4.0037,4.0087,4.0096,4.0096,3.9343,3.8717,3.8193,3.7449,3.6671,3.5943,3.5943,3.5825,3.56,3.56,0.0,3.5667,3.6468,3.6451,0.0,0.0,0.0,0.0,0.0,3.9443,3.9765,0.0,3.9623,3.8552,0.0,0.0,0.0,0.0,0.0,0.0,3.9622,0.0,0.0,0.0,0.0,0.0,4.3206,4.3829,4.4355,4.5218,4.54,4.541,4.5419,4.5429,4.5352,4.5141,4.4192,4.3291,4.2668,4.2307,4.2106,4.2106,4.2106,4.2106,4.2106,4.1533,4.117,0.0,4.0635,4.0186,3.9938,3.9336,3.8495,3.7406,3.7368,3.6967,3.6156,3.6719,3.6719,3.6156,3.7846,3.8648,3.8686,3.9785,4.0301,4.0301,4.0301,4.0301,4.0301,4.0301,4.0301,4.0301,4.0301,4.0654,4.117,4.117,4.1705,4.2431,3.9646,3.9994,4.0384,4.0785,4.0243,3.9987,4.0722,3.9962,3.9415,0.0,0.0,0.0,3.9379,3.9379,3.9405,3.9458,3.9537,3.959,3.959,3.9668,3.9755,3.9901,3.9901,3.9961,4.0113,4.0096,4.0096,4.0096,3.9343,3.8616,3.7889,3.7168,3.6366,3.56,3.56,3.56,3.56,0.0,0.0,0.0,3.6468,0.0,0.0,3.6958,3.7809,0.0,0.0,0.0,3.9971,4.1105,4.0456,0.0,0.0,0.0,0.0,0.0,0.0,0.0,0.0,0.0,0.0,0.0,0.0,0.0,4.2928,4.3426,4.3799,4.4642,4.4815,4.4824,4.4844,4.4854,4.4978,4.5343,4.4998,4.4394,4.3513,4.3053,4.2794,4.2794,4.2794,4.2794,4.2794,4.2011,4.1495,4.1495,4.075,4.0301,4.0301,3.9823,3.9145,3.8266,3.8247,3.7846,3.7005,3.7464,3.7464,3.7024,3.8362,3.9011,3.903,3.99,4.0301,4.0301,4.0301,4.0301,4.0301,4.0301,4.0301,4.0301,4.0301,4.0597,4.1036,4.138,4.2049,4.2851,0.0,4.1366,4.1404,4.1491,4.0903,4.0609,4.1196,4.015,3.9547,0.0,3.9713,3.9352,3.9501,3.9511,3.9563,3.9677,3.9703,3.9729,3.9729,3.9729,3.9807,3.9926,3.9926,3.9986,4.0113,4.0096,4.0096,4.0096,3.9276,3.8531,3.7889,3.7043,3.6282,3.56,3.56,3.56,3.56,3.56,0.0,3.5785,3.6502,3.6795,0.0,0.0,3.8206,3.8789,3.9962,4.0194,4.0203,4.2027,4.156,0.0,0.0,0.0,0.0,0.0,3.8866,0.0,0.0,0.0,0.0,0.0,4.0412,0.0,4.3094,4.3156,4.2889,4.3701,4.3873,4.3874,4.3943,4.4029,4.4307,4.4998,4.5275,4.513,4.4345,4.3569,4.308,4.308,4.308,4.308,4.308,4.2297,4.1781,4.1781,4.1036,4.053,4.0435,4.0435,4.0043,3.9164,3.9145,3.8725,3.7846,3.7941,3.7941,3.7846,3.8725,3.9145,3.9164,3.9938,4.0301,4.0301,4.0301,4.0301,4.0301,4.0301,4.0301,4.0301,4.0301,4.0339,4.053,4.1342,4.2183,4.3061,4.0546,4.0656,4.0801,4.1394,4.0871,4.043,4.058,3.9862,3.9348,3.9497,3.9478,3.9475,3.9501,3.959,3.9677,3.9703,3.9781,3.9875,3.9875,3.9961,4.002,4.0062,4.0062,4.007,4.0096,4.0096,4.0096,4.0096,3.8768,3.8041,3.7872,3.6462,3.5752,3.56,3.56,3.56,3.56,0.0,0.0,3.6592,3.6745,0.0,3.688,3.7618,3.8553,3.956,4.0193,4.0548,4.0792,4.0925,3.9965,3.8819,0.0,0.0,0.0,3.8525,0.0,0.0,0.0,0.0,0.0,0.0,0.0,0.0,4.1399,4.17,4.1991,4.287,4.3023,4.3042,4.3052,4.3587,4.3855,4.3378,4.4448,4.5281,4.5168,4.4956,4.48,4.48,4.48,4.48,4.48,4.4017,4.351,4.351,4.2775,4.2011,4.1304,4.1266,4.0883,4.0072,4.0053,3.9642,3.8744,3.9451,3.9451,3.8763,3.9642,4.0053,4.0053,4.0225,4.0301,4.0301,4.0301,4.0301,4.0301,4.0301,4.0301,4.0301,4.0301,4.0711,4.1361,4.2221,4.3061,4.3892,4.095,4.1211,4.1448,4.1435,4.0914,4.0626,4.0984,4.0174,3.9627,4.0011,3.9797,3.9616,3.9694,3.9772,3.9833,3.9893,3.9961,3.9986,3.9986,4.0045,4.0096,4.0096,4.0096,4.0096,4.0096,4.0096,4.0096,4.0096,3.8988,3.8261,3.7889,3.6738,3.6316,3.6527,3.5886,3.6059,3.6801,0.0,3.6337,3.6879,3.7217,0.0,3.7997,3.8717,3.9363,3.999,4.0717,4.1366,4.1875,4.1288,4.0618,0.0,0.0,3.9266,3.8929,0.0,3.8559,3.8637,0.0,0.0,0.0,3.9232,0.0,0.0,0.0,4.1108,4.1554,4.243,4.2361,4.2278,4.2717,4.2775,4.2889,4.3329,4.4112,4.4829,4.5281,4.5317,4.5307,4.5307,4.5307,4.5307,4.5307,4.4513,4.3834,4.3433,4.3023,4.2603,4.2163,4.1743,4.1323,4.0903,4.0511,4.0091,3.9652,4.0072,4.0072,3.9652,4.0091,4.0301,4.0301,4.0301,4.0301,4.0301,4.0301,4.0301,4.0301,4.0301,4.0301,4.0301,4.0301,4.0788,4.1609,4.2488,4.331,4.4121,4.1593,4.1846,4.1962,4.1393,4.1028,4.0944,4.1261,4.0501,4.0072,4.0514,4.0072,3.9781,3.9901,3.991,3.9986,4.007,4.0096,4.0096,4.0096,4.0096,4.0096,4.0096,4.0096,4.0028,3.9893,4.0128,4.0178,4.0025,3.935,3.8734,3.812,3.7234,3.7014,3.7347,3.6482,3.6774,0.0,0.0,0.0,3.7444,0.0,3.8457,3.8864,3.954,3.9938,4.0253,4.1273,4.2091,4.2574,4.1922,4.1488,4.1053,3.9872,3.9397,0.0,0.0,0.0,0.0,0.0,0.0,0.0,0.0,0.0,3.9337,0.0,0.0,0.0,4.1749,4.1533,0.0,0.0,0.0,0.0,4.309,0.0,0.0,0.0,4.5097,0.0,4.5307,4.5307,4.5307,4.5307,4.4666,4.3978,4.3329,4.3271,4.3214,4.3042,4.2354,4.1915,4.1762,4.1132,4.0702,4.053,4.053,4.0454,4.0301,4.0301,4.0301,4.0301,4.0301,4.0301,4.0301,4.0301,4.0301,4.0301,4.0301,4.0301,4.032,4.0473,4.0922,4.1609,4.266,4.3433,4.4121,4.1732,4.1381,4.0963,4.0879,4.1375,4.1341,4.0113,4.0347,4.0464,3.9904,3.9874,3.9875,3.9901,0.0,0.0,0.0,0.0,0.0,4.0096,0.0,4.0096,4.0096,4.0096,3.9791,3.914,4.0165,4.038,3.9766,3.936,3.914,3.9017,3.7566,3.6921,3.6998,3.7619,0.0,0.0,0.0,3.8567,0.0,3.9279,3.8834,0.0,3.8602,3.9396,4.0438,4.1679,4.199,4.1813,0.0,4.0782,3.964,0.0,3.9048,3.8526,3.8496,0.0,0.0,0.0,0.0,0.0,0.0,3.8921,0.0,0.0,0.0,3.9774,4.0105,0.0,0.0,0.0,0.0,0.0,4.0798,4.2574,0.0,4.3176,4.436,4.5307,4.5307,4.5307,4.5307,4.5307,4.5201,4.5105,4.501,4.502,4.4685,4.3892,4.3777,4.3376,4.2679,4.2565,4.2144,4.1361,4.1361,4.1017,4.0301,4.0301,4.0301,4.0301,4.0301,4.0301,4.0301,4.0301,4.0301,4.0301,4.0301,4.0301,4.0358,4.1094,4.1418,4.1686,4.3281,4.3911,4.4121,4.0574,4.0715,4.0665,4.0256,4.0493,4.0546,3.9908,4.0153,4.0441,4.0559,4.0256,4.018,0.0,0.0,0.0,0.0,0.0,4.0096,0.0,0.0,0.0,0.0,0.0,0.0,3.9364,3.9851,3.9859,3.9347,3.8776,3.8494,3.8477,3.7451,3.7609,3.8746,3.8451,0.0,3.9878,0.0,3.9516,0.0,0.0,0.0,0.0,4.0073,4.0898,4.1588,4.2174,4.2437,4.2522,0.0,4.1832,0.0,0.0,0.0,0.0,0.0,0.0,0.0,0.0,0.0,0.0,0.0,0.0,0.0,3.8866,0.0,3.9442,0.0,0.0,0.0,0.0,0.0,0.0,0.0,4.1877,0.0,0.0,0.0,4.4208,4.5192,0.0,0.0,4.4551,4.4991,4.5307,4.5307,4.5307,4.5144,4.4762,4.4274,4.3854,4.351,4.3042,4.2622,4.2259,4.1743,4.1323,4.0998,4.0511,4.0301,4.0301,4.0301,4.0301,4.0301,4.0301,4.0301,4.0301,4.0301,4.0301,4.0435,4.1743,4.224,4.2393,4.3567,4.4312,4.4819,3.9858,0.0,0.0,3.9891,4.0052,4.0255,4.0255,4.0172,4.0299,4.0832,4.0434,0.0,4.0832,4.0434,0.0,0.0,4.0096,4.0096,0.0,0.0,4.0096,0.0,0.0,0.0,0.0,3.9851,3.9778,3.9324,3.8709,3.8523,3.872,3.7821,3.8311,3.9932,3.937,3.9968,4.1371,0.0,4.0649,4.0382,4.0723,4.0776,4.077,4.1546,4.2165,4.2634,4.2675,4.2864,4.3087,4.2923,4.2485,0.0,4.1098,0.0,0.0,0.0,0.0,0.0,3.8673,0.0,0.0,0.0,0.0,0.0,0.0,0.0,0.0,0.0,0.0,0.0,0.0,0.0,4.0866,4.1218,0.0,4.1864,0.0,4.2601,0.0,0.0,0.0,0.0,0.0,4.4934,4.5307,4.5307,4.5307,4.5307,4.5307,4.4704,4.435,4.435,4.3787,4.3367,4.3138,4.2507,4.1953,4.1495,4.0903,4.0511,4.0301,4.0301,4.0301,4.0301,4.0301,4.0301,4.0301,4.0301,4.0301,4.0473,4.2144,4.2794,4.2928,4.3978,4.4762,4.5307,4.007,4.0104,0.0,0.0,0.0,0.0,0.0,0.0,0.0,0.0,0.0,0.0,0.0,0.0,0.0,0.0,0.0,4.0096,4.0096,0.0,4.0096,0.0,0.0,4.0433,0.0,0.0,4.0606,3.9878,3.9589,3.9836,4.0579,3.9064,3.8822,3.9642,4.0529,4.0542,3.9973,4.1557,4.2233,4.2196,4.2233,4.2691,4.3278,0.0,4.2486,4.316,4.3178,0.0,0.0,4.2303,4.2011,4.1883,0.0,0.0,0.0,0.0,0.0,0.0,0.0,0.0,0.0,3.8707,0.0,0.0,0.0,0.0,3.9016,0.0,0.0,0.0,0.0,0.0,4.161,4.0841,4.1604,0.0,0.0,0.0,0.0,0.0,0.0,0.0,0.0,4.5288,4.5307,4.5307,4.5307,4.5307,4.5307,4.5269,4.5269,4.5269,4.5231,4.48,4.3968,4.393,4.3119,4.1495,4.1457,4.1055,4.0301,4.0301,4.0301,4.0301,4.0301,4.0301,4.0301,4.0301,4.0301,4.0473,4.2144,4.2794,4.3004,4.4647,4.5288,4.5307,4.0096,0.0,0.0,0.0,0.0,0.0,0.0,4.0265,0.0,0.0,4.0417,0.0,0.0,4.0375,4.0096,0.0,0.0,4.0096,4.0096,4.0096,0.0,0.0,0.0,4.0723,0.0,0.0,0.0,0.0,4.0292,4.0433,4.0687,4.0312,4.0269,4.0562,4.1451,4.1704,0.0,0.0,0.0,0.0,0.0,4.2451,4.271,0.0,4.3103,4.334,4.3393,4.3375,4.3304,4.3063,4.2641,4.2165,4.1924,4.1301,4.0659,4.0691,4.049,4.0159,0.0,0.0,3.9368,3.8836,0.0,0.0,0.0,0.0,0.0,0.0,0.0,0.0,0.0,0.0,4.1815,4.1546,4.1794,4.1745,0.0,0.0,0.0,0.0,0.0,0.0,0.0,0.0,4.4257,4.4427,4.4437,4.4685,4.5269,4.5307,4.5307,4.5307,4.5307,4.5163,4.4857,4.4293,4.372,4.3138,4.203,4.1361,4.1074,4.054,4.0301,4.0301,4.0301,4.0301,4.0301,4.0301,4.0301,4.0473,4.2144,4.2794,4.3004,4.4666,4.5307,4.5307,4.0146,4.0096,0.0,0.0,0.0,0.0,0.0,0.0,0.0,0.0,4.0417,0.0,4.0747,0.0,4.0096,0.0,4.0096,4.0096,4.0096,4.0271,0.0,4.0814,4.1162,0.0,0.0,0.0,0.0,0.0,0.0,4.0937,4.1228,4.1091,4.1048,4.1066,0.0,4.2139,4.1937,4.3039,4.3185,0.0,0.0,4.2727,0.0,0.0,4.3264,4.3044,0.0,4.3463,4.3446,4.348,4.3149,4.2727,4.2727,4.2176,4.1534,4.1534,4.1315,4.0985,4.0469,4.0322,4.0194,3.968,3.9536,0.0,3.9536,0.0,3.979,0.0,0.0,0.0,0.0,0.0,4.2273,4.1696,4.1931,4.1838,0.0,4.0459,0.0,0.0,0.0,0.0,0.0,4.2818,4.3407,4.3958,4.372,4.394,4.4781,4.4838,4.4972,4.5288,4.5307,4.5307,4.5307,4.4743,4.4312,4.3987,4.2908,4.224,4.1934,4.1437,4.1017,4.0731,4.0731,4.0559,4.032,4.0616,4.0731,4.0903,4.2565,4.3233,4.3405,4.4781,4.5307,4.5307,4.0248,4.0113,0.0,0.0,4.013,0.0,0.0,0.0,4.0096,0.0,4.0096,4.0096,4.0113,4.0113,4.0096,4.0138,4.0138,4.0121,4.0146,4.058,0.0,0.0,4.1892,4.2458,4.2523,0.0,0.0,0.0,0.0,4.1508,4.2239,4.1556,4.1187,4.1187,4.2011,0.0,4.126,4.2818,4.3515,4.3515,4.3515,4.3478,4.3441,4.3478,4.3002,4.2415,4.3221,4.3515,4.3515,4.3515,4.3515,4.3515,4.3515,4.2983,4.2359,4.2359,4.1827,4.1205,4.1168,4.115,4.115,4.1113,4.1095,4.1095,0.0,0.0,4.1334,0.0,0.0,0.0,0.0,0.0,0.0,4.1462,4.205,4.2229,4.0905,0.0,0.0,0.0,0.0,0.0,0.0,4.2746,4.2731,4.3784,4.3204,4.3157,0.0,4.4045,4.4437,4.5269,4.5307,4.5307,4.5307,4.5307,4.4876,4.4064,4.4025,4.3605,4.287,4.2813,4.2316,4.1495,4.1495,4.1074,4.0416,4.117,4.1533,4.1724,4.3357,4.4025,4.4159,4.4991,4.5307,4.5307,4.0146,4.0188,4.04,0.0,4.0468,4.0096,0.0,0.0,0.0,0.0,4.0096,4.0138,4.0238,4.0238,4.0288,4.0387,4.0412,0.0,0.0,0.0,0.0,4.2044,4.2344,4.2656,4.3013,4.2941,0.0,4.2886,0.0,0.0,4.3082,4.2949,4.2561,4.2029,0.0,4.2745,4.2066,4.3057,4.3515,4.3515,4.3515,4.313,4.2671,0.0,4.3002,4.2415,4.3221,4.3515,4.3515,4.3515,4.3515,4.3515,4.3515,4.3368,4.3185,4.3185,4.3039,4.2745,4.2158,4.1992,4.1864,4.1242,4.1095,4.1095,4.1095,4.1095,0.0,0.0,0.0,0.0,0.0,0.0,0.0,0.0,0.0,0.0,0.0,0.0,0.0,3.9797,0.0,0.0,0.0,4.0917,4.1335,4.1808,4.2436,4.3157,4.3968,4.4609,4.5067,4.5288,4.5307,4.5307,4.5307,4.5307,4.5182,4.4953,4.4312,4.3892,4.3663,4.308,4.2316,4.1495,4.1495,4.138,4.1208,4.1399,4.1877,4.2565,4.3605,4.4399,4.4991,4.522,4.5307,4.5307,4.1091,4.1261,0.0,4.194,0.0,0.0,4.0246,4.0238,0.0,4.0514,4.0377,0.0,4.0902,4.0778,4.0754,4.1042,4.1065,0.0,4.1397,0.0,0.0,4.256,4.2789,4.3032,4.3322,4.3322,0.0,4.3322,0.0,0.0,4.3446,4.348,4.3057,4.2341,0.0,4.3039,4.2359,4.3149,4.3515,4.3515,4.3515,4.3222,0.0,4.3331,4.3222,4.2873,4.3332,4.3515,4.3515,4.3515,4.3515,4.3515,4.3515,4.3515,4.3515,4.3515,4.3515,4.3387,4.2947,4.2818,4.2708,4.2268,4.2158,4.2158,4.2158,4.2158,4.2286,0.0,4.2818,4.2855,4.2947,0.0,0.0,0.0,0.0,0.0,0.0,0.0,0.0,0.0,3.9426,0.0,3.918,3.9877,4.05,4.0899,4.1296,0.0,0.0,4.3556,4.4247,4.4723,4.5105,4.5307,4.5307,4.5307,4.5307,4.5288,4.48,4.4571,4.4551,4.4093,4.3424,4.2584,4.2584,4.2393,4.2106,4.245,4.2889,4.3405,4.4246,4.4876,4.5307,4.5307,4.5307,4.5307,4.2562,4.2761,0.0,0.0,0.0,0.0,0.0,4.0597,0.0,4.1145,0.0,4.0966,4.1746,4.1464,4.1375,4.181,0.0,4.1874,4.1937,4.2324,4.2637,4.2807,4.3196,4.3446,4.3497,4.3515,0.0,0.0,0.0,0.0,4.3515,4.3515,4.313,0.0,0.0,0.0,0.0,4.3185,4.3515,4.3515,4.3515,4.3515,4.3515,4.3515,4.3515,4.3515,4.3515,4.3515,4.3515,4.3515,4.3515,4.3515,4.3515,4.3515,4.3515,4.3515,4.3515,4.3515,4.3515,4.3515,4.3515,4.3515,4.3515,4.3515,4.3515,4.3515,4.3515,4.3515,4.3515,4.3277,4.2598,0.0,0.0,0.0,0.0,0.0,0.0,0.0,0.0,0.0,0.0,0.0,0.0,3.9513,0.0,0.0,4.0196,0.0,0.0,0.0,4.3049,4.414,4.4914,4.5307,4.5307,4.5307,4.5307,4.5307,4.5307,4.5307,4.5307,4.5307,4.4819,4.4006,4.4006,4.3605,4.3004,4.3701,4.4064,4.4255,4.4991,4.5307,4.5307,4.5307,4.5307,4.5307,4.3666,0.0,0.0,0.0,0.0,4.2035,4.1764,4.1617,4.1595,4.1682,4.1617,4.1682,4.1937,4.1895,4.1913,4.2098,4.2136,0.0,0.0,0.0,0.0,4.3339,4.3427,4.3497,4.3515,4.3515,4.3515,0.0,0.0,0.0,4.3515,4.3515,4.3423,0.0,0.0,0.0,4.3313,4.3441,0.0,4.3515,4.3515,4.3515,4.3515,4.3515,4.3515,4.3515,4.3515,4.3515,4.3515,4.3515,4.3515,4.3515,4.3515,4.3515,4.3515,4.3515,4.3515,4.3515,4.3515,4.3515,4.3515,4.3515,4.3515,4.3515,4.3515,4.3515,4.3515,4.3515,4.3515,4.346,4.3331,4.3387,0.0,0.0,0.0,0.0,0.0,0.0,0.0,0.0,0.0,4.0821,0.0,0.0,0.0,0.0,0.0,0.0,0.0,0.0,4.3916,0.0,4.522,4.5307,0.0,4.5307,4.5307,4.5307,4.5307,4.5307,4.5307,4.5307,4.4819,4.4006,4.4006,4.3911,4.3796,4.393,4.4418,4.5086,4.5239,4.5307,4.5307,4.5307,4.5307,4.5307,0.0,0.0,0.0,0.0,0.0,0.0,0.0,4.3367,4.3087,4.2456,4.216,4.2203,4.2715,4.258,4.2578,4.2846,4.2865,4.2976,4.3214,4.3214,4.3304,4.3479,4.3515,4.3515,4.3515,4.3515,4.3515,4.3515,0.0,4.3515,4.3515,4.3515,4.3515,4.3515,0.0,4.3515,0.0,0.0,4.3515,4.3515,4.3515,4.3515,4.3515,4.3515,4.3515,4.3515,4.3515,4.3515,4.3515,4.3515,4.3515,4.3515,4.3515,4.3515,4.3515,4.3515,4.3515,4.3515,4.3515,4.3515,4.3515,4.3515,4.3515,4.3515,4.3515,4.3515,4.3515,4.3515,4.3515,4.3515,4.3515,4.3149,4.3002,0.0,0.0,0.0,0.0,0.0,0.0,0.0,0.0,0.0,0.0,0.0,0.0,0.0,0.0,0.0,0.0,0.0,4.3479,0.0,0.0,0.0,4.5307,0.0,4.5307,4.5307,4.5307,4.5307,4.5307,4.5307,4.5067,4.4666,4.4666,4.4666,4.4666,4.4666,4.4914,4.5307,4.5307,4.5307,4.5307,4.5307,4.5307,4.5307,0.0,4.6698,0.0,0.0,4.5535,4.4636,4.447,4.4452,4.4107,4.316,4.2711,4.2751,4.3427,4.3214,4.316,4.3462,4.3515,4.3515,4.3515,4.3515,4.3515,4.3515,4.3515,4.3515,4.3515,4.3515,4.3515,0.0,0.0,0.0,4.3515,4.3515,4.3515,0.0,0.0,0.0,0.0,4.3515,4.3515,4.3515,4.3515,4.3515,4.3515,4.3515,4.3515,4.3515,4.3515,4.3515,4.3515,4.3515,4.3515,4.3515,4.3515,4.3515,4.3515,4.3515,4.3515,4.3515,4.3515,4.3515,4.3515,4.3515,4.3515,4.3515,4.3515,4.3515,4.3515,4.3515,4.3515,4.3515,4.3515,4.2983,4.2763,0.0,0.0,0.0,0.0,0.0,0.0,0.0,0.0,0.0,4.0249,0.0,0.0,0.0,0.0,0.0,4.1233,0.0,0.0,4.3887,4.4584,4.4938,4.4938,0.0,4.5307,4.5307,4.5307,4.5307,4.5307,4.5307,4.5307,4.5307,4.5307,4.5307,4.5307,4.5307,4.5307,4.5307,4.5307,4.5307,4.5307,4.5307,4.5307,4.5326,0.0,0.0,0.0,0.0,0.0,4.4452,4.3718,4.3608,4.3571,4.3463,4.341,4.341,4.3479,4.348,4.3444,4.3497,4.3515,4.3515,4.3515,4.3515,4.3515,4.3515,4.3515,4.3515,4.3515,4.3515,4.3515,0.0,0.0,4.3515,4.3515,4.3515,4.3515,4.3515,4.3515,4.3515,4.3515,4.3515,4.3515,4.3515,4.3515,4.3515,4.3515,4.3515,4.3515,4.3515,4.3515,4.3515,4.3515,4.3515,4.3515,4.3515,4.3515,4.3515,4.3515,4.3515,4.3515,4.3515,4.3515,4.3515,4.3515,4.3515,4.3515,4.3515,4.3515,4.3515,4.3515,4.3515,4.3515,4.3515,4.3515,4.3441,4.3423,0.0,0.0,0.0,0.0,0.0,0.0,0.0,0.0,0.0,0.0,4.1662,0.0,0.0,4.0202,0.0,0.0,0.0,4.2523,4.3589,4.3715,4.3753,4.3753,4.4772,4.5307,4.5307,4.5307,4.5307,4.5307,4.5307,4.5307,4.5307,4.5307,4.5307,4.5307,4.5307,4.5307,4.5307,4.5307,4.5307,4.5307,4.5307,4.5307,4.5392,0.0,0.0,4.6177,4.5535,4.5021,4.4599,4.4268,4.4213,4.4048,4.3552,4.3515,4.3515,4.3515,4.3515,4.3515,4.3515,4.3515,4.3515,4.3515,4.3515,4.3515,4.3515,4.3515,4.3515,4.3515,4.3515,4.3515,0.0,0.0,0.0,0.0,4.3515,4.3515,4.3515,4.3515,4.3515,4.3515,4.3515,4.3515,4.3515,4.3515,4.3515,4.3515,4.3515,4.3515,4.3515,4.3515,4.3515,4.3515,4.3515,4.3515,4.3515,4.3515,4.3515,4.3515,4.3515,4.3515,4.3515,4.3515,4.3515,4.3515,4.3515,4.3515,4.3515,4.3515,4.3515,4.3515,4.3515,4.3515,4.3515,4.3515,4.3112,4.2928,4.3423,0.0,0.0,0.0,0.0,0.0,0.0,0.0,0.0,0.0,4.168,0.0,0.0,0.0,0.0,0.0,4.258,4.3303,4.4063,0.0,4.452,4.432,4.496,4.5307,4.5307,4.5307,4.5307,4.5307,4.5307,4.5307,4.5307,4.5307,4.5307,4.5307,4.5307,4.5307,4.5307,4.5307,4.5307,4.5307,4.5307,4.5602,4.6137,4.7553,4.6819,4.6177,4.5938,4.5241,4.4618,4.4378,4.436,4.414,4.357,4.3515,4.3515,4.3515,4.3515,4.3515,4.3515,4.3515,4.3515,4.3515,4.3515,4.3515,4.3515,4.3515,0.0,4.3515,4.3515,4.3515,4.3515,4.3515,0.0,0.0,4.3515,4.3515,4.3515,4.3515,4.3515,4.3515,4.3515,4.3515,4.3515,4.3515,4.3515,4.3515,4.3515,4.3515,4.3515,4.3515,4.3515,4.3515,4.3515,4.3515,4.3515,4.3515,4.3515,4.3515,4.3515,4.3515,4.3515,4.3515,4.3515,4.3515,4.3515,4.3515,4.3515,4.3515,4.3515,4.3515,4.3515,4.3515,4.3515,4.3515,4.3039,4.2837,4.3423,0.0,0.0,0.0,4.3515,0.0,0.0,4.2653,4.2304,4.2304,4.1791,0.0,0.0,0.0,0.0,0.0,4.2891,4.3519,4.3896,4.4398,4.458,4.4329,4.4965,4.5307,4.5307,4.5307,4.5307,4.5307,4.5307,4.5307,4.5307,4.5307,4.5307,4.5307,4.5307,4.5307,4.5307,4.5307,4.5307,4.5297,4.5184,4.5505,4.6142,4.8306,4.7626,4.6819,4.6049,4.5241,4.4433,4.3626,4.3497,4.3515,4.3515,4.3515,4.3515,4.3515,4.3515,4.3515,4.3515,4.3515,4.3515,4.3515,4.3515,4.3515,0.0,0.0,4.3515,4.3515,4.3515,4.3515,4.3515,0.0,0.0,4.3515,4.3515,4.3515,4.3515,4.3515,4.3515,4.3515,4.3515,4.3515,4.3515,4.3515,4.3515,4.3515,4.3515,4.3515,4.3515,4.3515,4.3515,4.3515,4.3515,4.3515,4.3515,4.3515,4.3515,4.3515,4.3515,4.3515,4.3515,4.3515,4.3515,4.3515,4.3515,4.3515,4.3515,4.3515,4.3515,4.3515,4.3515,4.3515,4.3515,4.3515,4.3496,4.3496,4.3515,0.0,0.0,0.0,4.3515,0.0,4.2415,4.2304,4.2304,4.2304,4.2286,0.0,0.0,0.0,0.0,0.0,4.2698,4.2716,4.2716,4.3058,4.3208,4.3227,4.46,4.5307,4.5307,4.5307,4.5307,4.5307,4.5307,4.5307,4.5307,4.5307,4.5307,4.5307,4.5307,4.5307,4.5307,4.5307,4.5307,4.5256,4.4934,4.4819,4.5041,4.6874,4.6892,4.6837,4.6049,4.5681,4.5259,4.4452,4.4323,4.4121,4.357,4.3515,4.3515,4.3515,4.3515,4.3515,0.0,4.3515,4.3515,0.0,4.3515,4.3515,4.3515,4.3515,4.3515,4.3515,4.3515,4.3515,4.3515,4.3515,4.3515,4.3515,4.3515,4.3515,4.3515,4.3515,4.3515,4.3515,4.3515,4.3515,4.3515,4.3515,4.3515,4.3515,4.3515,4.3515,4.3515,4.3515,4.3515,4.3515,4.3515,4.3515,4.3515,4.3515,4.3515,4.3515,4.3515,4.3515,4.3515,4.3515,4.3515,4.3515,4.3515,4.3515,4.3515,4.3515,4.3515,4.3515,4.3515,4.3515,4.3515,4.3515,4.3515,4.3515,4.3515,4.3515,0.0,4.3515,0.0,4.3387,4.3149,4.3112,4.3112,4.3112,4.3112,0.0,0.0,0.0,0.0,4.2433,4.3172,4.3484,4.3242,4.3933,4.4189,4.4021,4.4874,4.5307,4.5307,4.5307,4.5307,4.5307,4.5307,4.5307,4.5297,4.5057,4.4957,4.4946,4.4758,4.4682,4.4682,4.4682,4.4682,4.4669,4.4578,4.485,4.543,4.7003,4.6947,4.6929,4.6452,4.6104,4.5736,4.5241,4.4892,4.4525,4.4011,4.3681,4.3515,4.3515,4.3515,4.3515,4.3515,4.3515,4.3515,4.3515,4.3515,4.3515,4.3515,4.3515,4.3515,4.3515,4.3515,4.3515,4.3515,4.3515,4.3515,4.3515,4.3515,4.3515,4.3515,4.3515,4.3515,4.3515,4.3515,4.3515,4.3515,4.3515,4.3515,4.3515,4.3515,4.3515,4.3515,4.3515,4.3515,4.3515,4.3515,4.3515,4.3515,4.3515,4.3515,4.3515,4.3515,4.3515,4.3515,4.3515,4.3515,4.3515,4.3515,4.3515,4.3515,4.3515,4.3515,4.3515,4.3515,4.3515,4.3515,4.3515,4.3515,4.3515,4.3515,4.3515,4.3515,4.3515,0.0,4.3404,0.0,0.0,4.3039,4.3039,4.3039,4.3167,0.0,0.0,0.0,4.2745,4.3146,4.3467,4.3664,4.4313,4.4612,4.4546,4.5053,4.5307,4.5307,4.5307,4.5307,4.5297,4.5173,4.5109,4.5098,4.4782,4.465,4.4637,4.4465,4.4397,4.4397,4.4397,4.4397,4.4421,4.463,4.4954,4.5457,4.8233,4.7663,4.7186,4.7186,4.6562,4.6049,4.5993,4.5351,4.4819,4.4709,4.4048,4.3552,4.3515,4.3515,4.3515,4.3515,4.3515,4.3515,4.3515,4.3515,4.3515,4.3515,4.3515,4.3515,4.3515,4.3515,4.3515,4.3515,4.3515,4.3515,4.3515,4.3515,4.3515,4.3515,4.3515,4.3515,4.3515,4.3515,4.3515,4.3515,4.3515,4.3515,4.3515,4.3515,4.3515,4.3515,4.3515,4.3515,4.3515,4.3515,4.3515,4.3515,4.3515,4.3515,4.3515,4.3515,4.3515,4.3515,4.3515,4.3515,4.3515,4.3515,4.3515,4.3515,4.3515,4.3515,4.3515,4.3515,4.3515,4.3515,4.3515,4.3515,4.3515,4.3515,4.3515,4.3515,4.3515,4.3515,4.3222,4.247,0.0,4.2378,4.2378,4.2378,4.269,0.0,0.0,0.0,4.3515,4.276,4.2836,4.3952,4.4294,4.4546,4.4788,4.5121,4.5307,4.5307,4.5307,4.5297,4.5256,4.4946,4.4788,4.4751,4.4479,4.4374,4.4374,4.436,4.4346,4.4346,4.4346,4.4365,4.4472,4.4994,4.5099,4.524,4.7498,4.7718,4.8012,4.8012,4.7865,4.7535,4.6911,4.6654,4.6085,4.4856,4.4544,4.4176,4.357,4.3515,4.3515,4.3515,4.3515,4.3515,4.3515,4.3515,4.3515,4.3515,4.3515,4.3515,4.3515,4.3515,4.3515,4.3515,4.3515,4.3515,4.3515,4.3515,4.3515,4.3515,4.3515,4.3515,4.3515,4.3515,4.3515,4.3515,4.3515,4.3515,4.3515,4.3515,4.3515,4.3515,4.3515,4.3515,4.3515,4.3515,4.3515,4.3515,4.3515,4.3515,4.3515,4.3515,4.3515,4.3515,4.3515,4.3515,4.3515,4.3515,4.3515,4.3515,4.3515,4.3515,4.3515,4.3515,4.3515,4.3515,4.3515,4.3515,4.3515,4.3515,4.3515,4.3515,4.3515,4.3515,4.3441,0.0,4.3222,4.3222,4.3222,4.3222,4.3277,0.0,0.0,4.2837,4.3478,4.2918,4.3018,4.3968,4.4471,4.4739,4.4788,4.5121,4.5307,4.5307,4.5307,4.5173,4.4922,4.4843,4.4688,4.4479,4.4206,4.4091,4.406,4.3809,4.3712,4.3712,4.3712,4.4083,4.464,4.4706,4.5058,4.5627,4.7718,4.8012,4.8306,4.8306,4.8306,4.8159,4.7718,4.7333,4.6782,4.5902,4.515,4.4544,4.4103,4.3718,4.3515,4.3515,4.3515,4.3515,4.3515,4.3515,4.3515,4.3515,4.3515,4.3515,4.3515,4.3515,4.3515,4.3515,4.3515,4.3515,4.3515,4.3515,4.3515,4.3515,4.3515,4.3515,4.3515,4.3515,4.3515,4.3515,4.3515,4.3515,4.3515,4.3515,4.3515,4.3515,4.3515,4.3515,4.3515,4.3515,4.3515,4.3515,4.3515,4.3515,4.3515,4.3515,4.3515,4.3515,4.3515,4.3515,4.3515,4.3515,4.3515,4.3515,4.3515,4.3515,4.3515,4.3515,4.3515,4.3515,4.3515,4.3515,4.3515,4.3515,4.3515,4.3515,4.3515,4.3515,4.3515,4.3515,4.3515,4.3515,4.3515,4.3515,4.3515,4.3515,4.3094,4.3039,4.3478,4.3368,4.3561,4.4158,4.4572,4.4868,4.5034,4.5224,4.5307,4.5297,4.5132,4.4988,4.4788,4.4552,4.4346,4.4192,4.3908,4.3781,4.3765,4.3565,4.3515,4.3515,4.3515,4.3975,4.4711,4.5149,4.5663,4.6239,4.8343,4.8416,4.8453,4.8324,4.8306,4.8306,4.8306,4.7718,4.7241,4.7113,4.5902,4.5021,4.4874,4.4268,4.3846,4.3846,4.3736,4.3643,4.3515,4.3515,4.3515,4.3515,4.3515,4.3515,4.3515,4.3515,4.3515,4.3515,4.3515,4.3515,4.3515,4.3515,4.3515,4.3515,4.3515,4.3515,4.3515,4.3515,4.3515,4.3515,4.3515,4.3515,4.3515,4.3515,4.3515,4.3515,4.3515,4.3515,4.3515,4.3515,4.3515,4.3515,4.3515,4.3515,4.3515,4.3515,4.3515,4.3515,4.3515,4.3515,4.3515,4.3515,4.3515,4.3515,4.3515,4.3515,4.3515,4.3515,4.3515,4.3515,4.3515,4.3515,4.3515,4.3515,4.3515,4.3515,4.3515,4.3515,4.3515,4.3515,4.3515,4.3515,4.3515,4.3515,4.3515,4.3515,4.3515,4.3515,4.3515,4.3814,4.4091,4.4332,4.4599,4.4887,4.5162,4.5162,4.5162,4.5162,4.4887,4.4714,4.4663,4.421,4.3974,4.391,4.3615,4.3515,4.3515,4.3515,4.357,4.3681,4.3681,4.4215,4.5077,4.5955,4.6543,4.7015,4.8434,4.8893,4.9169,4.8434,4.8306,4.8306,4.8306,4.8196,4.7865,4.7186,4.6874,4.647,4.5792,4.559,4.5535,4.5535,4.4911,4.4232,4.3551,4.3515,4.3515,4.3515,4.3515,4.3515,4.3515,4.3515,4.3515,4.3515,4.3515,4.3515,4.3515,4.3515,4.3515,4.3515,4.3515,4.3515,4.3515,4.3515,4.3515,4.3515,4.3515,4.3515,4.3515,4.3515,4.3515,4.3515,4.3515,4.3515,4.3515,4.3515,4.3515,4.3515,4.3515,4.3515,4.3515,4.3515,4.3515,4.3515,4.3515,4.3515,4.3515,4.3515,4.3515,4.3515,4.3515,4.3515,4.3515,4.3515,4.3515,4.3515,4.3515,4.3515,4.3515,4.3515,4.3515,4.3515,4.3515,4.3515,4.3515,4.3515,4.3515,4.3515,4.3515,4.3515,4.3515,4.3515,4.3515,4.3515,4.3515,4.3814,4.4036,4.4064,4.4318,4.4498,4.4552,4.4552,4.4552,4.4552,4.4498,4.4346,4.4121,4.4033,4.3846,4.3565,4.3513,4.3515,4.3515,4.3515,4.3901,4.4525,4.4525,4.537,4.6632,4.6685,4.7133,4.7741,4.9738,4.9976,4.9976,4.915,4.9003,4.8838,4.8379,4.8306,4.8177,4.7791,4.7369,4.6947,4.6581,4.6159,4.5902,4.5902,4.5571,4.5002,4.4195,4.3736,4.3515,4.3515,4.3515,4.3515,4.3515,4.3515,4.3515,4.3515,4.3515,4.3515,4.3515,4.3515,4.3515,4.3515,4.3515,4.3515,4.3515,4.3515,4.3515,4.3515,4.3515,4.3515,4.3515,4.3515,4.3515,4.3515,4.3515,4.3515,4.3515,4.3515,4.3515,4.3515,4.3515,4.3515,4.3515,4.3515,4.3515,4.3515,4.3515,4.3515,4.3515,4.3515,4.3515,4.3515,4.3515,4.3515,4.3515,4.3515,4.3515,4.3515,4.3515,4.3515,4.3515,4.3515,4.3515,4.3515,4.3515,4.3515,4.3515,4.3515,4.3515,4.3515,4.3515,4.3515,4.3515,4.3515,4.3515,4.3515,4.3515,4.3649,4.3732,4.3732,4.4158,4.4397,4.4397,4.4397,4.4397,4.4402,4.4265,4.4121,4.3989,4.3814,4.3649,4.3515,4.3515,4.3515,4.3497,4.3445,4.3666,4.4033,4.44,4.5222,4.6241,4.6759,4.7317,4.7822,5.0839,5.0949,5.082,5.0033,4.9721,4.9372,4.8691,4.8434,4.8306,4.8306,4.7755,4.7369,4.7369,4.6838,4.6452,4.6452,4.6287,4.592,4.5296,4.4507,4.3883,4.3533,4.3515,4.3515,4.3515,4.3515,4.3515,4.3515,4.3515,4.3515,4.3515,4.3515,4.3515,4.3515,4.3515,4.3515,4.3515,4.3515,4.3515,4.3515,4.3515,4.3515,4.3515,4.3515,4.3515,4.3515,4.3515,4.3515,4.3515,4.3515,4.3515,4.3515,4.3515,4.3515,4.3515,4.3515,4.3515,4.3515,4.3515,4.3515,4.3515,4.3515,4.3515,4.3515,4.3515,4.3515,4.3515,4.3515,4.3515,4.3515,4.3515,4.3515,4.3515,4.3515,4.3515,4.3515,4.3515,4.3515,4.3515,4.3515,4.3515,4.3515,4.3515,4.3515,4.3515,4.3515,4.3515,4.3515,4.3515,4.3515,4.3515,4.3515,4.3965,4.4202,4.4202,4.4202,4.4202,4.4202,4.3983,4.3894,4.3878,4.3615,4.3515,4.3515,4.3515,4.3497,4.3481,4.3613,4.3778,4.398,4.4674,4.5399,4.6161,4.6978,4.7461,4.772,5.0949,5.1389,5.1646,5.0857,5.0086,4.9574,4.9519,4.882,4.8306,4.8306,4.8251,4.8214,4.8214,4.8159,4.8122,4.8122,4.7443,4.6984,4.6929,4.6177,4.5057,4.357,4.3515,4.3515,4.3515,4.3515,4.3515,4.3515,4.3515,4.3515,4.3515,4.3515,4.3515,4.3515,4.3515,4.3515,4.3515,4.3515,4.3515,4.3515,4.3515,4.3515,4.3515,4.3515,4.3515,4.3515,4.3515,4.3515,4.3515,4.3515,4.3515,4.3515,4.3515,4.3515,4.3515,4.3515,4.3515,4.3515,4.3515,4.3515,4.3515,4.3515,4.3515,4.3515,4.3515,4.3515,4.3515,4.3515,4.3515,4.3515,4.3515,4.3515,4.3515,4.3515,4.3515,4.3515,4.3515,4.3515,4.3515,4.3515,4.3515,4.3515,4.3515,4.3515,4.3515,4.3515,4.3515,4.3515,4.3515,4.3515,4.3515,4.3515,4.3548,4.3565,4.3565,4.3565,4.3565,4.3565,4.3548,4.3549,4.3549,4.3515,4.3515,4.3515,4.3515,4.3463,4.3467,4.4217,4.4876,4.5531,4.6314,4.7074,4.7738,4.7813,4.7767,4.7699,5.2362,5.2546,5.2491,5.1683,5.1279,5.0749,4.9757,4.9335,4.8912,4.8379,4.8306,4.8306,4.8306,4.8306,4.8306,4.8306,4.8012,4.7626,4.7131,4.6801,4.6159,4.5039,4.4984,4.4745,4.4268,4.425,4.3993,4.3515,4.3515,4.3515,4.3515,4.3515,4.3515,4.3515,4.3515,4.3515,4.3515,4.3515,4.3515,4.3515,4.3515,4.3515,4.3515,4.3515,4.3515,4.3515,4.3515,4.3515,4.3515,4.3515,4.3515,4.3515,4.3515,4.3515,4.3515,4.3515,4.3515,4.3515,4.3515,4.3515,4.3515,4.3515,4.3515,4.3515,4.3515,4.3515,4.3515,4.3515,4.3515,4.3515,4.3515,4.3515,4.3515,4.3515,4.3515,4.3515,4.3515,4.3515,4.3515,4.3515,4.3515,4.3515,4.3515,4.3515,4.3515,4.3515,4.3515,4.3515,4.3515,4.3515,4.3515,4.3515,4.3515,4.3515,4.3515,4.3515,4.3515,4.3515,4.3515,4.3515,4.3515,4.3515,4.3515,4.3497,4.3464,4.3704,4.4144,4.4345,4.4854,4.5616,4.6319,4.6846,4.7209,4.762,4.7798,4.7819,5.3185,5.3185,5.3041,5.2472,5.216,5.1536,5.0198,4.9757,4.9298,4.8416,4.8306,4.8306,4.8306,4.8306,4.8306,4.8306,4.8306,4.8086,4.7498,4.748,4.7003,4.5957,4.5663,4.5259,4.4727,4.4452,4.4048,4.3515,4.3515,4.3515,4.3515,4.3515,4.3515,4.3515,4.3515,4.3515,4.3515,4.3515,4.3515,4.3515,4.3515,4.3515,4.3515,4.3515,4.3515,4.3515,4.3515,4.3515,4.3515,4.3515,4.3515,4.3515,4.3515,4.3515,4.3515,4.3515,4.3515,4.3515,4.3515,4.3515,4.3515,4.3515,4.3515,4.3515,4.3515,4.3515,4.3515,4.3515,4.3515,4.3515,4.3515,4.3515,4.3515,4.3515,4.3515,4.3515,4.3515,4.3515,4.3515,4.3515,4.3515,4.3515,4.3515,4.3515,4.3515,4.3515,4.3515,4.3515,4.3515,4.3515,4.3515,4.3515,4.3515,4.3515,4.3515,4.3515,4.3515,4.3515,4.3515,4.3515,4.3515,4.3515,4.3626,4.3864,4.3831,4.4217,4.493,4.5093,4.5434,4.5957,4.668,4.7028,4.7161,4.7606,4.7842,4.7881,5.3185,5.3185,5.3185,5.3185,5.2546,5.1738,5.093,5.0123,4.9317,4.8434,4.8324,4.8324,4.8306,4.8306,4.8306,4.8306,4.8306,4.8306,4.8306,4.8306,4.759,4.5993,4.5149,4.4728,4.4709,4.3938,4.3533,4.3515,4.3515,4.3515,4.3515,4.3515,4.3515,4.3515,4.3515,4.3515,4.3515,4.3515,4.3515,4.3515,4.3515,4.3515,4.3515,4.3515,4.3515,4.3515,4.3515,4.3515,4.3515,4.3515,4.3515,4.3515,4.3515,4.3515,4.3515,4.3515,4.3515,4.3515,4.3515,4.3515,4.3515,4.3515,4.3515,4.3515,4.3515,4.3515,4.3515,4.3515,4.3515,4.3515,4.3515,4.3515,4.3515,4.3515,4.3515,4.3515,4.3515,4.3515,4.3515,4.3515,4.3515,4.3515,4.3515,4.3515,4.3515,4.3515,4.3515,4.3515,4.3515,4.3515,4.3515,4.3515,4.3515,4.3515,4.3515,4.3515,4.3515,4.3515,4.3515,4.3515,4.3515,4.3515,4.3956,4.4727,4.4709,4.5041,4.5676,4.6612,4.6881,4.6813,4.766,4.7992,4.7992,4.7992,4.7968,4.792,5.3185,5.3185,5.3185,5.3185,5.3004,5.2564,5.1756,5.1426,5.0804,4.9389,4.9225,4.8967,4.8379,4.8306,4.8306,4.8306,4.8306,4.8306,4.8306,4.8306,4.8104,4.7609,4.7352,4.6966,4.6397,4.614,4.548,4.4342,4.4342,4.4048,4.3515,4.3515,4.3515,4.3515,4.3515,4.3515,4.3515,4.3515,4.3515,4.3515,4.3515,4.3515,4.3515,4.3515,4.3515,4.3515,4.3515,4.3515,4.3515,4.3515,4.3883,4.4342,4.4342,4.3956,4.3515,4.3515,4.3515,4.3515,4.3515,4.3515,4.3515,4.3515,4.3515,4.3515,4.3515,4.3515,4.3515,4.3515,4.3515,4.3515,4.3515,4.3515,4.3515,4.3515,4.3515,4.3515,4.3515,4.3515,4.3515,4.3515,4.3515,4.3515,4.3515,4.3515,4.3515,4.3515,4.3515,4.3515,4.3515,4.3515,4.3515,4.3515,4.3515,4.3515,4.3515,4.3515,4.3515,4.3515,4.3515,4.3791,4.4342,4.4342,4.4782,4.5553,4.548,4.5882,4.6593,4.6774,4.7153,4.7642,4.7901,4.807,4.813,4.8032,4.8395,4.8946,5.3185,5.3185,5.3185,5.3185,5.3185,5.2931,5.2105,5.1995,5.1536,5.0233,4.9812,4.9408,4.8875,4.8508,4.8306,4.8306,4.8306,4.8306,4.8306,4.8306,4.8306,4.8306,4.8306,4.7921,4.7113,4.6782,4.6159,4.5168,4.5168,4.4764,4.3975,4.3975,4.3791,4.3515,4.3515,4.3515,4.3515,4.3515,4.3515,4.3515,4.3515,4.3515,4.3515,4.3515,4.3515,4.3515,4.3515,4.3515,4.3515,4.3515,4.403,4.4636,4.4323,4.4103,4.3901,4.3589,4.3515,4.3515,4.3515,4.3515,4.3515,4.3515,4.3515,4.3515,4.3515,4.3515,4.3515,4.3515,4.3515,4.3515,4.3515,4.3515,4.3515,4.3515,4.3515,4.3515,4.3515,4.3515,4.3515,4.3515,4.3515,4.3515,4.3515,4.3515,4.3515,4.3515,4.3515,4.3515,4.3515,4.3515,4.3515,4.3515,4.3515,4.3515,4.3515,4.3809,4.3975,4.3975,4.3975,4.4397,4.5168,4.5168,4.5608,4.636,4.6323,4.6762,4.7474,4.7417,4.7633,4.8012,4.807,4.809,4.811,4.8032,4.834,4.8796,5.3185,5.3185,5.3185,5.3185,5.3185,5.2968,5.2215,5.2105,5.1811,5.1004,5.027,4.9794,4.9721,4.9003,4.8526,4.8526,4.8471,4.8416,4.8416,4.8343,4.8306,4.8306,4.8306,4.7957,4.7223,4.6489,4.6085,4.6012,4.6012,4.5608,4.4801,4.4801,4.4378,4.3625,4.3625,4.357,4.3515,4.3515,4.3515,4.3515,4.3515,4.3515,4.3515,4.3515,4.3515,4.3515,4.3515,4.3515,4.3533,4.368,4.4158,4.4617,4.4011,4.4176,4.447,4.3791,4.357,4.3515,4.3515,4.3515,4.3515,4.3515,4.3515,4.3515,4.3515,4.3515,4.3515,4.3515,4.3515,4.3515,4.3515,4.3515,4.3515,4.3515,4.3515,4.3515,4.3515,4.3515,4.3515,4.3515,4.3515,4.3515,4.3515,4.3515,4.3515,4.3515,4.3515,4.3515,4.3515,4.3515,4.3533,4.3606,4.3625,4.3626,4.3717,4.4433,4.4782,4.4691,4.4782,4.5241,4.6012,4.6012,4.6452,4.7204,4.7204,4.7587,4.8207,4.8267,4.817,4.8012,4.8148,4.811,4.7992,4.7992,4.8004,4.8052,5.3185,5.3185,5.3185,5.3185,5.3185,5.313,5.2968,5.2949,5.2656,5.1848,5.1573,5.1224,5.06,5.038,5.027,5.027,4.9664,4.9335,4.9335,4.8673,4.8306,4.8306,4.8306,4.8233,4.8049,4.7884,4.748,4.6837,4.6837,4.6415,4.5645,4.5645,4.5204,4.4452,4.4452,4.4085,4.3515,4.3515,4.3515,4.3515,4.3515,4.3515,4.3515,4.3515,4.3515,4.3515,4.3515,4.3515,4.3698,4.4947,4.5076,4.4874,4.5975,4.5149,4.3846,4.4305,4.3993,4.3515,4.3515,4.3515,4.3515,4.3515,4.3515,4.3515,4.3515,4.3515,4.3515,4.3515,4.3515,4.3515,4.3515,4.3515,4.3515,4.3515,4.3515,4.3515,4.3515,4.3515,4.3515,4.3515,4.3515,4.3515,4.3515,4.3515,4.3515,4.3515,4.3515,4.3515,4.3515,4.3515,4.3791,4.4415,4.4452,4.4745,4.5369,4.5553,4.5333,4.4727,4.5351,4.6067,4.6837,4.6837,4.7278,4.803,4.7971,4.8042,4.8187,4.8207,4.813,4.8012,4.8148,4.811,4.7992,4.7992,4.8373,4.8917,5.3185,5.3185,5.3185,5.3185,5.3185,5.3185,5.3185,5.3185,5.3059,5.2637,5.2234,5.183,5.1426,5.1041,5.0802,5.0802,5.0417,5.016,5.016,4.9389,4.8912,4.8912,4.8526,4.8306,4.8306,4.8306,4.8104,4.7663,4.7663,4.7259,4.6471,4.6471,4.6049,4.5278,4.5278,4.4837,4.4066,4.4066,4.3846,4.3515,4.3515,4.3515,4.3515,4.3515,4.3515,4.3515,4.3515,4.3515,4.3698,4.4911,4.5296,4.5351,4.581,4.5351,4.458,4.4232,4.3828,4.3515,4.3515,4.3515,4.3515,4.3515,4.3515,4.3515,4.3515,4.3515,4.3515,4.3515,4.3515,4.3515,4.3515,4.3515,4.3515,4.3515,4.3515,4.3515,4.3515,4.3515,4.3515,4.3515,4.3515,4.3515,4.3515,4.3846,4.4066,4.4066,4.4433,4.4635,4.4635,4.4635,4.4837,4.5259,4.5278,4.548,4.5902,4.6287,4.625,4.5847,4.6269,4.6874,4.7663,4.7643,4.7863,4.8287,4.8169,4.8148,4.8224,4.8548,4.8395,4.7984,4.8466,4.8295,4.7847,4.7847,4.8416,4.9203,5.3185,5.3185,5.3185,5.3185,5.3185,5.3185,5.3185,5.3185,5.3185,5.3185,5.2619,5.2197,5.2197,5.161,5.1206,5.1206,5.1077,5.1004,5.1004,5.0251,4.9812,4.9812,4.9114,4.8673,4.8526,4.8526,4.8453,4.8306,4.8306,4.7957,4.7314,4.7314,4.6801,4.5902,4.5902,4.5388,4.4488,4.4488,4.4103,4.3515,4.3515,4.3515,4.3515,4.3515,4.3515,4.3515,4.3515,4.3589,4.3809,4.4488,4.5149,4.5608,4.5076,4.5168,4.5241,4.4048,4.3625,4.3515,4.3515,4.3515,4.3515,4.3515,4.3515,4.3515,4.3515,4.3515,4.3515,4.3515,4.3515,4.3515,4.3515,4.3515,4.3515,4.3515,4.3515,4.3515,4.3515,4.3515,4.3515,4.3515,4.3608,4.3699,4.3699,4.4433,4.4911,4.4911,4.5516,4.5902,4.5902,4.5902,4.5957,4.6104,4.6104,4.6177,4.6305,4.6966,4.7314,4.7314,4.7314,4.7645,4.8287,4.8228,4.8228,4.8267,4.8072,4.805,4.8201,4.8906,4.8728,4.8133,4.8829,4.862,4.7877,4.7753,4.8378,4.9334,5.3185,5.3185,5.3185,5.3185,5.3185,5.3185,5.3185,5.3185,5.3185,5.3185,5.3115,5.3041,5.3041,5.2949,5.2873,5.2873,5.2234,5.183,5.183,5.1077,5.0637,5.0637,5.0527,5.0141,4.9445,4.9427,4.904,4.8306,4.8306,4.8251,4.8141,4.8141,4.7352,4.5902,4.5902,4.5057,4.3644,4.3644,4.3606,4.3515,4.3515,4.3515,4.3515,4.3515,4.3515,4.3515,4.3515,4.3956,4.4562,4.4672,4.4782,4.4966,4.5553,4.4856,4.392,4.4397,4.4048,4.3515,4.3515,4.3515,4.3515,4.3515,4.3515,4.3515,4.3515,4.3515,4.3515,4.3515,4.3515,4.3515,4.3515,4.3515,4.3515,4.3515,4.3515,4.3515,4.3515,4.3515,4.3515,4.3515,4.4103,4.4544,4.4544,4.5278,4.5736,4.5736,4.5847,4.5902,4.5902,4.5902,4.6214,4.6911,4.6929,4.7259,4.7976,4.8086,4.8141,4.8141,4.8141,4.8196,4.8306,4.8287,4.8267,4.8207,4.8052,4.7988,4.7997,4.8798,4.8986,4.8789,4.9004,4.8947,4.8637,4.795,4.8641,4.9876,5.3185,5.3185,5.3185,5.3185,5.3185,5.3185,5.3185,5.3185,5.3185,5.3185,5.3185,5.3185,5.3185,5.3185,5.3185,5.3185,5.2876,5.2674,5.2674,5.1922,5.1463,5.1463,5.1041,5.0637,5.027,4.9831,4.9408,4.9022,4.8545,4.8306,4.8306,4.8306,4.7921,4.7223,4.6783,4.5938,4.48,4.436,4.3901,4.3515,4.3515,4.3515,4.3515,4.3515,4.3515,4.3515,4.3515,4.3718,4.4176,4.5076,4.5076,4.4838,4.5645,4.5094,4.4158,4.4066,4.3773,4.3515,4.3515,4.3515,4.3515,4.3515,4.3515,4.3515,4.3515,4.3515,4.3515,4.3515,4.3515,4.3515,4.3515,4.3515,4.3515,4.3515,4.3515,4.3515,4.3515,4.3515,4.3663,4.4121,4.4874,4.5369,4.5369,4.6104,4.6562,4.6562,4.7003,4.7241,4.7241,4.7241,4.7407,4.7755,4.7755,4.7938,4.8306,4.8783,4.9022,4.9022,4.9481,4.9224,4.8287,4.8267,4.8247,4.8247,4.8028,4.8006,4.8138,4.9228,4.9397,4.9089,4.9978,5.0007,4.9474,4.8762,4.9448,5.0651]}]]